     2              OBSERVATION DATA    GPS                 RINEX VERSION / TYPE
ASHTORIN 17 - APR - 99 10:01                                PGM / RUN BY / DATE
                                                            COMMENT
Original Marker Name: SIO4                                  COMMENT
Campaign Name: rose canyon fault                            COMMENT
4-Character Station Name: SIO4                              COMMENT
6-Character Antenna Code: DMRCHT                            COMMENT
Vertical Measurement Point: BPA                             COMMENT
Vertical Offset to Rinex Ref. Point: 0.0000                 COMMENT
Radial Measurement Point: RRP                               COMMENT
Radial Offset to Rinex Ref. Point: 0.0000                   COMMENT
Antenna Height from Field Measurement: 0.0000 m             COMMENT
Additional Antenna Identification Info.:                    COMMENT
Turborogue and Ashtech Choke Ring                           COMMENT
Original XYZ: 0.0000 0.0000 0.0000                          COMMENT
New XYZ position is based on association with SCEC monument COMMENT
E1C8P4W3+0501. Position of that monument is believed to be  COMMENT
valid to within 1 m horizontally; vertical accuracy         COMMENT
should be no worse than 3-times this value.                 COMMENT
                                                            COMMENT
Revised Rinex header created by UCSD GPS archive for        COMMENT
GSAC on 03-Sep-1999 (1999:246) 23:47:33 GMT                 COMMENT
For assistance contact dagnew@ucsd.edu or hjohnson@ucsd.edu COMMENT
                                                            COMMENT
SIO LIBRARY WALL - SOUTH                                    MARKER NAME
                                                            MARKER NUMBER
SJB SCRIPPS INSTITUTION OF OCEANOGRAPHY                     OBSERVER / AGENCY
386 ASHTECH Z12-XII3 1E951D0                                REC # / TYPE / VERS
738 DORNE-MARGOL. TYPE T                                    ANT # / TYPE
 -2455542.0000 -4767225.0000  3441626.0000                  APPROX POSITION XYZ
        0.0000        0.0000        0.0000                  ANTENNA: DELTA H/E/N
     1     1     0                                          WAVELENGTH FACT L1/2
     7    L1    L2    C1    P1    P2    D1    D2            # / TYPES OF OBSERV
    30                                                      INTERVAL
  1999     4    11     1    29   30.000000                  TIME OF FIRST OBS
  1999     4    11    23    59   30.000000                  TIME OF LAST OBS
                                                            END OF HEADER
 99  4 11  1 29 30.0000000  0  6 17 26 23 22 21  6                   0.000000000
    -28473.91019    -20468.38058  21157618.271    21157618.0665   21157625.8845
        -0.000          -0.000
     26434.86919     18640.27157  22024062.354    22024062.7395   22024071.4665
        -0.000          -0.000
    -60749.05519    -43971.48752         0.000           0.0005          0.0005
        -0.000          -0.000
     39953.97119     27867.85955         0.000           0.0005   23614672.1175
        -0.000          -0.000
   -173070.45519   -122452.06155  23867891.413    23867892.1225   23867906.5095
        -0.000          -0.000
    149414.97919    101464.96458  21062674.909    21062674.7345   21062682.3045
        -0.000          -0.000
 99  4 11  1 30  0.0000000  0  6 17 26 23 22 21  6                   0.000828806
    -41080.618 9    -30291.76748  21155218.254    21155218.7474   21155226.8454
        -0.000          -0.000
     38673.868 9     28177.21247  22026392.945    22026392.2854   22026400.5944
        -0.000          -0.000
    -86779.87619      -209.32652         0.000           0.0005          0.0005
        -0.000          -0.000
     57714.02319     41706.81646  23618040.363    23618040.0215   23618051.3484
        -0.000          -0.000
   -248568.602 9   -181281.62146  23853525.385    23853524.9984   23853539.4594
        -0.000          -0.000
    207531.923 9    146750.86448  21073733.699    21073733.8684   21073741.7844
        -0.000          -0.000
 99  4 11  1 30 30.0000000  0  7 17 26 23 22 21  6 30                0.000831161
    -53569.344 9    -40023.22648  21152841.792    21152842.0624   21152850.3694
        -0.000          -0.000
     51450.993 9     38133.46747  22028823.840    22028823.8124   22028832.1154
        -0.000          -0.000
   -112435.39719    -20200.47758  21154415.240    21154415.3035   21154423.4015
        -0.000          -0.000
     75878.288 9     55860.74846  23621496.429    23621496.2994   23621507.9494
        -0.000          -0.000
   -323897.231 9   -239979.07446  23839190.312    23839190.6914   23839204.2464
        -0.000          -0.000
    266075.629 9    192369.31048  21084874.353    21084874.3754   21084882.4074
        -0.000          -0.000
     52514.96518     21694.17552         0.000           0.0005          0.0005
        -0.000          -0.000
 99  4 11  1 31  0.0000000  0  7 17 26 23 22 21  6 30                0.000833472
    -65904.804 9    -49635.24148  21150495.009    21150494.7574   21150503.0354
        -0.000          -0.000
     64798.115 9     48533.86047  22031363.864    22031363.8144   22031372.0974
        -0.000          -0.000
   -137684.309 9    -39874.90249  21149610.736    21149610.6694   21149618.6104
        -0.000          -0.000
     94475.617 9     70352.14646  23625034.967    23625034.8194   23625046.8434
        -0.000          -0.000
   -399025.521 9   -298520.44946  23824893.965    23824894.3094   23824907.3994
        -0.000          -0.000
    325072.258 9    238340.67148  21096101.314    21096101.1534   21096109.1634
        -0.000          -0.000
    153191.073 8    100143.70552         0.000           0.0004          0.0005
        -0.000          -0.000
 99  4 11  1 31 30.0000000  0  7 17 26 23 22 21  6 30                0.000835778
    -78055.474 9    -59103.27448  21148182.867    21148182.5084   21148190.8384
        -0.000          -0.000
     78756.817 9     59410.80147  22034020.149    22034020.1444   22034028.3474
        -0.000          -0.000
   -162519.076 9    -59226.62049  21144884.995    21144884.7414   21144892.6654
        -0.000          -0.000
    113539.088 9     85206.75346  23628662.392    23628662.4174   23628674.5744
        -0.000          -0.000
   -473921.246 9   -356880.59546  23810641.959    23810642.0964   23810654.7784
        -0.000          -0.000
    384550.078 9    284686.98248  21107419.544    21107419.3584   21107427.4394
        -0.000          -0.000
    253684.634 8    178450.84352         0.000           0.0004          0.0005
        -0.000          -0.000
 99  4 11  1 32  0.0000000  0  7 17 26 23 22 21  6 30                0.000838095
    -90009.223 9    -68417.86048  21145908.086    21145907.7724   21145916.0674
        -0.000          -0.000
     93341.596 9     70775.60247  22036795.742    22036795.7544   22036803.7094
        -0.000          -0.000
   -186945.063 9    -78259.81649  21140236.912    21140236.6584   21140244.5834
        -0.000          -0.000
    133080.027 9    100433.42146  23632380.909    23632380.8934   23632393.2914
        -0.000          -0.000
   -548575.561 9   -415052.61146  23796435.594    23796435.7004   23796448.2584
        -0.000          -0.000
    444521.954 9    331418.28648  21118831.634    21118831.5274   21118839.7844
        -0.000          -0.000
    354005.44118     15065.43852         0.000           0.0005          0.0005
        -0.000          -0.000
 99  4 11  1 32 30.0000000  0  7 17 26 23 22 21  6 30                0.000840442
   -101755.462 9    -77570.74348  21143673.045    21143672.6204   21143680.8704
        -0.000          -0.000
    108579.877 9     82649.63047  22039695.484    22039695.5364   22039703.4714
        -0.000          -0.000
   -210947.812 9    -96963.21249  21135669.497    21135669.1414   21135676.9914
        -0.000          -0.000
    153119.747 9    116048.76946  23636194.128    23636194.2734   23636206.9764
        -0.000          -0.000
   -622973.209 9   -473024.62646  23782278.153    23782278.2514   23782290.7784
        -0.000          -0.000
    505000.539 9    378544.41748  21130340.272    21130340.2404   21130348.5634
        -0.000          -0.000
    454174.877 8     93119.14252         0.000           0.0004          0.0005
        -0.000          -0.000
 99  4 11  1 33  0.0000000  0  7 17 26 23 22 21  6 30                0.000842839
   -113288.159 9    -86557.23448  21141478.532    21141478.0294   21141486.2424
        -0.000          -0.000
    124493.296 9     95049.73647  22042723.659    22042723.7704   22042731.7164
        -0.000          -0.000
   -234502.005 9   -115317.07249  21131187.349    21131186.9144   21131194.7054
        -0.000          -0.000
    173676.333 9    132066.83946  23640106.179    23640106.2644   23640118.7144
        -0.000          -0.000
   -697093.159 9   -530780.24746  23768173.763    23768173.7564   23768186.1784
        -0.000          -0.000
    565996.029 9    426073.33648  21141947.528    21141947.4744   21141955.7204
        -0.000          -0.000
    554214.574 8    171071.86152         0.000           0.0004          0.0005
        -0.000          -0.000
 99  4 11  1 33 30.0000000  0  7 17 26 23 22 21  6 30                0.000845269
   -124611.494 9    -95380.57048  21139323.858    21139323.2714   21139331.4734
        -0.000          -0.000
    141078.129 9    107973.01747  22045879.695    22045879.8454   22045887.7374
        -0.000          -0.000
   -257607.593 9   -133321.37249  21126790.513    21126790.0484   21126797.8764
        -0.000          -0.000
    194734.940 9    148476.09546  23644113.908    23644113.8104   23644126.0834
        -0.000          -0.000
   -770953.038 9   -588333.22146  23754118.860    23754118.7264   23754130.9504
        -0.000          -0.000
    627497.571 9    473996.58748  21153651.055    21153650.9424   21153659.0484
        -0.000          -0.000
    654111.16918    248913.06255         0.000           0.0005   25448623.3575
        -0.000          -0.000
 99  4 11  1 34  0.0000000  0  7 17 26 23 22 21  6 30                0.000847728
   -135736.242 9   -104049.18148  21137206.716    21137206.1874   21137214.5524
        -0.000          -0.000
    158333.089 9    121418.46947  22049163.300    22049163.4124   22049171.2484
        -0.000          -0.000
   -280244.726 9   -150960.65249  21122482.678    21122482.2304   21122490.2534
        -0.000          -0.000
    216305.859 9    165284.55946  23648219.017    23648218.7984   23648230.8874
        -0.000          -0.000
   -844551.079 9   -645682.16846  23740113.584    23740113.4024   23740125.5864
        -0.000          -0.000
    689504.556 9    522313.68048  21165450.707    21165450.5734   21165458.5814
        -0.000          -0.000
    753866.69718    326644.28345  25467587.060    25467587.9765   25467606.0914
        -0.000          -0.000
 99  4 11  1 34 30.0000000  0  7 17 26 23 22 21  6 30                0.000850216
   -146653.408 9   -112556.03348  21135129.218    21135128.7354   21135137.1284
        -0.000          -0.000
    176252.239 9    135381.50047  22052573.039    22052573.2214   22052580.9914
        -0.000          -0.000
   -302407.659 9   -168230.42149  21118265.039    21118264.6604   21118272.7364
        -0.000          -0.000
    238404.412 9    182504.16646  23652424.632    23652424.2674   23652436.0074
        -0.000          -0.000
   -917880.991 9   -702822.18646  23726159.340    23726159.0824   23726171.2254
        -0.000          -0.000
    752021.489 9    571028.13448  21177347.266    21177347.2074   21177355.1584
        -0.000          -0.000
    853486.140 9    404269.46845  25486544.070    25486543.9234   25486563.3954
        -0.000          -0.000
 99  4 11  1 35  0.0000000  0  7 17 26 23 22 21  6 30                0.000852727
   -157348.516 9   -120889.85649  21133094.066    21133093.5934   21133101.9164
        -0.000          -0.000
    194828.090 9    149856.23347  22056107.887    22056108.0444   22056115.7334
        -0.000          -0.000
   -324092.066 9   -185127.30949  21114138.695    21114138.2474   21114146.2914
        -0.000          -0.000
    261035.655 9    200138.85146  23656731.726    23656731.1254   23656742.7124
        -0.000          -0.000
   -990938.307 9   -759749.78546  23712257.127    23712256.6574   23712268.8004
        -0.000          -0.000
    815059.039 9    620148.26548  21189342.971    21189342.9534   21189350.8504
        -0.000          -0.000
    952978.348 8    481795.52545  25505476.699    25505476.6864   25505496.2904
        -0.000          -0.000
 99  4 11  1 35 30.0000000  0  7 17 26 23 22 21  6 30                0.000855273
   -167817.239 9   -129047.26949  21131102.068    21131101.5134   21131109.7344
        -0.000          -0.000
    214059.261 9    164841.56247  22059767.366    22059767.5214   22059775.3064
        -0.000          -0.000
   -345302.791 9   -201655.10349  21110102.359    21110101.9214   21110110.0984
        -0.000          -0.000
    284222.956 9    218206.84846  23661144.228    23661143.6514   23661155.2844
        -0.000          -0.000
  -1063714.430 9   -816458.28646  23698408.162    23698407.6644   23698419.9444
        -0.000          -0.000
    878631.561 9    669685.24948  21201440.453    21201440.3884   21201448.2824
        -0.000          -0.000
   1052350.059 9    559227.64545  25524386.757    25524386.9744   25524406.2894
        -0.000          -0.000
 99  4 11  1 36  0.0000000  0  7 17 26 23 22 21  6 30                0.000857860
   -178059.960 9   -137028.58549  21129152.857    21129152.3524   21129160.6624
        -0.000          -0.000
    233935.256 9    180329.36647  22063549.394    22063549.6634   22063557.7484
        -0.000          -0.000
   -366051.249 9   -217822.68649  21106153.882    21106153.4544   21106161.7484
        -0.000          -0.000
    307970.398 9    236711.32947  23665663.191    23665662.7524   23665674.5494
        -0.000          -0.000
  -1136199.806 9   -872940.25546  23684614.132    23684613.9734   23684626.2604
        -0.000          -0.000
    942742.774 9    719641.99848  21213640.354    21213640.3224   21213648.2314
        -0.000          -0.000
   1151612.588 9    636574.71345  25543276.506    25543276.5774   25543295.8104
        -0.000          -0.000
 99  4 11  1 36 30.0000000  0  7 17 26 23 22 21  6 30                0.000860477
   -188082.679 9   -144838.46449  21127245.687    21127245.1624   21127253.4614
        -0.000          -0.000
    254444.223 9    196310.41647  22067452.183    22067452.4214   22067460.5474
        -0.000          -0.000
   -386369.682 9   -233655.18849  21102287.277    21102286.9014   21102295.1594
        -0.000          -0.000
    332235.172 9    255618.90947  23670281.005    23670280.3664   23670292.0754
        -0.000          -0.000
  -1208419.475 9   -929215.17646  23670871.295    23670871.1474   23670883.0984
        -0.000          -0.000
   1007364.343 9    769996.43348  21225937.498    21225937.4094   21225945.3274
        -0.000          -0.000
   1250756.856 9    713829.62645  25562143.587    25562143.3764   25562162.8944
        -0.000          -0.000
 99  4 11  1 37  0.0000000  0  7 17 26 23 22 21  6 30                0.000863151
   -197851.303 9   -152450.34849  21125386.907    21125386.3094   21125394.5084
        -0.000          -0.000
    275640.808 9    212827.27047  22071485.874    22071486.1274   22071494.1554
        -0.000          -0.000
   -406213.248 9   -249117.65549  21098511.154    21098510.7454   21098519.0644
        -0.000          -0.000
    357041.032 9    274948.11147  23675001.552    23675000.9174   23675012.4414
        -0.000          -0.000
  -1280323.339 9   -985244.02546  23657188.469    23657188.2204   23657200.0424
        -0.000          -0.000
   1072526.352 9    820771.97848  21238337.403    21238337.3454   21238345.3124
        -0.000          -0.000
   1349814.883 8    791017.29245  25580993.666    25580993.4584   25581012.9254
        -0.000          -0.000
 99  4 11  1 37 30.0000000  0  7 17 26 23 22 21  6 30                0.000865880
   -207390.834 9   -159883.72648  21123571.436    21123570.9064   21123579.0734
        -0.000          -0.000
    297519.056 9    229875.29447  22075649.387    22075649.5264   22075657.4404
        -0.000          -0.000
   -425595.671 9   -264220.80249  21094822.654    21094822.2794   21094830.8084
        -0.000          -0.000
    382362.521 9    294679.13546  23679819.881    23679819.3134   23679830.9794
        -0.000          -0.000
  -1351915.347 9  -1041029.84146  23643564.472    23643564.4514   23643576.2274
        -0.000          -0.000
   1138203.171 9    871948.69448  21250835.371    21250835.2934   21250843.3004
        -0.000          -0.000
   1448766.109 8    868121.74745  25599823.128    25599823.0324   25599842.9084
        -0.000          -0.000
 99  4 11  1 38  0.0000000  0  7 17 26 23 22 21  6 30                0.000868654
   -216721.597 9   -167154.41648  21121795.852    21121795.3254   21121803.4394
        -0.000          -0.000
    320075.609 9    247451.84547  22079941.622    22079941.7854   22079949.8874
        -0.000          -0.000
   -444532.290 9   -278976.56749  21091219.039    21091218.7134   21091227.3754
        -0.000          -0.000
    408162.199 9    314782.76546  23684729.516    23684728.9134   23684740.6944
        -0.000          -0.000
  -1423213.255 9  -1096586.50446  23629996.955    23629996.9344   23630008.2194
        -0.000          -0.000
   1204366.069 9    923504.15348  21263425.736    21263425.6674   21263433.7724
        -0.000          -0.000
   1547588.175 8    945125.51545  25618627.980    25618628.0834   25618648.7744
        -0.000          -0.000
 99  4 11  1 38 30.0000000  0  7 17 26 23 22 21  6 30                0.000871469
   -225835.204 9   -174255.90249  21120061.606    21120061.0364   21120069.1304
        -0.000          -0.000
    343318.034 9    265562.84547  22084364.324    22084364.4934   22084372.7744
        -0.000          -0.000
   -463008.052 9   -293373.22349  21087703.278    21087702.8974   21087711.5414
        -0.000          -0.000
    434445.570 9    335263.27346  23689731.354    23689730.7704   23689742.4724
        -0.000          -0.000
  -1494215.424 9  -1151912.71846  23616486.167    23616485.7674   23616496.6634
        -0.000          -0.000
   1271025.639 9    975446.62848  21276110.584    21276110.5354   21276118.7264
        -0.000          -0.000
   1646273.309 8   1022022.58845  25637406.598    25637407.0134   25637428.1344
        -0.000          -0.000
 99  4 11  1 39  0.0000000  0  7 17 26 23 22 21  6 30                0.000874342
   -234690.041 9   -181155.75349  21118376.589    21118375.9934   21118384.1374
        -0.000          -0.000
    367274.458 9    284230.21747  22088922.959    22088923.1474   22088931.5934
        -0.000          -0.000
   -480966.112 9   -307366.47049  21084286.008    21084285.5934   21084294.1834
        -0.000          -0.000
    461264.809 9    356161.35046  23694835.034    23694834.3084   23694845.8854
        -0.000          -0.000
  -1564871.715 9  -1206969.41046  23603040.836    23603040.1264   23603051.1264
        -0.000          -0.000
   1338236.275 9   1027818.51048  21288900.440    21288900.3514   21288908.4854
        -0.000          -0.000
   1744856.941 8   1098840.56145  25656166.336    25656166.8254   25656188.6344
        -0.000          -0.000
 99  4 11  1 39 30.0000000  0  7 17 26 23 22 21  6 30                0.000877257
   -243307.707 9   -187870.79349  21116736.597    21116736.0484   21116744.2324
        -0.000          -0.000
    391916.373 9    303431.73747  22093612.205    22093612.3304   22093620.7724
        -0.000          -0.000
   -498435.046 9   -320978.58549  21080961.869    21080961.4044   21080969.9054
        -0.000          -0.000
    488605.769 9    377465.95946  23700037.904    23700037.1464   23700048.7744
        -0.000          -0.000
  -1635218.892 9  -1261785.23546  23589653.924    23589653.3634   23589664.6334
        -0.000          -0.000
   1405976.701 9   1080603.21248  21301791.151    21301791.0474   21301799.1214
        -0.000          -0.000
   1843325.881 8   1175569.16545  25674904.369    25674904.9624   25674927.3504
        -0.000          -0.000
 99  4 11  1 40  0.0000000  0  7 17 26 23 22 21  6 30                0.000880206
   -251684.582 9   -194398.20349  21115142.479    21115141.9914   21115150.1014
        -0.000          -0.000
    417230.834 9    323157.31547  22098429.424    22098429.6154   22098437.9424
        -0.000          -0.000
   -515424.269 9   -334216.91049  21077728.840    21077728.4224   21077736.8774
        -0.000          -0.000
    516470.834 9    399178.94946  23705340.692    23705339.7754   23705351.4874
        -0.000          -0.000
  -1705278.101 9  -1316376.67546  23576322.246    23576321.6324   23576333.0144
        -0.000          -0.000
   1474254.610 9   1133806.73848  21314784.143    21314783.9524   21314792.0284
        -0.000          -0.000
   1941681.482 8   1252209.39845  25693621.169    25693621.9954   25693644.4634
        -0.000          -0.000
 99  4 11  1 40 30.0000000  0  7 17 26 23 22 21  6 30                0.000883182
   -259823.580 9   -200740.24549  21113593.795    21113593.2044   21113601.2324
        -0.000          -0.000
    443200.241 9    343393.24747  22103371.414    22103371.5844   22103379.7714
        -0.000          -0.000
   -531949.074 9   -347093.34449  21074584.298    21074583.8494   21074592.1984
        -0.000          -0.000
    544852.294 9    421294.34346  23710741.409    23710740.4874   23710752.3704
        -0.000          -0.000
  -1775053.556 9  -1370747.02246  23563044.565    23563043.8354   23563055.3194
        -0.000          -0.000
   1543078.219 9   1187435.49548  21327880.889    21327880.7454   21327888.8304
        -0.000          -0.000
   2039922.221 8   1328760.11045  25712316.313    25712317.0924   25712339.6264
        -0.000          -0.000
 99  4 11  1 41  0.0000000  0  7 17 26 23 22 21  6 30                0.000886208
   -267730.922 9   -206901.78848  21112089.056    21112088.4754   21112096.5054
        -0.000          -0.000
    469828.917 9    364142.88147  22108438.960    22108439.0764   22108447.0764
        -0.000          -0.000
   -548029.451 9   -359623.46549  21071524.351    21071523.9074   21071532.1524
        -0.000          -0.000
    573761.431 9    443820.91546  23716242.052    23716241.4194   23716253.4234
        -0.000          -0.000
  -1844535.802 9  -1424888.89546  23549822.249    23549821.5284   23549833.3174
        -0.000          -0.000
   1612433.564 9   1241478.58048  21341078.917    21341078.7384   21341086.7514
        -0.000          -0.000
   2138054.200 9   1405226.02645  25730991.200    25730991.7434   25731013.8254
        -0.000          -0.000
 99  4 11  1 41 30.0000000  0  7 17 26 23 22 21  6 30                0.000889291
   -275433.695 9   -212903.92349  21110623.306    21110622.7804   21110630.7504
        -0.000          -0.000
    497096.700 9    385390.52648  22113628.017    22113628.0944   22113635.9964
        -0.000          -0.000
   -563707.867 9   -371840.36149  21068540.829    21068540.3534   21068548.6374
        -0.000          -0.000
    603180.973 9    466745.18246  23721840.417    23721839.8414   23721851.8114
        -0.000          -0.000
  -1913747.735 9  -1478820.12046  23536651.349    23536650.7064   23536662.7614
        -0.000          -0.000
   1682290.803 9   1295912.74948  21354372.377    21354372.1964   21354380.2834
        -0.000          -0.000
   2236038.064 8   1481576.50445  25749637.820    25749638.1254   25749659.5844
        -0.000          -0.000
 99  4 11  1 42  0.0000000  0  7 17 26 23 22 21  6 30                0.000892430
   -282912.060 9   -218731.19349  21109200.394    21109199.7954   21109207.6784
        -0.000          -0.000
    525007.335 9    407139.08947  22118939.228    22118939.3374   22118947.2484
        -0.000          -0.000
   -578971.685 9   -383734.20949  21065636.146    21065635.7144   21065644.0184
        -0.000          -0.000
    633109.846 9    490066.34346  23727536.261    23727535.4194   23727547.2714
        -0.000          -0.000
  -1982666.542 9  -1532522.92546  23523536.648    23523535.9254   23523547.8384
        -0.000          -0.000
   1752668.846 9   1350752.74248  21367764.850    21367764.6944   21367772.8554
        -0.000          -0.000
   2333860.440 8   1557801.10045  25768253.456    25768253.6394   25768274.2264
        -0.000          -0.000
 99  4 11  1 42 30.0000000  0  8 17 26 23 22 21  6  3 30             0.000895623
   -290143.155 9   -224365.78849  21107824.434    21107823.7684   21107831.6244
        -0.000          -0.000
    553571.184 9    429396.65247  22124374.645    22124374.7644   22124382.8444
        -0.000          -0.000
   -593805.182 9   -395292.73549  21062813.367    21062812.9784   21062821.2554
        -0.000          -0.000
    663553.324 9    513788.50646  23733329.823    23733328.7494   23733340.6144
        -0.000          -0.000
  -2051277.157 9  -1585985.58646  23510480.468    23510479.6944   23510491.3434
        -0.000          -0.000
   1823555.972 9   1405989.42148  21381254.252    21381254.0864   21381262.3164
        -0.000          -0.000
   -290989.97018   -207411.90952         0.000           0.0005          0.0005
        -0.000          -0.000
   2431514.475 7   1633894.48554  25786837.672    25786836.9324          0.0005
        -0.000          -0.000
 99  4 11  1 43  0.0000000  0  8 17 26 23 22 21  6  3 30             0.000898857
   -297107.804 9   -229792.76649  21106498.837    21106498.2464   21106506.1824
        -0.000          -0.000
    582794.665 9    452168.21447  22129935.530    22129935.6944   22129943.7844
        -0.000          -0.000
   -608173.897 9   -406489.09049  21060079.148    21060078.7714   21060087.0134
        -0.000          -0.000
    694521.280 9    537919.35046  23739222.761    23739221.7384   23739233.5584
        -0.000          -0.000
  -2119569.231 9  -1639200.03946  23497484.366    23497483.8614   23497495.4664
        -0.000          -0.000
   1894944.499 9   1461616.80148  21394838.874    21394838.7224   21394847.1064
        -0.000          -0.000
   -390248.36718    -47107.83652         0.000           0.0005          0.0005
        -0.000          -0.000
   2529009.64116   1709864.08253  25805391.375    25805391.5725          0.0005
        -0.000          -0.000
 99  4 11  1 43 30.0000000  0  8 17 26 23 22 21  6  3 30             0.000902082
   -303838.868 9   -235037.72848  21105217.818    21105217.2524   21105225.2554
        -0.000          -0.000
    612642.317 9    475426.13547  22135615.329    22135615.4234   22135623.3274
        -0.000          -0.000
   -622091.678 9   -417334.07949  21057430.807    21057430.3744   21057438.5454
        -0.000          -0.000
    725945.267 9    562405.51946  23745202.741    23745201.7094   23745213.1854
        -0.000          -0.000
  -2187590.714 9  -1692203.66946  23484540.068    23484539.7224   23484551.2284
        -0.000          -0.000
   1966806.717 9   1517613.28048  21408513.807    21408513.7044   21408521.9554
        -0.000          -0.000
   -489433.576 8   -124399.74252         0.000           0.0004          0.0005
        -0.000          -0.000
   2626306.50116   1785679.15253         0.000           0.0005          0.0005
        -0.000          -0.000
 99  4 11  1 44  0.0000000  0  7 17 26 23 22 21  6  3                0.000905304
   -310289.194 9   -240063.94349  21103990.292    21103989.7724   21103997.7544
        -0.000          -0.000
    643156.133 9    499203.16247  22141421.876    22141421.9634   22141429.7704
        -0.000          -0.000
   -635509.461 9   -427789.45849  21054877.599    21054877.1524   21054885.1304
        -0.000          -0.000
    757840.090 9    587258.60446  23751272.020    23751271.0484   23751282.6584
        -0.000          -0.000
  -2255296.954 9  -1744961.64846  23471655.935    23471655.5614   23471666.9324
        -0.000          -0.000
   2039179.819 9   1574007.86148  21422286.114    21422285.9504   21422293.9624
        -0.000          -0.000
   -588505.985 8   -201605.29352         0.000           0.0004          0.0005
        -0.000          -0.000
 99  4 11  1 44 30.0000000  0  7 17 26 23 22 21  6  3                0.000908523
   -316487.225 9   -244893.54649  21102810.910    21102810.3494   21102818.2654
        -0.000          -0.000
    674326.840 9    523492.04947  22147353.361    22147353.4474   22147361.2504
        -0.000          -0.000
   -648445.310 9   -437869.29849  21052416.017    21052415.5764   21052423.3864
        -0.000          -0.000
    790190.959 9    612467.03046  23757427.781    23757427.0254   23757438.8494
        -0.000          -0.000
  -2322696.322 9  -1797480.50646  23458829.774    23458829.5914   23458840.8374
        -0.000          -0.000
   2112039.861 9   1630781.86748  21436150.857    21436150.7224   21436158.7344
        -0.000          -0.000
   -687448.31218    -40558.08252         0.000           0.0005          0.0005
        -0.000          -0.000
 99  4 11  1 45  0.0000000  0  7 17 26 23 22 21  6  3                0.000911761
   -322459.133 9   -249546.96549  21101674.350    21101673.8254   21101681.8484
        -0.000          -0.000
    706159.314 9    548296.61547  22153410.573    22153410.7834   22153418.9064
        -0.000          -0.000
   -660911.124 9   -447582.87949  21050043.810    21050043.3484   21050051.0914
        -0.000          -0.000
    822996.199 9    638029.47846  23763670.821    23763670.0624   23763681.2754
        -0.000          -0.000
  -2389783.664 9  -1849756.21746  23446063.108    23446062.9594   23446074.1494
        -0.000          -0.000
   2185395.783 9   1687942.28248  21450109.821    21450109.7684   21450118.0254
        -0.000          -0.000
   -786236.160 8   -117535.81252         0.000           0.0004          0.0005
        -0.000          -0.000
 99  4 11  1 45 30.0000000  0  7 17 26 23 22 21  6  3                0.000915033
   -328209.537 9   -254027.78249  21100580.102    21100579.5934   21100587.5244
        -0.000          -0.000
    738657.814 9    573620.15847  22159594.495    22159594.7524   22159603.3684
        -0.000          -0.000
   -672931.118 9   -456949.07249  21047756.376    21047755.9624   21047763.7274
        -0.000          -0.000
    856260.842 9    663949.93046  23770001.319    23770000.2814   23770011.2854
        -0.000          -0.000
  -2456567.545 9  -1901795.46846  23433354.481    23433354.1874   23433365.3674
        -0.000          -0.000
   2259250.745 9   1745491.56448  21464163.831    21464163.8194   21464172.3254
        -0.000          -0.000
   -884878.610 8   -194399.86452         0.000           0.0004          0.0005
        -0.000          -0.000
 99  4 11  1 46  0.0000000  0  7 17 26 23 22 21  6  3                0.000918360
   -333735.593 9   -258333.76949  21099528.635    21099528.0714   21099535.8754
        -0.000          -0.000
    771824.110 9    599464.04247  22165905.807    22165906.0724   22165914.7364
        -0.000          -0.000
   -684501.105 9   -465964.60649  21045554.593    21045554.2464   21045561.9904
        -0.000          -0.000
    890024.472 9    690259.21346  23776425.999    23776425.2234   23776436.5014
        -0.000          -0.000
  -2523043.494 9  -1953594.75846  23420704.600    23420704.2244   23420715.3224
        -0.000          -0.000
   2333612.310 9   1803435.59248  21478314.432    21478314.4224   21478323.0554
        -0.000          -0.000
   -983350.57118   -271131.09554         0.000           0.0005   24952488.2005
        -0.000          -0.000
 99  4 11  1 46 30.0000000  0  7 17 26 23 22 21  6  3                0.000921732
   -339067.489 9   -262488.46949  21098514.039    21098513.4434   21098521.3524
        -0.000          -0.000
    805629.237 9    625805.69647  22172338.803    22172338.9994   22172347.6064
        -0.000          -0.000
   -695644.649 9   -474647.84149  21043434.121    21043433.6744   21043441.4494
        -0.000          -0.000
    924284.680 9    716955.43246  23782945.866    23782944.9894   23782956.1544
        -0.000          -0.000
  -2589258.536 9  -2005190.74846  23408104.793    23408104.1964   23408115.0304
        -0.000          -0.000
   2408443.954 9   1861745.90848  21492554.648    21492554.5244   21492563.1824
        -0.000          -0.000
  -1081677.94618   -347749.76045  24933763.946    24933761.9965   24933776.4994
        -0.000          -0.000
 99  4 11  1 47  0.0000000  0  7 17 26 23 22 21  6  3                0.000925177
   -344181.871 9   -266473.68249  21097540.810    21097540.2074   21097548.2044
        -0.000          -0.000
    840096.701 9    652663.47247  22178897.883    22178898.0284   22178906.6164
        -0.000          -0.000
   -706335.932 9   -482978.68249  21041399.460    21041399.0534   21041406.9544
        -0.000          -0.000
    959063.560 9    744055.80546  23789564.175    23789563.3584   23789574.2654
        -0.000          -0.000
  -2655210.803 9  -2056582.00047  23395554.633    23395553.9354   23395564.7424
        -0.000          -0.000
   2483762.594 9   1920435.70148  21506887.332    21506887.2324   21506895.9334
        -0.000          -0.000
  -1179856.734 8   -424252.62245  24915081.268    24915079.9794   24915092.8694
        -0.000          -0.000
 99  4 11  1 47 30.0000000  0  7 17 26 23 22 21  6  3                0.000928640
   -349078.820 9   -270289.45949  21096609.034    21096608.4124   21096616.3264
        -0.000          -0.000
    875218.334 9    680031.00847  22185581.270    22185581.4314   22185589.9654
        -0.000          -0.000
   -716577.236 9   -490958.87949  21039450.600    21039450.2024   21039458.0974
        -0.000          -0.000
    994346.110 9    771548.65746  23796278.165    23796277.2604   23796288.3114
        -0.000          -0.000
  -2720910.214 9  -2107776.24847  23383052.433    23383051.8804   23383062.6454
        -0.000          -0.000
   2559565.936 9   1979503.17948  21521312.343    21521312.2254   21521320.9314
        -0.000          -0.000
  -1277898.618 8   -500648.79845  24896424.685    24896423.5144   24896435.7454
        -0.000          -0.000
 99  4 11  1 48  0.0000000  0  7 17 26 23 22 21  6  3                0.000932140
   -353749.429 9   -273928.87249  21095720.259    21095719.6274   21095727.5384
        -0.000          -0.000
    911003.314 9    707915.43447  22192391.007    22192391.1074   22192399.4914
        -0.000          -0.000
   -726356.216 9   -498578.82449  21037589.709    21037589.2204   21037597.2214
        -0.000          -0.000
   1030117.436 9    799422.36346  23803085.649    23803084.4174   23803095.4304
        -0.000          -0.000
  -2786328.897 9  -2158751.72647  23370604.037    23370603.3484   23370613.8404
        -0.000          -0.000
   2635861.344 9   2038954.09548  21535830.909    21535830.8054   21535839.5084
        -0.000          -0.000
  -1375786.193 8   -576924.73545  24877797.225    24877796.7594   24877808.6894
        -0.000          -0.000
 99  4 11  1 48 30.0000000  0  7 17 26 23 22 21  6  3                0.000935672
   -358193.711 9   -277391.92349  21094874.481    21094873.8834   21094881.8544
        -0.000          -0.000
    947455.167 9    736319.51047  22199327.430    22199327.6154   22199335.9914
        -0.000          -0.000
   -735701.096 9   -505860.51749  21035811.320    21035810.8714   21035818.9514
        -0.000          -0.000
   1066346.198 9    827652.52546  23809979.346    23809978.3864   23809989.4174
        -0.000          -0.000
  -2851465.950 9  -2209507.74547  23358208.843    23358208.0704   23358218.4424
        -0.000          -0.000
   2712630.814 9   2098774.42248  21550439.690    21550439.5914   21550448.2994
        -0.000          -0.000
  -1473541.952 8   -653097.98545  24859194.744    24859194.4594   24859206.7354
        -0.000          -0.000
 99  4 11  1 49  0.0000000  0  7 17 26 23 22 21  6  3                0.000939251
   -362426.736 9   -280690.36249  21094069.003    21094068.3214   21094076.3994
        -0.000          -0.000
    984564.505 9    765235.90047  22206389.179    22206389.3264   22206397.4694
        -0.000          -0.000
   -744634.171 9   -512821.31949  21034111.403    21034110.9284   21034118.9764
        -0.000          -0.000
   1103013.792 9    856224.60546  23816956.238    23816955.7154   23816966.8864
        -0.000          -0.000
  -2916303.323 9  -2260030.26446  23345870.034    23345869.5724   23345880.0894
        -0.000          -0.000
   2789880.774 9   2158969.14148  21565139.879    21565139.8344   21565148.5754
        -0.000          -0.000
  -1571158.414 8   -729162.71845  24840619.037    24840618.6774   24840631.1194
        -0.000          -0.000
 99  4 11  1 49 30.0000000  0  7 17 26 23 22 21  6  3                0.000942878
   -366430.189 9   -283809.91749  21093306.996    21093306.4084   21093314.4674
        -0.000          -0.000
   1022324.811 9    794659.52747  22213574.798    22213574.9724   22213583.0344
        -0.000          -0.000
   -753152.647 9   -519459.06249  21032490.399    21032489.9604   21032497.9344
        -0.000          -0.000
   1140119.681 9    885138.21546  23824017.675    23824016.8464   23824028.1604
        -0.000          -0.000
  -2980823.467 9  -2310305.56746  23333592.056    23333591.6714   23333602.2064
        -0.000          -0.000
   2867615.393 9   2219541.52948  21579932.352    21579932.3044   21579940.9524
        -0.000          -0.000
  -1668622.894 8   -805108.98045  24822072.352    24822071.8974   24822084.3674
        -0.000          -0.000
 99  4 11  1 50  0.0000000  0  7 17 26 23 22 21  6  3                0.000946543
   -370194.042 9   -286742.76349  21092590.733    21092590.1644   21092598.1584
        -0.000          -0.000
   1060730.752 9    824586.24047  22220883.405    22220883.5324   22220891.4464
        -0.000          -0.000
   -761260.338 9   -525776.70649  21030947.639    21030947.1384   21030955.1394
        -0.000          -0.000
   1177671.381 9    914399.22346  23831163.608    23831162.7504   23831174.3854
        -0.000          -0.000
  -3045040.121 9  -2360344.38247  23321372.137    23321371.5814   23321382.1484
        -0.000          -0.000
   2945821.184 9   2280481.06448  21594814.350    21594814.4014   21594822.8754
        -0.000          -0.000
  -1765936.238 8   -880937.50345  24803554.367    24803553.7174   24803566.0844
        -0.000          -0.000
 99  4 11  1 50 30.0000000  0  7 17 26 23 22 21  6  3                0.000950232
   -373728.366 9   -289496.75249  21091918.120    21091917.5594   21091925.5644
        -0.000          -0.000
   1099762.064 9    855000.27547  22228310.690    22228310.7914   22228318.8934
        -0.000          -0.000
   -768962.044 9   -531778.00149  21029481.927    21029481.4934   21029489.5734
        -0.000          -0.000
   1215675.473 9    944012.72146  23838395.394    23838394.7624   23838406.3874
        -0.000          -0.000
  -3108979.337 9  -2410167.01647  23309204.586    23309204.0644   23309214.9174
        -0.000          -0.000
   3024487.133 9   2341779.15548  21609784.102    21609784.1074   21609792.4294
        -0.000          -0.000
  -1863102.644 8   -956651.55245  24785063.946    24785063.3784   24785075.8874
        -0.000          -0.000
 99  4 11  1 51  0.0000000  0  7 17 26 23 22 21  6  3                0.000953950
   -376998.041 9   -292044.52849  21091295.861    21091295.2504   21091303.3564
        -0.000          -0.000
   1139428.762 9    885909.41447  22235858.887    22235859.0054   22235867.1744
        -0.000          -0.000
   -776211.647 9   -537427.00049  21028102.270    21028101.8484   21028109.9874
        -0.000          -0.000
   1254146.759 9    973990.28746  23845716.201    23845715.6154   23845726.9964
        -0.000          -0.000
  -3172611.507 9  -2459750.40547  23297095.369    23297095.0074   23297106.0954
        -0.000          -0.000
   3103641.422 9   2403457.76548  21624846.784    21624846.7404   21624855.0934
        -0.000          -0.000
  -1960086.616 8  -1032223.42245  24766608.054    24766607.9744   24766620.4614
        -0.000          -0.000
 99  4 11  1 51 30.0000000  0  7 17 26 23 22 21  6  3                0.000957646
   -380045.763 9   -294419.35249  21090715.822    21090715.2924   21090723.3674
        -0.000          -0.000
   1179682.603 9    917276.06447  22243518.832    22243519.0024   22243527.2194
        -0.000          -0.000
   -783049.603 9   -542755.24049  21026801.023    21026800.6094   21026808.7764
        -0.000          -0.000
   1293028.128 9   1004287.40746  23853115.036    23853114.3734   23853125.6304
        -0.000          -0.000
  -3236002.573 9  -2509145.90547  23285032.377    23285031.9294   23285042.9884
        -0.000          -0.000
   3183219.868 9   2465466.89748  21639990.222    21639990.1764   21639998.4994
        -0.000          -0.000
  -2056947.917 8  -1107699.71545  24748175.690    24748175.7954   24748188.4374
        -0.000          -0.000
 99  4 11  1 52  0.0000000  0  7 17 26 23 22 21  6  3                0.000961354
   -382844.769 9   -296600.37549  21090183.233    21090182.6704   21090190.6834
        -0.000          -0.000
   1220559.656 9    949128.32347  22251297.650    22251297.7974   22251305.8714
        -0.000          -0.000
   -789446.242 9   -547739.59149  21025583.681    21025583.2624   21025591.4184
        -0.000          -0.000
   1332355.029 9   1034931.68846  23860598.713    23860598.0514   23860609.2664
        -0.000          -0.000
  -3299116.169 9  -2558325.19447  23273022.097    23273021.6634   23273032.6464
        -0.000          -0.000
   3263262.339 9   2527837.59648  21655221.857    21655221.7824   21655230.2384
        -0.000          -0.000
  -2153649.356 8  -1183051.41345  24729773.991    24729774.1234   24729786.7214
        -0.000          -0.000
 99  4 11  1 52 30.0000000  0  7 17 26 23 22 21  6  3                0.000965075
   -385410.964 9   -298599.98149  21089694.826    21089694.3284   21089702.2464
        -0.000          -0.000
   1262050.187 9    981458.63247  22259192.929    22259193.0224   22259201.2654
        -0.000          -0.000
   -795417.030 9   -552392.11649  21024447.341    21024446.9584   21024455.0794
        -0.000          -0.000
   1372110.275 9   1065909.73846  23868164.536    23868163.5634   23868174.4654
        -0.000          -0.000
  -3361940.936 9  -2607279.43847  23261066.824    23261066.4594   23261077.1744
        -0.000          -0.000
   3343761.897 9   2590564.46648  21670540.153    21670540.1584   21670548.9644
        -0.000          -0.000
  -2250194.055 8  -1258280.96545  24711402.356    24711402.2724   24711414.8424
        -0.000          -0.000
 99  4 11  1 53  0.0000000  0  7 17 26 23 22 21  6  3                0.000968807
   -387762.441 9   -300432.27049  21089247.393    21089246.8584   21089254.7874
        -0.000          -0.000
   1304150.237 9   1014263.86847  22267204.071    22267204.2654   22267212.6304
        -0.000          -0.000
   -800980.336 9   -556727.12749  21023388.713    21023388.3014   21023396.3834
        -0.000          -0.000
   1412290.179 9   1097218.69246  23875810.720    23875809.7004   23875820.4344
        -0.000          -0.000
  -3424480.805 9  -2656011.67147  23249165.779    23249165.4084   23249175.9174
        -0.000          -0.000
   3424699.811 9   2653632.92948  21685942.069    21685942.1444   21685951.1114
        -0.000          -0.000
  -2346597.240 8  -1333400.25245  24693057.249    24693057.4114   24693069.8904
        -0.000          -0.000
 99  4 11  1 53 30.0000000  0  7 17 26 23 22 21  6  3                0.000972586
   -389904.861 9   -302101.67349  21088839.591    21088839.0414   21088847.0634
        -0.000          -0.000
   1346887.349 9   1047565.53647  22275336.495    22275336.6764   22275345.0134
        -0.000          -0.000
   -806134.585 9   -560743.39049  21022407.905    21022407.5304   21022415.4964
        -0.000          -0.000
   1452940.448 9   1128894.16346  23883546.484    23883545.3364   23883556.0184
        -0.000          -0.000
  -3486721.533 9  -2704510.81947  23237321.661    23237321.2274   23237331.7304
        -0.000          -0.000
   3506094.178 9   2717057.05048  21701431.095    21701431.1214   21701440.1454
        -0.000          -0.000
  -2442845.717 8  -1408398.96745  24674741.701    24674741.8324   24674754.1694
        -0.000          -0.000
 99  4 11  1 54  0.0000000  0  7 17 26 23 22 21  6  3                0.000976404
   -391849.837 9   -303617.21949  21088469.357    21088468.8974   21088476.8694
        -0.000          -0.000
   1390231.953 9   1081340.57247  22283584.681    22283584.8954   22283593.2554
        -0.000          -0.000
   -810906.751 9   -564461.91949  21021499.747    21021499.3694   21021507.2574
        -0.000          -0.000
   1494045.924 9   1160924.33946  23891368.569    23891367.5114   23891378.2574
        -0.000          -0.000
  -3548667.240 9  -2752780.06647  23225533.603    23225533.2684   23225543.8494
        -0.000          -0.000
   3587929.666 9   2780824.91148  21717004.121    21717004.1014   21717012.9514
        -0.000          -0.000
  -2538951.717 8  -1483286.66845  24656453.440    24656453.3934   24656465.7314
        -0.000          -0.000
 99  4 11  1 54 30.0000000  0  7 17 26 23 22 21  6  3                0.000980265
   -393609.459 9   -304988.33449  21088134.518    21088134.0584   21088141.9744
        -0.000          -0.000
   1434192.751 9   1115595.76947  22291950.386    22291950.5334   22291958.8314
        -0.000          -0.000
   -815290.882 9   -567878.08949  21020665.429    21020665.0564   21020672.9464
        -0.000          -0.000
   1535609.850 9   1193311.78646  23899277.584    23899276.6264   23899287.7474
        -0.000          -0.000
  -3610312.600 9  -2800815.27147  23213802.990    23213802.6294   23213813.2474
        -0.000          -0.000
   3670196.379 9   2844928.78648  21732659.001    21732658.9834   21732667.7944
        -0.000          -0.000
  -2634904.760 8  -1558055.16245  24638194.380    24638194.0734   24638206.3834
        -0.000          -0.000
 99  4 11  1 55  0.0000000  0  7 17 26 23 22 21  6  3                0.000984174
   -395168.647 9   -306203.26249  21087837.901    21087837.3644   21087845.2854
        -0.000          -0.000
   1478778.089 9   1150337.61747  22300435.063    22300435.0404   22300443.1294
        -0.000          -0.000
   -819267.060 9   -570976.37849  21019908.863    21019908.4804   21019916.4164
        -0.000          -0.000
   1577639.650 9   1226062.26646  23907275.239    23907274.3294   23907285.8714
        -0.000          -0.000
  -3671644.183 9  -2848606.00147  23202132.240    23202131.6484   23202142.3074
        -0.000          -0.000
   3752914.697 9   2909384.56448  21748399.850    21748399.8364   21748408.6764
        -0.000          -0.000
  -2730694.626 8  -1632696.49145  24619966.224    24619965.7834   24619978.3494
        -0.000          -0.000
 99  4 11  1 55 30.0000000  0  7 17 26 23 22 21  6  3                0.000988115
   -396523.671 9   -307259.11249  21087580.003    21087579.5024   21087587.4394
        -0.000          -0.000
   1523965.098 9   1185548.29647  22309033.802    22309033.7884   22309041.8944
        -0.000          -0.000
   -822838.502 9   -573759.28449  21019229.484    21019228.9714   21019236.8714
        -0.000          -0.000
   1620105.874 9   1259152.78346  23915356.344    23915355.3844   23915366.9894
        -0.000          -0.000
  -3732669.399 9  -2896158.00147  23190519.501    23190518.9984   23190529.5614
        -0.000          -0.000
   3836089.792 9   2974196.27348  21764227.728    21764227.6784   21764236.4354
        -0.000          -0.000
  -2826322.921 8  -1707211.95945  24601768.393    24601768.3104   24601781.0454
        -0.000          -0.000
 99  4 11  1 56  0.0000000  0  7 17 26 23 22 21  6  3                0.000992067
   -397661.729 9   -308145.89249  21087363.589    21087363.0524   21087370.9264
        -0.000          -0.000
   1569733.650 9   1221212.11347  22317742.985    22317743.0684   22317751.2224
        -0.000          -0.000
   -826005.769 9   -576227.25849  21018626.771    21018626.2884   21018634.1884
        -0.000          -0.000
   1662976.450 9   1292558.35246  23923514.186    23923513.4364   23923525.0984
        -0.000          -0.000
  -3793403.161 9  -2943482.88747  23178962.638    23178961.8884   23178972.1794
        -0.000          -0.000
   3919720.110 9   3039362.70048  21780142.293    21780142.1914   21780150.8244
        -0.000          -0.000
  -2921791.674 9  -1781603.09645  24583601.145    24583601.3364   24583614.0424
        -0.000          -0.000
 99  4 11  1 56 30.0000000  0  7 17 26 23 22 21  6  3                0.000996022
   -398601.697 9   -308878.31649  21087184.812    21087184.1864   21087192.0494
        -0.000          -0.000
   1616078.421 9   1257324.95047  22326561.891    22326562.1134   22326570.2894
        -0.000          -0.000
   -828783.238 9   -578391.49049  21018098.162    21018097.7244   21018105.6114
        -0.000          -0.000
   1706220.328 9   1326254.80546  23931743.162    23931742.4404   23931754.2504
        -0.000          -0.000
  -3853871.701 9  -2990601.09547  23167455.884    23167455.1554   23167465.2004
        -0.000          -0.000
   4003792.297 9   3104873.45148  21796140.717    21796140.6664   21796149.2664
        -0.000          -0.000
  -3017118.018 9  -1855883.26345  24565461.434    24565461.4944   24565474.1414
        -0.000          -0.000
 99  4 11  1 57  0.0000000  0  7 17 26 23 22 21  6  3                0.000999974
   -399297.137 9   -309420.20349  21087052.387    21087051.8184   21087059.6474
        -0.000          -0.000
   1663005.714 9   1293891.67547  22335491.955    22335492.1114   22335500.2184
        -0.000          -0.000
   -831150.386 9   -580235.98349  21017647.789    21017647.3454   21017655.0744
        -0.000          -0.000
   1749844.643 9   1360247.70346  23940044.613    23940043.8224   23940055.8524
        -0.000          -0.000
  -3914070.691 9  -3037509.27447  23156000.096    23155999.5854   23156009.5084
        -0.000          -0.000
   4088325.638 9   3170743.52448  21812227.015    21812226.8894   21812235.3664
        -0.000          -0.000
  -3112285.411 9  -1930039.56545  24547351.921    24547351.8624   24547364.3114
        -0.000          -0.000
 99  4 11  1 57 30.0000000  0  7 17 26 23 22 21  6  3                0.001003928
   -399738.015 9   -309763.72249  21086968.551    21086967.8964   21086975.7674
        -0.000          -0.000
   1710536.647 9   1330928.77247  22344536.681    22344536.8494   22344545.0284
        -0.000          -0.000
   -833088.740 9   -581746.35749  21017278.893    21017278.4314   21017286.1124
        -0.000          -0.000
   1793853.451 9   1394540.19846  23948419.344    23948418.6044   23948430.4654
        -0.000          -0.000
  -3974001.950 9  -3084208.82847  23144595.347    23144594.8514   23144604.8824
        -0.000          -0.000
   4173317.389 9   3236970.78948  21828400.353    21828400.2234   21828408.7554
        -0.000          -0.000
  -3207267.404 9  -2004051.42845  24529277.327    24529277.2664   24529289.6284
        -0.000          -0.000
 99  4 11  1 58  0.0010000  0  7 17 26 23 22 21  6  3                0.001007899
   -399930.444 9   -309913.66049  21086931.784    21086931.1814   21086939.1174
        -0.000          -0.000
   1758698.853 9   1368457.76847  22353701.550    22353701.7854   22353710.0104
        -0.000          -0.000
   -834599.002 9   -582923.15949  21016991.405    21016990.9604   21016998.7224
        -0.000          -0.000
   1838256.109 9   1429139.59446  23956869.533    23956868.6144   23956880.0144
        -0.000          -0.000
  -4033663.204 9  -3130697.99447  23133241.964    23133241.4314   23133251.6844
        -0.000          -0.000
   4258753.834 9   3303544.57048  21844658.228    21844658.0984   21844666.7414
        -0.000          -0.000
  -3302052.211 8  -2077909.64445  24511239.924    24511239.8134   24511252.2854
        -0.000          -0.000
 99  4 11  1 58 30.0010000  0  7 17 26 23 22 21  6  3                0.001011888
   -399900.603 9   -309890.40149  21086937.320    21086936.7474   21086944.7724
        -0.000          -0.000
   1807485.016 9   1406472.97947  22362985.310    22362985.5374   22362993.7984
        -0.000          -0.000
   -835702.931 9   -583783.33449  21016781.307    21016780.8354   21016788.5414
        -0.000          -0.000
   1883044.428 9   1464039.52446  23965393.099    23965391.9644   23965403.1444
        -0.000          -0.000
  -4093061.067 9  -3176981.93147  23121938.398    23121938.1164   23121948.5464
        -0.000          -0.000
   4344592.833 9   3370432.03648  21860992.746    21860992.6604   21861001.4774
        -0.000          -0.000
  -3396637.073 8  -2151612.07245  24493240.077    24493240.4934   24493253.0234
        -0.000          -0.000
 99  4 11  1 59  0.0010000  0  7 17 26 23 22 21  6  3                0.001015891
   -399665.164 9   -309706.92649  21086982.125    21086981.6364   21086989.6294
        -0.000          -0.000
   1856880.583 9   1444963.06647  22372385.006    22372385.3004   22372393.5904
        -0.000          -0.000
   -836404.793 9   -584330.20549  21016647.711    21016647.2584   21016654.8894
        -0.000          -0.000
   1928236.531 9   1499254.11046  23973993.483    23973992.0104   23974003.2004
        -0.000          -0.000
  -4152209.990 9  -3223071.87947  23110682.726    23110682.2884   23110692.7214
        -0.000          -0.000
   4430819.711 9   3437621.75148  21877401.267    21877401.1304   21877410.0634
        -0.000          -0.000
  -3491032.561 9  -2225166.94845  24475276.956    24475277.5284   24475289.8414
        -0.000          -0.000
 99  4 11  1 59 30.0010000  0  7 17 26 23 22 21  6  3                0.001019953
   -399195.058 9   -309340.59649  21087071.708    21087071.1054   21087079.1654
        -0.000          -0.000
   1906933.994 9   1483965.74747  22381910.049    22381910.1864   22381918.5614
        -0.000          -0.000
   -836672.022 9   -584538.40649  21016596.874    21016596.4434   21016603.9604
        -0.000          -0.000
   1973889.066 9   1534827.45746  23982680.898    23982679.5864   23982690.7734
        -0.000          -0.000
  -4211052.931 9  -3268923.40747  23099485.207    23099484.6704   23099495.1944
        -0.000          -0.000
   4517479.021 9   3505148.41648  21893892.005    21893891.8444   21893900.8344
        -0.000          -0.000
  -3585193.389 9  -2298538.95045  24457359.080    24457359.4134   24457371.3724
        -0.000          -0.000
 99  4 11  2  0  0.0010000  0  7 17 26 23 22 21  6  3                0.001024045
   -398537.294 9   -308828.04049  21087196.782    21087196.2784   21087204.3144
        -0.000          -0.000
   1957583.012 9   1523432.53247  22391548.028    22391548.2744   22391556.7624
        -0.000          -0.000
   -836581.570 9   -584467.88849  21016614.143    21016613.7214   21016621.1334
        -0.000          -0.000
   2019959.218 9   1570726.22246  23991447.856    23991446.5174   23991457.5874
        -0.000          -0.000
  -4269631.385 9  -3314568.84247  23088337.873    23088337.4274   23088348.0114
        -0.000          -0.000
   4604516.492 9   3572969.75848  21910454.683    21910454.5874   21910463.4694
        -0.000          -0.000
  -3679180.986 9  -2371775.98246  24439474.288    24439474.2544   24439485.9454
        -0.000          -0.000
 99  4 11  2  0 30.0010000  0  7 17 26 23 22 21  6  3                0.001028158
   -397667.857 9   -308150.52849  21087362.425    21087361.8334   21087369.6884
        -0.000          -0.000
   2008818.091 9   1563355.93447  22401297.806    22401298.0144   22401306.4634
        -0.000          -0.000
   -836111.811 9   -584101.81549  21016703.463    21016703.0294   21016710.5734
        -0.000          -0.000
   2066451.110 9   1606953.59446  24000294.919    24000293.4434   24000304.6544
        -0.000          -0.000
  -4327927.839 9  -3359994.53447  23077244.204    23077243.8274   23077254.4204
        -0.000          -0.000
   4691958.423 9   3641106.27148  21927094.513    21927094.4184   21927103.0414
        -0.000          -0.000
  -3772998.695 9  -2444880.60746  24421621.659    24421621.4634   24421632.9814
        -0.000          -0.000
 99  4 11  2  1  0.0010000  0  7 17 26 23 22 21  6  3                0.001032280
   -396587.911 9   -307309.00149  21087568.007    21087567.4414   21087575.1144
        -0.000          -0.000
   2060617.461 9   1603719.07247  22411154.928    22411155.1504   22411163.5324
        -0.000          -0.000
   -835272.850 9   -583448.03749  21016863.101    21016862.6894   21016870.1884
        -0.000          -0.000
   2113333.333 9   1643485.12646  24009215.842    24009214.6274   24009226.0944
        -0.000          -0.000
  -4385942.614 9  -3405200.75047  23066204.341    23066203.9104   23066214.3704
        -0.000          -0.000
   4779815.887 9   3709566.57248  21943813.316    21943813.2244   21943821.6704
        -0.000          -0.000
  -3866656.887 9  -2517860.98146  24403799.361    24403799.0414   24403810.3204
        -0.000          -0.000
 99  4 11  2  1 30.0010000  0  7 17 26 23 22 21  6  3                0.001036410
   -395302.294 9   -306307.19849  21087812.719    21087812.0824   21087819.7864
        -0.000          -0.000
   2112979.721 9   1644520.83547  22421119.194    22421119.4024   22421127.5904
        -0.000          -0.000
   -834087.822 9   -582524.59849  21017088.722    21017088.2134   21017095.7114
        -0.000          -0.000
   2160562.556 9   1680287.05646  24018202.751    24018201.9154   24018213.6594
        -0.000          -0.000
  -4443673.183 9  -3450185.49047  23055218.586    23055217.9554   23055228.3334
        -0.000          -0.000
   4868082.478 9   3778345.67847  21960609.788    21960609.7264   21960618.2304
        -0.000          -0.000
  -3960158.039 9  -2590718.93846  24386006.700    24386006.3194   24386017.4674
        -0.000          -0.000
 99  4 11  2  2  0.0010000  0  7 17 26 23 22 21  6  3                0.001040548
   -393784.823 9   -305124.72949  21088101.406    21088100.8124   21088108.6314
        -0.000          -0.000
   2165915.795 9   1685769.74347  22431192.676    22431192.8784   22431200.7814
        -0.000          -0.000
   -832530.713 9   -581311.23049  21017384.938    21017384.4484   21017392.0204
        -0.000          -0.000
   2208140.184 9   1717360.48946  24027256.196    24027255.5774   24027267.3294
        -0.000          -0.000
  -4501111.914 9  -3494942.84047  23044287.885    23044287.4624   23044297.7204
        -0.000          -0.000
   4956779.146 9   3847459.90747  21977488.151    21977488.1914   21977496.6364
        -0.000          -0.000
  -4053483.710 8  -2663440.19545  24368247.339    24368246.9044   24368258.0394
        -0.000          -0.000
 99  4 11  2  2 30.0010000  0  7 17 26 23 22 21  6  3                0.001044684
   -392046.826 9   -303770.42249  21088432.208    21088431.6124   21088439.3604
        -0.000          -0.000
   2219415.349 9   1727457.71547  22441373.382    22441373.5314   22441381.3014
        -0.000          -0.000
   -830588.328 9   -579797.65349  21017754.409    21017753.9824   21017761.6254
        -0.000          -0.000
   2256057.353 9   1754698.46746  24036374.753    24036374.0844   24036385.5984
        -0.000          -0.000
  -4558276.327 9  -3539486.43847  23033409.688    23033409.3934   23033419.4514
        -0.000          -0.000
   5045908.817 9   3916911.51347  21994449.189    21994449.1494   21994457.5364
        -0.000          -0.000
  -4146643.087 8  -2736031.81745  24350519.492    24350519.1174   24350530.1694
        -0.000          -0.000
 99  4 11  2  3  0.0010000  0  7 17 26 23 22 21  6  3                0.001048825
   -390095.003 9   -302249.50349  21088803.624    21088802.9964   21088810.6714
        -0.000          -0.000
   2273485.993 9   1769590.69247  22451662.709    22451662.9074   22451670.6334
        -0.000          -0.000
   -828268.897 9   -577990.26749  21018195.756    21018195.2964   21018202.9934
        -0.000          -0.000
   2304323.779 9   1792308.59946  24045559.790    24045558.8864   24045570.5774
        -0.000          -0.000
  -4615174.977 9  -3583822.93447  23022582.285    23022581.9684   23022591.8564
        -0.000          -0.000
   5135452.074 9   3986685.41547  22011488.890    22011488.8034   22011497.1024
        -0.000          -0.000
  -4239622.144 8  -2808482.93345  24332826.028    24332825.5464   24332836.6524
        -0.000          -0.000
 99  4 11  2  3 30.0010000  0  7 17 26 23 22 21  6  3                0.001052979
   -387913.657 9   -300549.72549  21089218.536    21089217.9394   21089225.6244
        -0.000          -0.000
   2328145.499 9   1812182.52547  22462064.156    22462064.3164   22462072.1554
        -0.000          -0.000
   -825543.613 9   -575866.63549  21018714.295    21018713.8474   21018721.5594
        -0.000          -0.000
   2352985.095 9   1830226.42746  24054819.861    24054818.8054   24054830.4974
        -0.000          -0.000
  -4671802.863 9  -3627948.44247  23011806.324    23011805.9394   23011815.7604
        -0.000          -0.000
   5225408.064 9   4056780.94847  22028607.012    22028606.9134   22028615.2224
        -0.000          -0.000
  -4332405.501 8  -2880781.55845  24315169.571    24315169.2894   24315180.5064
        -0.000          -0.000
 99  4 11  2  4  0.0010000  0  7 17 26 23 22 21  6  3                0.001057130
   -385511.782 9   -298678.10848  21089675.321    21089674.7524   21089682.6344
        -0.000          -0.000
   2383365.586 9   1855211.16347  22472572.160    22472572.3614   22472580.2764
        -0.000          -0.000
   -822417.512 9   -573430.67249  21019309.207    21019308.7254   21019316.4334
        -0.000          -0.000
   2402050.210 9   1868458.90846  24064156.567    24064155.7114   24064167.1494
        -0.000          -0.000
  -4728182.550 9  -3671880.56047  23001077.293    23001077.0464   23001087.0974
        -0.000          -0.000
   5315765.907 9   4127189.60347  22045801.438    22045801.3404   22045809.8504
        -0.000          -0.000
  -4425014.855 8  -2952944.58245  24297546.464    24297546.2494   24297557.5554
        -0.000          -0.000
 99  4 11  2  4 30.0010000  0  7 17 26 23 22 21  6  3                0.001061290
   -382882.471 9   -296629.28249  21090175.592    21090175.0664   21090183.0764
        -0.000          -0.000
   2439162.819 9   1898689.52147  22483190.012    22483190.2714   22483198.0124
        -0.000          -0.000
   -818883.015 9   -570676.48849  21019981.733    21019981.2704   21019989.0484
        -0.000          -0.000
   2451531.376 9   1907015.57746  24073572.463    24073571.7134   24073583.0354
        -0.000          -0.000
  -4784287.982 9  -3715598.97547  22990400.738    22990400.4774   22990410.7664
        -0.000          -0.000
   5406526.000 9   4197911.69248  22063072.322    22063072.2934   22063081.1474
        -0.000          -0.000
  -4517441.387 9  -3024965.15246  24279958.115    24279958.0354   24279969.4304
        -0.000          -0.000
 99  4 11  2  5  0.0010000  0  7 17 26 23 22 21  6  3                0.001065459
   -380022.974 9   -294401.07749  21090719.782    21090719.1994   21090727.3224
        -0.000          -0.000
   2495538.922 9   1942618.93147  22493918.003    22493918.3044   22493925.9404
        -0.000          -0.000
   -814960.799 9   -567620.18649  21020728.014    21020727.5734   21020735.4394
        -0.000          -0.000
   2501411.578 9   1945883.18946  24083063.873    24083063.3734   24083075.2264
        -0.000          -0.000
  -4840118.412 9  -3759103.10747  22979776.740    22979776.3024   22979786.4844
        -0.000          -0.000
   5497668.108 9   4268931.45148  22080416.225    22080416.1864   22080425.1364
        -0.000          -0.000
  -4609677.071 9  -3096836.96846  24262406.307    24262406.0964   24262417.5894
        -0.000          -0.000
 99  4 11  2  5 30.0010000  0  7 17 26 23 22 21  6  3                0.001069646
   -376916.956 9   -291980.78149  21091310.776    21091310.2004   21091318.4414
        -0.000          -0.000
   2552502.851 9   1987006.41147  22504758.030    22504758.2304   22504765.7554
        -0.000          -0.000
   -810649.446 9   -564260.65049  21021548.436    21021548.0054   21021555.8174
        -0.000          -0.000
   2551680.453 9   1985053.67446  24092629.284    24092629.0304   24092641.4714
        -0.000          -0.000
  -4895659.019 9  -3802381.39347  22969207.844    22969207.2494   22969217.1414
        -0.000          -0.000
   5589214.183 9   4340265.98648  22097837.194    22097837.0454   22097845.9044
        -0.000          -0.000
  -4701719.078 9  -3168557.89646  24244891.507    24244891.1114   24244902.4844
        -0.000          -0.000
 99  4 11  2  6  0.0010000  0  7 17 26 23 22 21  6  3                0.001073844
   -373579.066 9   -289379.80649  21091946.010    21091945.4404   21091953.5654
        -0.000          -0.000
   2610053.708 9   2031851.23747  22515709.557    22515709.7594   22515717.3484
        -0.000          -0.000
   -805964.706 9   -560610.17449  21022439.920    21022439.4484   21022447.3294
        -0.000          -0.000
   2602297.508 9   2024495.44546  24102261.408    24102261.3014   24102273.7124
        -0.000          -0.000
  -4950909.667 9  -3845433.72647  22958693.660    22958693.1984   22958703.1474
        -0.000          -0.000
   5681151.740 9   4411905.57747  22115332.560    22115332.3844   22115341.0604
        -0.000          -0.000
  -4793569.007 9  -3240129.11346  24227413.322    24227412.7014   24227423.9604
        -0.000          -0.000
 99  4 11  2  6 30.0010000  0  7 17 26 23 22 21  6  3                0.001078051
   -370036.691 9   -286619.49049  21092620.263    21092619.6534   21092627.6384
        -0.000          -0.000
   2668171.434 9   2077137.78847  22526768.989    22526769.1624   22526776.8064
        -0.000          -0.000
   -800930.095 9   -556687.06549  21023397.829    21023397.4554   21023405.3184
        -0.000          -0.000
   2653238.439 9   2064189.60046  24111955.444    24111955.2804   24111967.4004
        -0.000          -0.000
  -5005884.088 9  -3888270.83447  22948232.101    22948231.7604   22948241.8794
        -0.000          -0.000
   5773448.437 9   4483824.99547  22132896.369    22132896.1544   22132904.4704
        -0.000          -0.000
  -4885210.786 8  -3311538.13345  24209974.661    24209973.8244   24209984.9094
        -0.000          -0.000
 99  4 11  2  7  0.0010000  0  7 17 26 23 22 21  6  3                0.001082280
   -366289.490 9   -283699.56749  21093333.385    21093332.7204   21093340.7624
        -0.000          -0.000
   2726860.680 9   2122869.68047  22537937.164    22537937.3414   22537945.0134
        -0.000          -0.000
   -795551.593 9   -552495.99349  21024421.302    21024420.8664   21024428.6684
        -0.000          -0.000
   2704508.641 9   2104140.31546  24121712.267    24121712.0354   24121723.8364
        -0.000          -0.000
  -5060584.203 9  -3930894.19547  22937823.022    22937822.7364   22937832.8204
        -0.000          -0.000
   5866109.506 9   4556028.34847  22150529.220    22150529.0384   22150537.2664
        -0.000          -0.000
  -4976624.404 8  -3382769.38045  24192579.009    24192578.1384   24192589.2724
        -0.000          -0.000
 99  4 11  2  7 30.0010000  0  7 17 26 23 22 21  6  3                0.001086510
   -362377.693 9   -280651.38049  21094077.708    21094077.1144   21094085.1584
        -0.000          -0.000
   2786077.348 9   2169012.55347  22549205.871    22549205.9794   22549213.6134
        -0.000          -0.000
   -789848.029 9   -548051.62949  21025506.601    21025506.1754   21025513.9074
        -0.000          -0.000
   2756090.618 9   2144333.98246  24131528.372    24131527.9504   24131539.7704
        -0.000          -0.000
  -5115032.051 9  -3973320.98647  22927462.071    22927461.6394   22927471.7894
        -0.000          -0.000
   5959114.649 9   4628499.81547  22168227.356    22168227.2064   22168235.6794
        -0.000          -0.000
  -5067837.457 8  -3453844.35845  24175220.845    24175220.3244   24175231.8554
        -0.000          -0.000
 99  4 11  2  8  0.0010000  0  7 17 26 23 22 21  6  3                0.001090750
   -358292.144 9   -277467.80849  21094855.103    21094854.5364   21094862.6004
        -0.000          -0.000
   2845817.935 9   2215563.68347  22560574.125    22560574.2394   22560581.9404
        -0.000          -0.000
   -783815.739 9   -543351.11449  21026654.538    21026654.0704   21026661.6794
        -0.000          -0.000
   2808003.894 9   2184785.78246  24141407.205    24141406.9024   24141418.6704
        -0.000          -0.000
  -5169227.915 9  -4015551.44847  22917148.855    22917148.4694   22917158.7344
        -0.000          -0.000
   6052469.214 9   4701243.57147  22185991.903    22185991.8284   22186000.7554
        -0.000          -0.000
  -5158835.163 8  -3524751.53745  24157903.686    24157903.4234   24157915.4944
        -0.000          -0.000
 99  4 11  2  8 30.0010000  0  7 17 26 23 22 21  6  3                0.001095004
   -354017.930 9   -274137.24149  21095668.343    21095667.7934   21095675.8704
        -0.000          -0.000
   2906078.754 9   2262520.17147  22572041.333    22572041.4514   22572049.2224
        -0.000          -0.000
   -777459.782 9   -538398.39249  21027863.941    21027863.5234   21027871.0314
        -0.000          -0.000
   2860254.447 9   2225500.40846  24151349.989    24151349.7584   24151361.8474
        -0.000          -0.000
  -5223191.324 9  -4057600.75847  22906879.754    22906879.5474   22906889.7684
        -0.000          -0.000
   6146184.707 9   4774268.56448  22203825.319    22203825.3024   22203834.3694
        -0.000          -0.000
  -5249619.512 8  -3595492.46145  24140627.145    24140627.2624   24140639.6314
        -0.000          -0.000
 99  4 11  2  9  0.0010000  0  7 17 26 23 22 21  6  3                0.001099272
   -349523.835 9   -270635.32948  21096523.487    21096522.9114   21096530.9244
        -0.000          -0.000
   2966885.720 9   2309902.22047  22583612.283    22583612.4614   22583620.3644
        -0.000          -0.000
   -770760.941 9   -533178.48249  21029138.702    21029138.2614   21029145.7184
        -0.000          -0.000
   2912844.723 9   2266479.73746  24161357.619    24161357.4104   24161369.7254
        -0.000          -0.000
  -5276909.775 9  -4099459.19247  22896657.676    22896657.3444   22896667.4334
        -0.000          -0.000
   6240283.354 9   4847592.11647  22221731.801    22221731.7654   22221740.6734
        -0.000          -0.000
  -5340200.072 8  -3666074.60345  24123389.893    24123390.2954   24123402.6444
        -0.000          -0.000
 99  4 11  2  9 30.0010000  0  7 17 26 23 22 21  6  3                0.001103558
   -344793.914 9   -266949.65949  21097423.299    21097422.7794   21097431.0014
        -0.000          -0.000
   3028240.013 9   2357710.76447  22595287.406    22595287.6584   22595295.6804
        -0.000          -0.000
   -763710.316 9   -527684.46549  21030480.320    21030479.9124   21030487.3244
        -0.000          -0.000
   2965779.928 9   2307727.88346  24171431.346    24171430.7964   24171442.9594
        -0.000          -0.000
  -5330389.472 9  -4141131.57047  22886480.651    22886480.3804   22886490.4794
        -0.000          -0.000
   6334775.984 9   4921222.65748  22239713.282    22239713.2764   22239721.9874
        -0.000          -0.000
  -5430571.181 9  -3736493.54345  24106192.963    24106193.3094   24106205.3064
        -0.000          -0.000
 99  4 11  2 10  0.0010000  0  7 17 26 23 22 21  6  3                0.001107864
   -339823.334 9   -263076.46849  21098369.012    21098368.5634   21098376.9724
        -0.000          -0.000
   3090155.435 9   2405956.56447  22607069.280    22607069.5424   22607077.8094
        -0.000          -0.000
   -756315.033 9   -521921.87649  21031887.570    21031887.1684   21031894.5274
        -0.000          -0.000
   3019049.045 9   2349236.17646  24181568.551    24181567.6694   24181579.4174
        -0.000          -0.000
  -5383637.110 9  -4182623.11047  22876347.929    22876347.5254   22876357.7374
        -0.000          -0.000
   6429658.274 9   4995156.83048  22257769.015    22257768.8974   22257777.8184
        -0.000          -0.000
  -5520728.444 9  -3806745.82746  24089037.150    24089037.1764   24089048.5964
        -0.000          -0.000
 99  4 11  2 10 30.0010000  0  8 17 26 23 22 21  6  3 29             0.001112191
   -334614.814 9   -259017.87549  21099360.248    21099359.7274   21099368.0934
        -0.000          -0.000
   3152647.040 9   2454651.31747  22618960.830    22618961.1194   22618969.5514
        -0.000          -0.000
   -748550.488 9   -515871.55649  21033365.043    21033364.6654   21033372.0844
        -0.000          -0.000
   3072652.375 9   2391004.91946  24191768.731    24191767.9384   24191779.6194
        -0.000          -0.000
  -5436633.282 9  -4223918.71947  22866262.992    22866262.6064   22866272.7064
        -0.000          -0.000
   6524933.312 9   5069397.03647  22275899.225    22275899.0864   22275908.2164
        -0.000          -0.000
  -5610663.162 9  -3876824.72046  24071923.640    24071923.4344   24071934.4654
        -0.000          -0.000
   -293492.71118   -210888.96855  25391078.000    25391078.6325   25391094.0985
        -0.000          -0.000
 99  4 11  2 11  0.0010000  0  8 17 26 23 22 21  6  3 29             0.001116534
   -329177.430 9   -254780.94349  21100394.844    21100394.3514   21100402.7354
        -0.000          -0.000
   3215704.933 9   2503787.34847  22630960.385    22630960.6124   22630969.0024
        -0.000          -0.000
   -740417.600 9   -509534.21549  21034912.646    21034912.2334   21034919.7634
        -0.000          -0.000
   3126586.930 9   2433031.74246  24202032.059    24202031.3424   24202042.9744
        -0.000          -0.000
  -5489346.192 9  -4264993.61647  22856232.192    22856231.7404   22856241.6434
        -0.000          -0.000
   6620591.231 9   5143935.60147  22294102.249    22294102.1844   22294111.3224
        -0.000          -0.000
  -5700375.539 9  -3946730.36846  24054852.151    24054851.9224   24054862.5864
        -0.000          -0.000
   -394757.562 8   -289795.99445  25371805.210    25371807.5834   25371824.4564
        -0.000          -0.000
 99  4 11  2 11 30.0010000  0  8 17 26 23 22 21  6  3 29             0.001120896
   -323511.073 9   -250365.58849  21101473.088    21101472.6244   21101481.0944
        -0.000          -0.000
   3279327.837 9   2553363.64647  22643067.334    22643067.5404   22643075.9434
        -0.000          -0.000
   -731899.523 9   -502896.72749  21036533.485    21036533.1114   21036540.7074
        -0.000          -0.000
   3180864.680 9   2475325.98346  24212360.568    24212359.9824   24212371.8404
        -0.000          -0.000
  -5541756.927 9  -4305833.06247  22846258.781    22846258.2554   22846268.1344
        -0.000          -0.000
   6716637.447 9   5218776.73047  22312379.265    22312379.2024   22312388.3274
        -0.000          -0.000
  -5789847.514 9  -4016448.70446  24037826.322    24037826.1194   24037836.5464
        -0.000          -0.000
   -496077.564 8   -368746.01845  25352525.595    25352526.4414   25352545.1364
        -0.000          -0.000
 99  4 11  2 12  0.0010000  0  8 17 26 23 22 21  6  3 29             0.001125253
   -317646.399 9   -245795.70449  21102589.123    21102588.6624   21102597.1534
        -0.000          -0.000
   3343488.735 9   2603359.15847  22655276.816    22655277.0184   22655285.1574
        -0.000          -0.000
   -723013.342 9   -495972.40049  21038224.482    21038224.1404   21038231.6724
        -0.000          -0.000
   3235454.422 9   2517863.35246  24222748.406    24222747.9314   24222760.0844
        -0.000          -0.000
  -5593873.700 9  -4346443.42247  22836341.266    22836340.7504   22836350.5434
        -0.000          -0.000
   6813040.457 9   5293895.88447  22330724.125    22330724.1114   22330733.2664
        -0.000          -0.000
  -5879110.005 9  -4086003.80246  24020840.441    24020839.9894   24020850.2834
        -0.000          -0.000
   -597465.990 8   -447749.37645  25333232.442    25333232.3794   25333251.8494
        -0.000          -0.000
 99  4 11  2 12 30.0010000  0  8 17 26 23 22 21  6  3 29             0.001129592
   -311580.078 9   -241068.69749  21103743.523    21103743.0934   21103751.5204
        -0.000          -0.000
   3408170.576 9   2653760.59246  22667585.337    22667585.5674   22667593.5534
        -0.000          -0.000
   -713766.728 9   -488767.21849  21039984.107    21039983.7234   21039991.3204
        -0.000          -0.000
   3290351.788 9   2560640.42446  24233195.195    24233194.7084   24233206.9414
        -0.000          -0.000
  -5645690.634 9  -4386820.14447  22826480.702    22826480.1174   22826489.9464
        -0.000          -0.000
   6909782.643 9   5369279.33247  22349133.775    22349133.6764   22349142.6304
        -0.000          -0.000
  -5968170.951 9  -4155401.85846  24003892.844    24003892.3714   24003902.3714
        -0.000          -0.000
   -698883.509 8   -526775.42945  25313933.490    25313932.5404   25313952.7444
        -0.000          -0.000
 99  4 11  2 13  0.0010000  0  8 17 26 23 22 21  6  3 29             0.001133912
   -305297.574 9   -236173.21749  21104939.120    21104938.6954   21104946.9604
        -0.000          -0.000
   3473354.604 9   2704553.33947  22679989.463    22679989.7204   22679997.8184
        -0.000          -0.000
   -704178.267 9   -481295.66349  21041808.579    21041808.2504   21041815.9964
        -0.000          -0.000
   3345556.194 9   2603656.77246  24243700.416    24243699.7064   24243712.2514
        -0.000          -0.000
  -5697214.170 9  -4426968.25347  22816675.443    22816675.1454   22816685.2434
        -0.000          -0.000
   7006852.441 9   5444918.05947  22367605.613    22367605.5094   22367614.3274
        -0.000          -0.000
  -6057020.987 9  -4224635.58446  23986985.251    23986984.9054   23986994.3964
        -0.000          -0.000
   -800323.716 8   -605819.21345  25294629.990    25294628.9324   25294649.1284
        -0.000          -0.000
 99  4 11  2 13 30.0010000  0  8 17 26 23 22 21  6  3 29             0.001138211
   -298798.544 9   -231109.01649  21106176.003    21106175.4994   21106183.6824
        -0.000          -0.000
   3539037.998 9   2755735.21047  22692488.623    22692488.8474   22692497.0564
        -0.000          -0.000
   -694250.301 9   -473559.56249  21043697.717    21043697.3824   21043705.1594
        -0.000          -0.000
   3401068.794 9   2646913.24346  24254264.133    24254263.4024   24254276.0574
        -0.000          -0.000
  -5748466.514 9  -4466905.04847  22806921.879    22806921.8974   22806932.1564
        -0.000          -0.000
   7104243.191 9   5520806.87947  22386138.322    22386138.2794   22386147.1544
        -0.000          -0.000
  -6145658.580 9  -4293703.75646  23970118.453    23970117.7234   23970126.8074
        -0.000          -0.000
   -901807.684 8   -684897.12245  25275317.909    25275317.0634   25275336.8514
        -0.000          -0.000
 99  4 11  2 14  0.0010000  0  8 17 26 23 22 21  6  3 29             0.001142507
   -292062.317 9   -225859.99649  21107457.787    21107457.3014   21107465.5564
        -0.000          -0.000
   3605231.892 9   2807314.87047  22705084.849    22705085.1564   22705093.4074
        -0.000          -0.000
   -683992.101 9   -465566.13049  21045649.830    21045649.4704   21045657.0904
        -0.000          -0.000
   3456899.661 9   2690417.71846  24264888.528    24264887.6884   24264900.3644
        -0.000          -0.000
  -5799449.367 9  -4506631.84447  22797220.181    22797220.1134   22797230.3114
        -0.000          -0.000
   7201962.440 9   5596951.67447  22404733.741    22404733.6854   22404742.6184
        -0.000          -0.000
  -6234061.861 9  -4362589.35746  23953295.962    23953295.0094   23953303.9704
        -0.000          -0.000
  -1003329.160 8   -764004.24745  25255998.522    25255997.8474   25256017.3244
        -0.000          -0.000
 99  4 11  2 14 30.0010000  0  8 17 26 23 22 21  6  3 29             0.001146791
   -285102.827 9   -220436.99749  21108782.156    21108781.6844   21108789.9234
        -0.000          -0.000
   3671913.979 9   2859274.93947  22717774.312    22717774.5224   22717782.7254
        -0.000          -0.000
   -673424.779 9   -457331.82249  21047660.837    21047660.4384   21047667.9214
        -0.000          -0.000
   3513031.464 9   2734156.70146  24275569.666    24275569.1634   24275581.9914
        -0.000          -0.000
  -5850196.049 9  -4546174.60747  22787563.417    22787563.1894   22787573.4474
        -0.000          -0.000
   7299986.793 9   5673334.20347  22423387.336    22423387.2024   22423396.2024
        -0.000          -0.000
  -6322240.643 9  -4431300.01446  23936515.803    23936514.9764   23936523.7664
        -0.000          -0.000
  -1104908.465 8   -843156.49045  25236667.898    25236667.7904   25236686.7944
        -0.000          -0.000
 99  4 11  2 15  0.0010000  0  8 17 26 23 22 21  6  3 29             0.001151092
   -277897.777 9   -214822.66349  21110153.304    21110152.8154   21110161.0744
        -0.000          -0.000
   3739120.137 9   2911643.37447  22730563.549    22730563.6874   22730571.8114
        -0.000          -0.000
   -662513.485 9   -448829.49049  21049737.199    21049736.7904   21049744.2134
        -0.000          -0.000
   3569492.663 9   2778152.34646  24286313.813    24286313.5644   24286326.1124
        -0.000          -0.000
  -5900688.640 9  -4585519.38147  22777954.974    22777954.6504   22777965.0664
        -0.000          -0.000
   7398355.539 9   5749985.11747  22442106.220    22442106.1334   22442115.2654
        -0.000          -0.000
  -6410150.088 9  -4499800.80546  23919786.483    23919786.0974   23919795.0304
        -0.000          -0.000
  -1206532.753 8   -922343.80745  25217329.049    25217328.9674   25217348.0964
        -0.000          -0.000
 99  4 11  2 15 30.0010000  0  8 17 26 23 22 21  6  3 29             0.001155427
   -270461.240 9   -209027.95649  21111568.444    21111567.9264   21111576.3104
        -0.000          -0.000
   3806874.433 9   2964438.96147  22743456.996    22743457.0824   22743465.1624
        -0.000          -0.000
   -651256.581 9   -440057.84649  21051879.337    21051878.9574   21051886.2914
        -0.000          -0.000
   3626282.176 9   2822403.82046  24297121.147    24297120.6334   24297132.7194
        -0.000          -0.000
  -5950932.269 9  -4624670.16847  22768393.985    22768393.5894   22768404.0044
        -0.000          -0.000
   7497080.066 9   5826913.25347  22460892.862    22460892.8374   22460901.8394
        -0.000          -0.000
  -6497793.123 9  -4568093.99146  23903108.170    23903107.8244   23903117.0984
        -0.000          -0.000
  -1308191.130 8  -1001557.68145  25197983.980    25197983.7304   25198002.8284
        -0.000          -0.000
 99  4 11  2 16  0.0010000  0  8 17 26 23 22 21  6  3 29             0.001159779
   -262810.353 9   -203066.20649  21113024.354    21113023.8384   21113032.1824
        -0.000          -0.000
   3875159.586 9   3017648.17947  22756451.253    22756451.2774   22756459.2684
        -0.000          -0.000
   -639673.301 9   -431031.86949  21054083.662    21054083.2224   21054090.5364
        -0.000          -0.000
   3683369.914 9   2866887.68446  24307984.930    24307984.2924   24307996.3764
        -0.000          -0.000
  -6000945.933 9  -4663641.77047  22758876.732    22758876.3774   22758886.5734
        -0.000          -0.000
   7596142.653 9   5904104.80647  22479744.060    22479744.0274   22479752.7224
        -0.000          -0.000
  -6585193.095 9  -4636197.77646  23886476.372    23886475.8284   23886485.5514
        -0.000          -0.000
  -1409868.170 8  -1080786.11645  25178635.192    25178634.7554   25178654.2384
        -0.000          -0.000
 99  4 11  2 16 30.0010000  0  8 17 26 23 22 21  6  3 29             0.001164138
   -254949.674 9   -196940.97549  21114520.210    21114519.6734   21114527.9294
        -0.000          -0.000
   3943968.975 9   3071265.89346  22769545.069    22769545.1224   22769553.0864
        -0.000          -0.000
   -627763.529 9   -421751.49749  21056349.822    21056349.4934   21056356.9474
        -0.000          -0.000
   3740740.593 9   2911592.02946  24318902.509    24318901.6254   24318913.7794
        -0.000          -0.000
  -6050720.112 9  -4702426.75447  22749405.027    22749404.6754   22749414.6264
        -0.000          -0.000
   7695535.379 9   5981553.60947  22498658.087    22498658.0034   22498666.4224
        -0.000          -0.000
  -6672359.760 9  -4704119.75646  23869889.008    23869888.4104   23869898.3754
        -0.000          -0.000
  -1511555.531 8  -1160022.62445  25159284.451    25159283.8324   25159303.6364
        -0.000          -0.000
 99  4 11  2 17  0.0010000  0  8 17 26 23 22 21  6  3 29             0.001168511
   -246869.744 9   -190644.90149  21116057.617    21116057.1484   21116065.4664
        -0.000          -0.000
   4013306.234 9   3125294.92046  22782739.349    22782739.4384   22782747.3074
        -0.000          -0.000
   -615536.147 9   -412223.62949  21058676.628    21058676.3514   21058683.7884
        -0.000          -0.000
   3798389.021 9   2956512.78546  24329872.721    24329871.7404   24329883.8144
        -0.000          -0.000
  -6100236.969 9  -4741011.21147  22739982.223    22739981.8284   22739991.6314
        -0.000          -0.000
   7795271.664 9   6059270.13347  22517637.433    22517637.3534   22517645.6764
        -0.000          -0.000
  -6759288.332 9  -4771856.21546  23853346.772    23853346.3834   23853356.5244
        -0.000          -0.000
  -1613246.123 8  -1239261.70145  25139932.826    25139932.3694   25139952.0724
        -0.000          -0.000
 99  4 11  2 17 30.0010000  0  8 17 26 23 22 21  6  3 29             0.001172884
   -238563.462 9   -184172.45449  21117638.323    21117637.8434   21117646.0884
        -0.000          -0.000
   4083157.678 9   3179724.61246  22796031.506    22796031.6954   22796039.5574
        -0.000          -0.000
   -603006.167 9   -402459.96649  21061061.131    21061060.7514   21061068.1744
        -0.000          -0.000
   3856301.958 9   3001639.63546  24340892.818    24340892.0914   24340904.2194
        -0.000          -0.000
  -6149504.015 9  -4779401.03247  22730607.026    22730606.6194   22730616.3134
        -0.000          -0.000
   7895339.594 9   6137245.08547  22536679.957    22536679.8024   22536688.1484
        -0.000          -0.000
  -6846000.320 9  -4839423.90846  23836845.874    23836845.5454   23836855.7064
        -0.000          -0.000
  -1714945.934 8  -1318507.93045  25120579.701    25120579.1654   25120598.5044
        -0.000          -0.000
 99  4 11  2 18  0.0010000  0  8 17 26 23 22 21  6  3 29             0.001177244
   -230012.560 9   -177509.39649  21119265.619    21119265.0674   21119273.1624
        -0.000          -0.000
   4153498.240 9   3234535.43946  22809416.811    22809417.0094   22809424.9304
        -0.000          -0.000
   -590176.380 9   -392462.70149  21063502.610    21063502.2314   21063509.7024
        -0.000          -0.000
   3914472.445 9   3046967.19046  24351962.312    24351961.4484   24351973.8814
        -0.000          -0.000
  -6198510.357 9  -4817587.70347  22721281.493    22721280.9954   22721290.7414
        -0.000          -0.000
   7995730.922 9   6215472.01647  22555783.607    22555783.5264   22555792.0774
        -0.000          -0.000
  -6932493.846 9  -4906821.35246  23820386.754    23820386.2994   23820396.3604
        -0.000          -0.000
  -1816671.460 8  -1397774.22745  25101221.294    25101221.1474   25101240.3434
        -0.000          -0.000
 99  4 11  2 18 30.0010000  0  8 17 26 23 22 21  6  3 29             0.001181601
   -221221.489 9   -170659.18549  21120938.567    21120937.9994   21120945.8924
        -0.000          -0.000
   4224325.880 9   3289725.80246  22822894.940    22822895.1384   22822902.9704
        -0.000          -0.000
   -577049.252 9   -382233.73649  21066000.676    21066000.2614   21066007.7004
        -0.000          -0.000
   3972913.637 9   3092505.67846  24363083.606    24363082.5884   24363095.1864
        -0.000          -0.000
  -6247245.796 9  -4855563.28347  22712007.260    22712006.7554   22712016.6934
        -0.000          -0.000
   8096441.270 9   6293947.54847  22574947.798    22574947.8004   22574956.6994
        -0.000          -0.000
  -7018745.736 9  -4974030.51746  23803973.435    23803973.1024   23803982.8614
        -0.000          -0.000
  -1918436.119 8  -1477071.01145  25081855.656    25081855.8434   25081874.6004
        -0.000          -0.000
 99  4 11  2 19  0.0010000  0  8 17 26 23 22 21  6  3 29             0.001185963
   -212195.489 9   -163625.89849  21122656.231    21122655.6304   21122663.3804
        -0.000          -0.000
   4295645.211 9   3345299.30546  22836466.754    22836466.8734   22836474.7284
        -0.000          -0.000
   -563606.476 9   -371758.80949  21068558.775    21068558.3314   21068565.7014
        -0.000          -0.000
   4031644.228 9   3138269.67846  24374259.987    24374258.9914   24374271.6144
        -0.000          -0.000
  -6295720.665 9  -4893335.82847  22702782.624    22702782.1614   22702792.1624
        -0.000          -0.000
   8197471.665 9   6372672.45947  22594173.083    22594173.1104   22594182.3114
        -0.000          -0.000
  -7104740.476 9  -5041039.29546  23787609.231    23787608.8214   23787618.3284
        -0.000          -0.000
  -2020239.617 8  -1556398.06045  25062483.404    25062483.3234   25062501.6754
        -0.000          -0.000
 99  4 11  2 19 30.0010000  0  8 17 26 23 22 21  6  3 29             0.001190330
   -202937.783 9   -156412.07649  21124417.842    21124417.2704   21124425.0704
        -0.000          -0.000
   4367454.280 9   3401254.41946  22850131.615    22850131.7334   22850139.6774
        -0.000          -0.000
   -549828.111 9   -361022.38849  21071180.685    21071180.2464   21071187.6574
        -0.000          -0.000
   4090676.474 9   3184268.74146  24385493.889    24385492.8334   24385505.1124
        -0.000          -0.000
  -6343935.395 9  -4930905.66847  22693607.501    22693607.1334   22693617.0434
        -0.000          -0.000
   8298815.419 9   6451641.55747  22613458.351    22613458.2394   22613467.6504
        -0.000          -0.000
  -7190457.600 9  -5107831.74746  23771297.946    23771297.3234   23771306.8444
        -0.000          -0.000
  -2122071.083 8  -1635746.85645  25043105.034    25043105.1204   25043123.2334
        -0.000          -0.000
 99  4 11  2 20  0.0010000  0  8 17 26 23 22 21  6  3 29             0.001194707
   -193473.816 9   -149037.53549  21126218.789    21126218.1934   21126226.0364
        -0.000          -0.000
   4439753.242 9   3457591.28547  22863889.838    22863889.9184   22863897.8154
        -0.000          -0.000
   -535702.632 9   -350015.49249  21073868.525    21073868.0854   21073875.5784
        -0.000          -0.000
   4150015.753 9   3230507.03846  24396786.145    24396785.0664   24396796.7974
        -0.000          -0.000
  -6391870.856 9  -4968257.90147  22684485.504    22684485.2374   22684494.9494
        -0.000          -0.000
   8400476.709 9   6530858.07947  22632804.103    22632803.9064   22632813.3324
        -0.000          -0.000
  -7275887.049 9  -5174400.06746  23755041.111    23755040.6784   23755050.0814
        -0.000          -0.000
  -2223917.273 8  -1715107.14045  25023723.411    25023723.8294   25023741.9954
        -0.000          -0.000
 99  4 11  2 20 30.0010000  0  8 17 26 23 22 21  6  3 29             0.001199092
   -183836.769 9   -141528.11849  21128052.660    21128052.0344   21128059.8884
        -0.000          -0.000
   4512539.332 9   3514307.71847  22877740.584    22877740.6694   22877748.7034
        -0.000          -0.000
   -521232.911 9   -338740.35149  21076621.922    21076621.4794   21076629.0104
        -0.000          -0.000
   4209656.651 9   3276980.36046  24408135.561    24408134.4904   24408145.9844
        -0.000          -0.000
  -6439549.402 9  -5005409.91847  22675412.778    22675412.4184   22675421.8774
        -0.000          -0.000
   8502441.446 9   6610311.04247  22652207.439    22652207.2034   22652216.6154
        -0.000          -0.000
  -7361038.077 9  -5240751.43146  23738837.356    23738837.0454   23738846.3944
        -0.000          -0.000
  -2325770.504 8  -1794472.90845  25004340.775    25004341.5334   25004359.2264
        -0.000          -0.000
 99  4 11  2 21  0.0010000  0  8 17 26 23 22 21  6  3 29             0.001203500
   -173990.387 9   -133855.58149  21129926.279    21129925.6674   21129933.5874
        -0.000          -0.000
   4585836.906 9   3571422.72747  22891688.756    22891688.8434   22891696.7154
        -0.000          -0.000
   -506396.886 9   -327179.78449  21079444.991    21079444.5644   21079452.1864
        -0.000          -0.000
   4269610.838 9   3323697.81146  24419544.258    24419543.2824   24419555.1944
        -0.000          -0.000
  -6486949.582 9  -5042345.03047  22666393.210    22666392.6034   22666401.9574
        -0.000          -0.000
   8604746.243 9   6690028.99147  22671675.395    22671675.1764   22671684.5214
        -0.000          -0.000
  -7445895.116 9  -5306873.70946  23722689.737    23722689.3144   23722698.5464
        -0.000          -0.000
  -2427597.586 8  -1873818.25945  24984964.375    24984964.7784   24984981.3624
        -0.000          -0.000
 99  4 11  2 21 30.0010000  0  8 17 26 23 22 21  6  3 29             0.001207912
   -163942.799 9   -126026.26849  21131838.232    21131837.6534   21131845.6134
        -0.000          -0.000
   4659621.520 9   3628917.23047  22905729.650    22905729.7324   22905737.3934
        -0.000          -0.000
   -491227.907 9   -315359.76949  21082331.488    21082331.0364   21082338.7074
        -0.000          -0.000
   4329838.518 9   3370628.35146  24431005.451    24431004.3484   24431016.5424
        -0.000          -0.000
  -6534078.087 9  -5079068.44247  22657424.806    22657424.2324   22657433.7574
        -0.000          -0.000
   8707372.374 9   6769997.32847  22691204.742    22691204.5264   22691213.5494
        -0.000          -0.000
  -7530483.879 9  -5372786.95046  23706592.904    23706592.4284   23706601.5924
        -0.000          -0.000
  -2529414.348 8  -1953155.57945  24965589.899    24965590.1904   24965605.3594
        -0.000          -0.000
 99  4 11  2 22  0.0010000  0  8 17 26 23 22 21  6  3 29             0.001212326
   -153682.373 9   -118031.10649  21133790.751    21133790.1814   21133798.1084
        -0.000          -0.000
   4733898.539 9   3686795.43947  22919864.075    22919864.1194   22919871.8444
        -0.000          -0.000
   -475739.705 9   -303291.01149  21085278.733    21085278.2864   21085285.9994
        -0.000          -0.000
   4390324.956 9   3417760.52546  24442515.827    24442514.7194   24442527.0424
        -0.000          -0.000
  -6580932.785 9  -5115578.50447  22648508.457    22648507.9554   22648517.5704
        -0.000          -0.000
   8810318.750 9   6850215.20747  22710794.941    22710794.6944   22710803.6064
        -0.000          -0.000
  -7614819.053 9  -5438502.58346  23690544.061    23690543.8184   23690552.9284
        -0.000          -0.000
  -2631226.559 8  -2032489.32845  24946216.027    24946216.0744   24946230.5764
        -0.000          -0.000
 99  4 11  2 22 30.0010000  0  8 17 26 23 22 21  6  3 29             0.001216737
   -143174.682 9   -109843.26949  21135790.324    21135789.7384   21135797.6224
        -0.000          -0.000
   4808666.572 9   3745056.25447  22934091.805    22934091.8794   22934099.7384
        -0.000          -0.000
   -459946.372 9   -290984.49249  21088284.056    21088283.6454   21088291.3894
        -0.000          -0.000
   4451051.974 9   3465080.17346  24454071.397    24454070.5714   24454083.1414
        -0.000          -0.000
  -6627531.270 9  -5151888.93447  22639641.103    22639640.4634   22639650.0874
        -0.000          -0.000
   8913575.970 9   6930675.30447  22730444.173    22730443.9614   22730453.0834
        -0.000          -0.000
  -7698886.020 9  -5504009.23346  23674546.129    23674546.2634   23674555.3184
        -0.000          -0.000
  -2733038.007 8  -2111822.45845  24926841.643    24926841.5984   24926856.0824
        -0.000          -0.000
 99  4 11  2 23  0.0010000  0  8 17 26 23 22 21  6  3 29             0.001221148
   -132378.611 9   -101430.73349  21137844.706    21137844.1654   21137851.9894
        -0.000          -0.000
   4883934.746 9   3803706.81046  22948414.618    22948414.7234   22948422.6104
        -0.000          -0.000
   -443841.809 9   -278435.45849  21091348.578    21091348.1944   21091355.9354
        -0.000          -0.000
   4512008.910 9   3512578.96646  24465670.718    24465670.1794   24465683.0364
        -0.000          -0.000
  -6673864.276 9  -5187992.48747  22630824.223    22630823.5174   22630833.1034
        -0.000          -0.000
   9017156.923 9   7011387.67947  22750154.996    22750154.8354   22750164.2584
        -0.000          -0.000
  -7782668.139 9  -5569293.91246  23658602.840    23658602.9804   23658611.8894
        -0.000          -0.000
  -2834839.198 8  -2191147.58845  24907468.870    24907469.0684   24907483.4734
        -0.000          -0.000
 99  4 11  2 23 30.0010000  0  8 17 26 23 22 21  6  3 29             0.001225573
   -121300.877 9    -92798.70849  21139952.759    21139952.2354   21139959.9944
        -0.000          -0.000
   4959708.357 9   3862751.19746  22962833.883    22962833.9214   22962841.8294
        -0.000          -0.000
   -427412.785 9   -265633.59649  21094474.879    21094474.5394   21094482.2464
        -0.000          -0.000
   4573200.429 9   3560260.56946  24477315.288    24477314.5574   24477327.4924
        -0.000          -0.000
  -6719929.146 9  -5223887.11647  22622058.137    22622057.5564   22622067.0004
        -0.000          -0.000
   9121050.688 9   7092343.78747  22769925.440    22769925.2394   22769934.9324
        -0.000          -0.000
  -7866171.489 9  -5634361.36546  23642712.762    23642712.8104   23642721.5954
        -0.000          -0.000
  -2936630.242 8  -2270464.86545  24888097.839    24888098.0514   24888113.2204
        -0.000          -0.000
 99  4 11  2 24  0.0010000  0  8 17 26 23 22 21  6  3 29             0.001229980
   -109952.515 9    -83955.81349  21142112.313    21142111.7114   21142119.4864
        -0.000          -0.000
   5035979.520 9   3922183.26746  22977347.812    22977347.8944   22977355.8614
        -0.000          -0.000
   -410672.410 9   -252589.12749  21097660.536    21097660.1444   21097667.7964
        -0.000          -0.000
   4634623.130 9   3608122.28446  24489003.803    24489002.8464   24489015.8034
        -0.000          -0.000
  -6765747.161 9  -5259589.36247  22613338.997    22613338.5424   22613347.8334
        -0.000          -0.000
   9225244.367 9   7173533.58847  22789752.730    22789752.6424   22789762.4724
        -0.000          -0.000
  -7949412.957 9  -5699224.73846  23626872.531    23626872.4474   23626881.1624
        -0.000          -0.000
  -3038416.192 8  -2349778.19845  24868727.898    24868728.2584   24868743.8564
        -0.000          -0.000
 99  4 11  2 24 30.0010000  0  8 17 26 23 22 21  6  3 29             0.001234382
    -98353.171 9    -74917.34449  21144319.485    21144318.9034   21144326.6764
        -0.000          -0.000
   5112732.230 9   3981990.59846  22991953.491    22991953.5414   22991961.4394
        -0.000          -0.000
   -393625.883 9   -239306.09749  21100904.483    21100904.0384   21100911.5664
        -0.000          -0.000
   4696278.078 9   3656164.98446  24500736.577    24500735.6034   24500748.2724
        -0.000          -0.000
  -6811332.009 9  -5295109.93147  22604664.386    22604663.9074   22604673.1494
        -0.000          -0.000
   9329723.330 9   7254945.68747  22809634.549    22809634.4984   22809644.1634
        -0.000          -0.000
  -8032397.243 9  -5763887.71946  23611081.145    23611080.9404   23611089.7054
        -0.000          -0.000
  -3140206.921 8  -2429095.22045  24849357.304    24849357.4684   24849373.8404
        -0.000          -0.000
 99  4 11  2 25  0.0010000  0  8 17 26 23 22 21  6  3 29             0.001238780
    -86523.356 9    -65699.29149  21146570.573    21146569.9944   21146577.8574
        -0.000          -0.000
   5189973.211 9   4042178.38546  23006651.993    23006652.0164   23006659.8184
        -0.000          -0.000
   -376249.754 9   -225766.22949  21104211.276    21104210.7494   21104218.0914
        -0.000          -0.000
   4758194.544 9   3704411.47746  24512518.991    24512518.1664   24512530.6804
        -0.000          -0.000
  -6856657.064 9  -5330428.05947  22596039.134    22596038.7284   22596047.9064
        -0.000          -0.000
   9434496.263 9   7336586.85647  22829572.514    22829572.3164   22829581.7724
        -0.000          -0.000
  -8115121.343 9  -5828347.95646  23595338.929    23595338.8474   23595347.7964
        -0.000          -0.000
  -3241989.825 8  -2508406.09545  24829988.529    24829988.6484   24830005.1844
        -0.000          -0.000
 99  4 11  2 25 30.0010000  0  8 17 26 23 22 21  6  3 29             0.001243185
    -74471.148 9    -56307.94149  21148863.957    21148863.3974   21148871.2664
        -0.000          -0.000
   5267711.848 9   4102753.94446  23021445.269    23021445.3154   23021453.0484
        -0.000          -0.000
   -358540.026 9   -211966.42249  21107581.290    21107580.7364   21107588.1254
        -0.000          -0.000
   4820403.459 9   3752885.87946  24524357.018    24524356.1224   24524368.9114
        -0.000          -0.000
  -6901693.553 9  -5365521.32847  22587468.874    22587468.5114   22587477.5784
        -0.000          -0.000
   9539575.452 9   7418466.69447  22849568.255    22849568.1134   22849577.6814
        -0.000          -0.000
  -8197570.956 9  -5892594.31546  23579649.178    23579649.0194   23579658.1054
        -0.000          -0.000
  -3343758.539 8  -2587705.94745  24810622.292    24810622.1554   24810638.7304
        -0.000          -0.000
 99  4 11  2 26  0.0010000  0  8 17 26 23 22 21  6  3 29             0.001247598
    -62192.160 9    -46739.87549  21151200.563    21151199.9794   21151207.7434
        -0.000          -0.000
   5345923.217 9   4163697.89146  23036328.436    23036328.4524   23036336.2464
        -0.000          -0.000
   -340524.416 9   -197928.25549  21111009.377    21111008.9234   21111016.3294
        -0.000          -0.000
   4882892.741 9   3801578.70946  24536248.382    24536247.5084   24536260.2994
        -0.000          -0.000
  -6946442.985 9  -5400390.91047  22578953.180    22578952.8174   22578961.8704
        -0.000          -0.000
   9644952.800 9   7500578.83947  22869620.831    22869620.7214   22869630.4194
        -0.000          -0.000
  -8279728.311 9  -5956612.93346  23564015.019    23564014.7824   23564024.0124
        -0.000          -0.000
  -3445510.866 8  -2666993.03645  24791258.742    24791258.7204   24791275.2674
        -0.000          -0.000
 99  4 11  2 26 30.0010000  0  8 17 26 23 22 21  6  3 29             0.001252005
    -49721.053 9    -37022.11849  21153573.790    21153573.1964   21153580.9354
        -0.000          -0.000
   5424572.747 9   4224983.25346  23051294.795    23051294.8114   23051302.6434
        -0.000          -0.000
   -322239.758 9   -183680.43749  21114488.731    21114488.2544   21114495.7234
        -0.000          -0.000
   4945614.888 9   3850453.02146  24548184.365    24548183.4264   24548195.9804
        -0.000          -0.000
  -6990928.368 9  -5435054.73548  22570487.744    22570487.3774   22570496.5984
        -0.000          -0.000
   9750592.734 9   7582895.58047  22889723.456    22889723.2354   22889733.1594
        -0.000          -0.000
  -8361594.253 9  -6020404.47346  23548436.072    23548436.0474   23548445.4674
        -0.000          -0.000
  -3547270.970 8  -2746286.25445  24771894.021    24771894.2644   24771910.5274
        -0.000          -0.000
 99  4 11  2 27  0.0010000  0  8 17 26 23 22 21  6  3 29             0.001256426
    -37031.463 9    -27134.10849  21155988.497    21155987.8954   21155995.7164
        -0.000          -0.000
   5503675.237 9   4286621.55546  23066347.485    23066347.5394   23066355.2934
        -0.000          -0.000
   -303674.648 9   -169214.09649  21118021.373    21118020.9784   21118028.4684
        -0.000          -0.000
   5008575.595 9   3899513.22046  24560165.451    24560164.5624   24560177.1994
        -0.000          -0.000
  -7035133.197 9  -5469499.94048  22562075.809    22562075.4604   22562084.7654
        -0.000          -0.000
   9856522.514 9   7665438.19647  22909880.962    22909880.8304   22909891.0064
        -0.000          -0.000
  -8443138.749 9  -6083945.53946  23532918.558    23532918.6504   23532928.1234
        -0.000          -0.000
  -3648997.947 9  -2825553.62945  24752536.308    24752536.2774   24752552.4654
        -0.000          -0.000
 99  4 11  2 27 30.0010000  0  8 17 26 23 22 21  6  3 29             0.001260855
    -24101.754 9    -17058.99248  21158448.796    21158448.2114   21158456.0984
        -0.000          -0.000
   5583213.111 9   4348599.10546  23081483.065    23081483.1114   23081490.8044
        -0.000          -0.000
   -284848.810 9   -154544.58449  21121603.877    21121603.4584   21121610.8334
        -0.000          -0.000
   5071745.352 9   3948736.29446  24572186.303    24572185.4394   24572198.0814
        -0.000          -0.000
  -7079087.651 9  -5503750.05548  22553711.579    22553711.2214   22553720.4044
        -0.000          -0.000
   9962733.463 9   7748199.88947  22930092.171    22930092.0784   22930102.2354
        -0.000          -0.000
  -8524364.884 9  -6147238.53146  23517461.793    23517461.8594   23517471.3094
        -0.000          -0.000
  -3750686.470 8  -2904791.01545  24733185.696    24733185.5634   24733201.5434
        -0.000          -0.000
 99  4 11  2 28  0.0010000  0  8 17 26 23 22 21  6  3 29             0.001265303
    -10911.499 9     -6780.84548  21160958.802    21160958.2534   21160965.9624
        -0.000          -0.000
   5663198.626 9   4410925.46746  23096703.916    23096704.0244   23096711.3984
        -0.000          -0.000
   -265731.219 9   -139647.73049  21125242.004    21125241.5094   21125248.7284
        -0.000          -0.000
   5135127.155 9   3998124.61246  24584247.724    24584246.8504   24584259.1484
        -0.000          -0.000
  -7122793.850 9  -5537806.71648  22545394.542    22545394.2084   22545403.2304
        -0.000          -0.000
  10069239.981 9   7831191.89947  22950359.742    22950359.7064   22950369.6694
        -0.000          -0.000
  -8605250.671 9  -6210266.31647  23502069.889    23502069.8554   23502079.2484
        -0.000          -0.000
  -3852301.425 8  -2983971.07145  24713848.689    24713848.5194   24713864.6864
        -0.000          -0.000
 99  4 11  2 28 30.0010000  0  8 17 26 23 22 21  6  3 29             0.001269759
      2529.704 9      3692.83848  21163516.583    21163515.9734   21163523.5934
        -0.000          -0.000
   5743637.380 9   4473605.02446  23112010.963    23112011.0684   23112018.3814
        -0.000          -0.000
   -246308.823 9   -124513.36649  21128938.084    21128937.5314   21128944.6384
        -0.000          -0.000
   5198718.191 9   4047675.98546  24596348.683    24596347.7934   24596360.2104
        -0.000          -0.000
  -7166266.730 9  -5571681.57548  22537121.974    22537121.5164   22537130.5924
        -0.000          -0.000
  10176038.151 9   7914411.16347  22970682.943    22970682.8674   22970692.7204
        -0.000          -0.000
  -8685819.753 9  -6273047.33147  23486738.100    23486738.1794   23486747.5074
        -0.000          -0.000
  -3953858.749 9  -3063106.23445  24694522.676    24694522.6184   24694538.8884
        -0.000          -0.000
 99  4 11  2 29  0.0010000  0  8 17 26 23 22 21  6  3 29             0.001274216
     16235.236 9     14372.48648  21166124.561    21166123.9774   21166131.6284
        -0.000          -0.000
   5824526.427 9   4536635.45746  23127403.523    23127403.6424   23127411.1914
        -0.000          -0.000
   -226563.647 9   -109127.48549  21132695.400    21132694.8704   21132701.9964
        -0.000          -0.000
   5262531.663 9   4097400.69246  24608491.700    24608490.9564   24608503.6964
        -0.000          -0.000
  -7209506.263 9  -5605374.63348  22528893.524    22528893.1124   22528902.4364
        -0.000          -0.000
  10283131.302 9   7997860.29147  22991062.183    22991062.0694   22991071.9244
        -0.000          -0.000
  -8766087.282 9  -6335593.36647  23471464.012    23471463.9334   23471473.1644
        -0.000          -0.000
  -4055359.524 9  -3142197.32245  24675207.721    24675207.4394   24675223.6404
        -0.000          -0.000
 99  4 11  2 29 30.0010000  0  8 17 26 23 22 21  6  3 29             0.001278670
     30214.340 9     25265.32348  21168784.588    21168784.0264   21168791.7284
        -0.000          -0.000
   5905870.464 9   4600020.38446  23142882.599    23142882.7764   23142890.6194
        -0.000          -0.000
   -206496.507 9    -93490.72849  21136513.935    21136513.4764   21136520.5454
        -0.000          -0.000
   5326569.055 9   4147299.86646  24620678.002    24620677.0594   24620689.6294
        -0.000          -0.000
  -7252505.587 9  -5638880.50448  22520710.833    22520710.5764   22520719.8344
        -0.000          -0.000
  10390501.517 9   8081525.32947  23011494.131    23011494.0644   23011503.7104
        -0.000          -0.000
  -8846054.899 9  -6397905.69847  23456246.861    23456246.6684   23456255.9234
        -0.000          -0.000
  -4156818.209 9  -3221255.58445  24655900.747    24655900.3564   24655916.1224
        -0.000          -0.000
 99  4 11  2 30  0.0010000  0  8 17 26 23 22 21  6  3 29             0.001283114
     44451.942 9     36359.58848  21171493.882    21171493.3404   21171500.9644
        -0.000          -0.000
   5987667.613 9   4663758.44046  23158447.806    23158447.9414   23158456.1504
        -0.000          -0.000
   -186119.076 9    -77612.17849  21140391.641    21140391.1724   21140398.1134
        -0.000          -0.000
   5390837.571 9   4197379.13146  24632907.921    24632907.0334   24632919.5344
        -0.000          -0.000
  -7295246.008 9  -5672184.62648  22512577.730    22512577.2774   22512586.5834
        -0.000          -0.000
  10498126.296 9   8165388.71247  23031974.584    23031974.5154   23031983.9464
        -0.000          -0.000
  -8925724.546 9  -6459985.85147  23441086.129    23441085.9144   23441095.3214
        -0.000          -0.000
  -4258255.793 9  -3300297.40045  24636597.508    24636597.1894   24636612.8004
        -0.000          -0.000
 99  4 11  2 30 30.0010000  0  8 17 26 23 22 21  6  3 29             0.001287545
     58946.985 9     47654.46149  21174252.447    21174251.8704   21174259.3324
        -0.000          -0.000
   6069906.048 9   4727840.34946  23174096.965    23174097.1674   23174105.5494
        -0.000          -0.000
   -165456.448 9    -61511.40349  21144323.551    21144323.0804   21144330.0454
        -0.000          -0.000
   5455333.405 9   4247635.54546  24645180.824    24645180.0274   24645192.6774
        -0.000          -0.000
  -7337732.316 9  -5705290.73648  22504492.769    22504492.4644   22504501.7604
        -0.000          -0.000
  10605981.992 9   8249432.04547  23052499.178    23052499.0174   23052508.3044
        -0.000          -0.000
  -9005098.741 9  -6521835.78147  23425981.353    23425981.3614   23425990.9564
        -0.000          -0.000
  -4359690.587 8  -3379337.07645  24617294.575    24617294.3534   24617310.3454
        -0.000          -0.000
 99  4 11  2 31  0.0010000  0  8 17 26 23 22 21  6  3 29             0.001291977
     73699.290 9     59149.78449  21177059.857    21177059.2574   21177066.6534
        -0.000          -0.000
   6152575.824 9   4792258.35546  23189828.660    23189828.7954   23189837.0394
        -0.000          -0.000
   -144527.179 9    -45202.86049  21148306.296    21148305.8524   21148312.7914
        -0.000          -0.000
   5520051.696 9   4298065.27346  24657496.404    24657495.5514   24657508.1514
        -0.000          -0.000
  -7379969.452 9  -5738202.68848  22496455.600    22496455.0684   22496464.1654
        -0.000          -0.000
  10714063.115 9   8333651.01447  23073066.456    23073066.2694   23073075.7504
        -0.000          -0.000
  -9084149.831 9  -6583433.94947  23410938.143    23410938.3654   23410948.0174
        -0.000          -0.000
  -4461103.803 9  -3458359.92945  24597995.684    24597995.5934   24598011.8464
        -0.000          -0.000
 99  4 11  2 31 30.0010000  0  8 17 26 23 22 21  6  3 29             0.001296431
     88707.140 9     70844.24349  21179915.842    21179915.2104   21179922.5604
        -0.000          -0.000
   6235699.612 9   4857030.12846  23205646.719    23205646.8254   23205654.8634
        -0.000          -0.000
   -123326.311 9    -28682.67149  21152340.767    21152340.2994   21152347.1294
        -0.000          -0.000
   5585013.412 9   4348684.69446  24669858.655    24669857.6224   24669870.1304
        -0.000          -0.000
  -7421941.401 9  -5770907.99848  22488468.499    22488467.9284   22488477.0304
        -0.000          -0.000
  10822389.514 9   8418061.11247  23093680.117    23093680.0384   23093689.7264
        -0.000          -0.000
  -9162856.927 9  -6644764.07747  23395960.581    23395960.8934   23395970.3614
        -0.000          -0.000
  -4562473.106 9  -3537348.57745  24578705.464    24578705.3574   24578721.6754
        -0.000          -0.000
 99  4 11  2 32  0.0010000  0  8 17 26 23 22 21  6  3 29             0.001300911
    103945.515 9     82718.32749  21182815.567    21182814.9524   21182822.3764
        -0.000          -0.000
   6319277.476 9   4922155.72546  23221551.040    23221551.2454   23221559.0664
        -0.000          -0.000
   -101844.978 9    -11943.93849  21156428.611    21156428.1294   21156434.8954
        -0.000          -0.000
   5650211.890 9   4399488.61646  24682265.595    24682264.4254   24682277.0424
        -0.000          -0.000
  -7463656.493 9  -5803413.18848  22480529.812    22480529.5744   22480538.8024
        -0.000          -0.000
  10930978.223 9   8502675.62147  23114343.812    23114343.6834   23114353.6054
        -0.000          -0.000
  -9241219.572 9  -6705825.78047  23381049.002    23381048.9874   23381058.2514
        -0.000          -0.000
  -4663788.100 9  -3616294.89945  24559425.793    24559425.4744   24559441.6424
        -0.000          -0.000
 99  4 11  2 32 30.0010000  0  8 17 26 23 22 21  6  3 29             0.001305418
    119412.064 9     94770.20149  21185758.798    21185758.1554   21185765.6134
        -0.000          -0.000
   6403312.305 9   4987637.42746  23237542.419    23237542.5244   23237550.2124
        -0.000          -0.000
    -80084.899 9      5011.99549  21160569.478    21160568.9234   21160575.7004
        -0.000          -0.000
   5715626.015 9   4450460.55246  24694713.055    24694712.0874   24694724.7714
        -0.000          -0.000
  -7505131.297 9  -5835731.12048  22472637.431    22472637.0874   22472646.3574
        -0.000          -0.000
  11039848.107 9   8587509.24246  23135060.655    23135060.7314   23135071.0964
        -0.000          -0.000
  -9319234.891 9  -6766616.84447  23366203.341    23366203.2044   23366212.2974
        -0.000          -0.000
  -4765033.546 8  -3695187.03045  24540158.954    24540158.7724   24540174.6464
        -0.000          -0.000
 99  4 11  2 33  0.0010000  0  8 17 26 23 22 21  6  3 29             0.001309956
    135117.557 9    107008.27848  21188747.423    21188746.7964   21188754.2394
        -0.000          -0.000
   6487814.388 9   5053483.20246  23253622.546    23253622.6314   23253630.4294
        -0.000          -0.000
    -58027.656 9     22199.47749  21164766.744    21164766.2274   21164773.0084
        -0.000          -0.000
   5781258.766 9   4501602.84846  24707202.461    24707201.6004   24707214.2294
        -0.000          -0.000
  -7546340.785 9  -5867842.32348  22464795.431    22464795.0964   22464804.3624
        -0.000          -0.000
  11149020.224 9   8672578.35346  23155835.284    23155835.4594   23155845.9684
        -0.000          -0.000
  -9396903.532 9  -6827137.77247  23351423.612    23351423.4464   23351432.3484
        -0.000          -0.000
  -4866186.875 8  -3774007.39445  24520909.475    24520909.5284   24520925.0594
        -0.000          -0.000
 99  4 11  2 33 30.0010000  0  8 17 26 23 22 21  6  3 29             0.001314514
    151052.997 9    119425.54048  21191779.657    21191779.0274   21191786.5454
        -0.000          -0.000
   6572776.943 9   5119687.80546  23269790.738    23269790.6894   23269798.3974
        -0.000          -0.000
    -35670.794 9     39620.43849  21169021.037    21169020.5324   21169027.2794
        -0.000          -0.000
   5847104.607 9   4552911.19746  24719732.698    24719731.8654   24719744.3594
        -0.000          -0.000
  -7587271.916 9  -5899736.62148  22457006.484    22457006.1984   22457015.3414
        -0.000          -0.000
  11258494.350 9   8757882.77246  23176667.798    23176667.8264   23176678.0054
        -0.000          -0.000
  -9474244.976 9  -6887403.73247  23336706.082    23336705.9154   23336714.7564
        -0.000          -0.000
  -4967258.935 8  -3852764.47745  24501675.461    24501675.8534   24501691.0274
        -0.000          -0.000
 99  4 11  2 34  0.0010000  0  8 17 26 23 22 21  6  3 29             0.001319074
    167238.179 9    132037.39048  21194859.388    21194858.8554   21194866.4104
        -0.000          -0.000
   6658176.423 9   5186232.87946  23286041.649    23286041.5804   23286049.5394
        -0.000          -0.000
    -13017.754 9     57272.18549  21173331.621    21173331.1484   21173337.9474
        -0.000          -0.000
   5913145.680 9   4604371.68446  24732300.326    24732299.4744   24732311.8924
        -0.000          -0.000
  -7627923.552 9  -5931413.12948  22449271.013    22449270.5534   22449279.4834
        -0.000          -0.000
  11368255.046 9   8843410.49246  23197554.795    23197554.7864   23197564.5074
        -0.000          -0.000
  -9551250.270 9  -6947407.77547  23322052.475    23322052.3194   23322061.1314
        -0.000          -0.000
  -5068262.174 9  -3931467.88545  24482455.003    24482455.4594   24482470.2294
        -0.000          -0.000
 99  4 11  2 34 30.0010000  0  8 17 26 23 22 21  6  3 29             0.001323622
    183685.299 9    144853.34648  21197989.287    21197988.7084   21197996.2424
        -0.000          -0.000
   6743984.704 9   5253096.49446  23302370.166    23302370.1854   23302378.3024
        -0.000          -0.000
      9905.146 9     75134.21249  21177693.627    21177693.1384   21177700.0484
        -0.000          -0.000
   5979369.377 9   4655974.46846  24744902.860    24744901.8304   24744914.0164
        -0.000          -0.000
  -7668299.025 9  -5962874.44048  22441587.825    22441587.2834   22441596.0224
        -0.000          -0.000
  11478267.313 9   8929134.27446  23218489.610    23218489.6534   23218499.1434
        -0.000          -0.000
  -9627931.868 9  -7007159.58447  23307460.355    23307460.2514   23307469.1454
        -0.000          -0.000
  -5169210.835 9  -4010128.77945  24463245.209    24463245.4884   24463259.8724
        -0.000          -0.000
 99  4 11  2 35  0.0010000  0  8 17 26 23 22 21  6  3 29             0.001328151
    200378.366 9    157860.95748  21201165.820    21201165.2494   21201172.7504
        -0.000          -0.000
   6830193.738 9   5320272.35746  23318775.170    23318775.1974   23318783.5194
        -0.000          -0.000
     33102.084 9     93209.77149  21182107.697    21182107.2524   21182114.2894
        -0.000          -0.000
   6045775.962 9   4707719.72846  24757539.833    24757538.7624   24757550.7314
        -0.000          -0.000
  -7708405.979 9  -5994126.53548  22433955.450    22433955.0064   22433963.6314
        -0.000          -0.000
  11588513.353 9   9015040.20747  23239469.127    23239469.0704   23239478.5214
        -0.000          -0.000
  -9704300.751 9  -7066667.72347  23292927.726    23292927.6424   23292936.5944
        -0.000          -0.000
  -5270112.294 9  -4088752.90745  24444044.324    24444044.3814   24444058.5504
        -0.000          -0.000
 99  4 11  2 35 30.0010000  0  8 17 26 23 22 21  6  3 29             0.001332663
    217320.913 9    171062.97348  21204389.785    21204389.2474   21204396.8194
        -0.000          -0.000
   6916812.478 9   5387767.46946  23335258.424    23335258.3464   23335266.8544
        -0.000          -0.000
     56580.693 9    111504.82749  21186575.444    21186575.0094   21186582.0354
        -0.000          -0.000
   6112362.384 9   4759605.16246  24770210.591    24770209.5024   24770221.9664
        -0.000          -0.000
  -7748253.871 9  -6025176.76248  22426372.612    22426372.2064   22426380.6174
        -0.000          -0.000
  11698980.558 9   9101118.47847  23260490.535    23260490.5084   23260499.9874
        -0.000          -0.000
  -9780346.596 9  -7125924.15647  23278456.762    23278456.6604   23278465.4504
        -0.000          -0.000
  -5370970.041 9  -4167342.95946  24424851.383    24424851.3484   24424865.5824
        -0.000          -0.000
 99  4 11  2 36  0.0010000  0  8 17 26 23 22 21  6  3 29             0.001337188
    234572.742 9    184505.97649  21207672.732    21207672.1744   21207679.8684
        -0.000          -0.000
   7003886.597 9   5455617.42446  23351828.296    23351828.1354   23351836.6364
        -0.000          -0.000
     80381.363 9    130050.84049  21191104.481    21191104.0544   21191111.1494
        -0.000          -0.000
   6179164.037 9   4811658.30146  24782922.353    24782921.1914   24782934.1914
        -0.000          -0.000
  -7787813.146 9  -6056002.09448  22418844.749    22418844.2774   22418852.6674
        -0.000          -0.000
  11809698.204 9   9187391.87847  23281559.519    23281559.4924   23281569.0004
        -0.000          -0.000
  -9856031.625 9  -7184899.42047  23264054.525    23264054.2204   23264062.9594
        -0.000          -0.000
  -5471726.703 9  -4245854.25846  24405677.717    24405677.5024   24405691.8214
        -0.000          -0.000
 99  4 11  2 36 30.0010000  0  8 17 26 23 22 21  6  3 29             0.001341709
    252070.266 9    198140.42649  21211002.392    21211001.8194   21211009.5634
        -0.000          -0.000
   7091380.909 9   5523794.81246  23368477.733    23368477.7794   23368486.3674
        -0.000          -0.000
    104453.782 9    148808.59149  21195685.134    21195684.7734   21195692.1204
        -0.000          -0.000
   6246135.815 9   4863843.97546  24795666.536    24795665.5784   24795678.7104
        -0.000          -0.000
  -7827144.812 9  -6086650.05848  22411360.029    22411359.6494   22411368.0794
        -0.000          -0.000
  11920621.638 9   9273825.61847  23302667.712    23302667.6794   23302677.1204
        -0.000          -0.000
  -9931409.874 9  -7243635.63047  23249710.487    23249710.0514   23249718.8674
        -0.000          -0.000
  -5572409.027 9  -4324307.62746  24386518.119    24386517.9264   24386532.2764
        -0.000          -0.000
 99  4 11  2 37  0.0010000  0  8 17 26 23 22 21  6  3 29             0.001346220
    269802.598 9    211957.84248  21214376.751    21214376.1834   21214383.8084
        -0.000          -0.000
   7179284.491 9   5592291.08146  23385205.300    23385205.2694   23385213.8284
        -0.000          -0.000
    128806.696 9    167784.91649  21200319.374    21200319.0144   21200326.4324
        -0.000          -0.000
   6313273.167 9   4916158.65846  24808442.398    24808441.4334   24808454.7144
        -0.000          -0.000
  -7866262.190 9  -6117131.03348  22403916.213    22403915.8324   22403924.2364
        -0.000          -0.000
  12031751.596 9   9360420.27547  23323815.006    23323814.9294   23323824.6914
        -0.000          -0.000
 -10006477.379 9  -7302129.70647  23235425.391    23235424.9804   23235433.9274
        -0.000          -0.000
  -5673029.453 9  -4402712.77046  24367370.186    24367370.2114   24367384.5134
        -0.000          -0.000
 99  4 11  2 37 30.0010000  0  8 17 26 23 22 21  6  3 29             0.001350718
    287784.489 9    225969.72648  21217798.523    21217797.9044   21217805.5094
        -0.000          -0.000
   7267582.103 9   5661094.41346  23402007.397    23402007.4984   23402016.2204
        -0.000          -0.000
    153428.407 9    186970.70449  21205004.925    21205004.4914   21205011.8094
        -0.000          -0.000
   6380572.499 9   4968599.55546  24821249.068    24821248.1074   24821261.6294
        -0.000          -0.000
  -7905159.516 9  -6147440.54148  22396514.261    22396513.8074   22396522.1514
        -0.000          -0.000
  12143078.199 9   9447168.19246  23344999.373    23344999.3744   23345009.6844
        -0.000          -0.000
 -10081216.220 9  -7360367.70047  23221202.879    23221202.5064   23221211.4344
        -0.000          -0.000
  -5773588.321 9  -4481069.96546  24348234.328    24348234.2994   24348248.4984
        -0.000          -0.000
 99  4 11  2 38  0.0010000  0  8 17 26 23 22 21  6  3 29             0.001355214
    306018.208 9    240177.84548  21221268.168    21221267.5824   21221275.2984
        -0.000          -0.000
   7356263.599 9   5730196.91446  23418882.564    23418882.7854   23418891.5174
        -0.000          -0.000
    178305.698 9    206355.63449  21209738.982    21209738.5434   21209745.8324
        -0.000          -0.000
   6448041.825 9   5021172.92946  24834088.337    24834087.1494   24834100.8624
        -0.000          -0.000
  -7943834.681 9  -6177576.94648  22389154.370    22389154.0114   22389162.4294
        -0.000          -0.000
  12254617.507 9   9534081.83746  23366224.232    23366224.3104   23366234.9864
        -0.000          -0.000
 -10155604.854 9  -7418332.80547  23207047.130    23207046.7564   23207055.6584
        -0.000          -0.000
  -5874077.640 9  -4559372.96046  24329111.992    24329111.7964   24329125.7854
        -0.000          -0.000
 99  4 11  2 38 30.0010000  0  8 17 26 23 22 21  6  3 29             0.001359703
    324494.530 9    254574.99548  21224784.150    21224783.5584   21224791.2224
        -0.000          -0.000
   7445324.410 9   5799594.93146  23435829.944    23435830.2234   23435839.0184
        -0.000          -0.000
    203439.200 9    225940.19849  21214521.760    21214521.2934   21214528.7304
        -0.000          -0.000
   6515679.107 9   5073877.17846  24846959.515    24846958.3284   24846972.1084
        -0.000          -0.000
  -7982284.826 9  -6207538.01148  22381837.419    22381837.0974   22381845.5264
        -0.000          -0.000
  12366361.995 9   9621155.36646  23387488.529    23387488.5984   23387499.2494
        -0.000          -0.000
 -10229628.095 9  -7476013.17947  23192960.782    23192960.4684   23192969.4704
        -0.000          -0.000
  -5974518.725 9  -4637638.37446  24309998.672    24309998.4884   24310012.1764
        -0.000          -0.000
 99  4 11  2 39  0.0010000  0  8 17 26 23 22 21  6  3 29             0.001364189
    343231.546 9    269175.29148  21228349.721    21228349.1204   21228356.7004
        -0.000          -0.000
   7534770.730 9   5869293.32745  23452850.930    23452851.1694   23452859.7064
        -0.000          -0.000
    228828.657 9    245724.21849  21219353.186    21219352.7284   21219360.1524
        -0.000          -0.000
   6583486.005 9   5126713.64046  24859862.702    24859861.5864   24859875.4264
        -0.000          -0.000
  -8020494.059 9  -6237311.35948  22374566.530    22374566.1104   22374574.4374
        -0.000          -0.000
  12478313.772 9   9708390.43147  23408792.480    23408792.5004   23408803.1594
        -0.000          -0.000
 -10303276.830 9  -7533401.74147  23178945.696    23178945.5004   23178954.5904
        -0.000          -0.000
  -6074912.599 9  -4715867.00346  24290894.262    24290894.0044   24290907.4734
        -0.000          -0.000
 99  4 11  2 39 30.0010000  0  8 17 26 23 22 21  6  3 29             0.001368686
    362229.731 9    283979.09648  21231964.914    21231964.2974   21231971.8154
        -0.000          -0.000
   7624621.792 9   5939307.11145  23469949.242    23469949.4224   23469957.3134
        -0.000          -0.000
    254460.680 9    265697.25949  21224230.757    21224230.2814   21224237.6324
        -0.000          -0.000
   6651471.228 9   5179689.05046  24872799.535    24872798.6404   24872812.5444
        -0.000          -0.000
  -8058448.822 9  -6266886.42648  22367344.031    22367343.5404   22367351.7634
        -0.000          -0.000
  12590489.001 9   9795799.60647  23430139.042    23430139.0224   23430149.6474
        -0.000          -0.000
 -10376557.305 9  -7590503.34647  23165000.632    23165000.5244   23165009.6614
        -0.000          -0.000
  -6175236.639 9  -4794041.21446  24271802.959    24271802.5724   24271816.0824
        -0.000          -0.000
 99  4 11  2 40  0.0010000  0  8 17 26 23 22 21  6  3 29             0.001373187
    381490.454 9    298987.47048  21235630.052    21235629.4404   21235637.0464
        -0.000          -0.000
   7714874.797 9   6009634.12645  23487123.873    23487124.1034   23487131.5094
        -0.000          -0.000
    280342.800 9    285865.17649  21229155.924    21229155.4724   21229162.8984
        -0.000          -0.000
   6719622.036 9   5232793.44945  24885768.042    24885767.1534   24885781.0534
        -0.000          -0.000
  -8096141.702 9  -6296257.41648  22360171.154    22360170.7864   22360179.0484
        -0.000          -0.000
  12702911.600 9   9883401.54246  23451532.795    23451532.7114   23451543.0764
        -0.000          -0.000
 -10449487.470 9  -7647331.98947  23151122.304    23151122.2924   23151131.3444
        -0.000          -0.000
  -6275487.832 9  -4872158.68145  24252725.418    24252724.9094   24252738.5614
        -0.000          -0.000
 99  4 11  2 40 30.0010000  0  8 17 26 23 22 21  6  3 29             0.001377697
    401028.535 9    314211.97148  21239347.929    21239347.2964   21239355.0104
        -0.000          -0.000
   7805540.611 9   6080282.81045  23504377.342    23504377.4574   23504384.5604
        -0.000          -0.000
    306494.482 9    306243.13249  21234132.306    21234131.8964   21234139.4444
        -0.000          -0.000
   6787942.696 9   5286030.20745  24898769.118    24898768.0714   24898781.7954
        -0.000          -0.000
  -8133552.201 9  -6325408.38448  22353052.198    22353051.8244   22353060.1004
        -0.000          -0.000
  12815587.267 9   9971200.66846  23472974.529    23472974.5074   23472984.5964
        -0.000          -0.000
 -10522056.521 9  -7703879.23147  23137312.618    23137312.7024   23137321.7434
        -0.000          -0.000
  -6375639.295 9  -4950198.44445  24233666.536    24233666.0744   24233680.0014
        -0.000          -0.000
 99  4 11  2 41  0.0010000  0  8 17 26 23 22 21  6  3 29             0.001382198
    420810.554 9    329626.56749  21243112.312    21243111.7104   21243119.4074
        -0.000          -0.000
   7896580.149 9   6151222.69645  23521701.964    23521701.9444   23521708.6864
        -0.000          -0.000
    332883.410 9    326805.95949  21239153.938    21239153.5304   21239161.0674
        -0.000          -0.000
   6856403.887 9   5339376.49345  24911796.722    24911795.8724   24911809.3424
        -0.000          -0.000
  -8170707.302 9  -6354360.33448  22345982.017    22345981.4894   22345989.6564
        -0.000          -0.000
  12928500.692 9  10059185.06946  23494461.397    23494461.3634   23494471.3314
        -0.000          -0.000
 -10594293.355 9  -7760167.62247  23123566.532    23123566.6084   23123575.4484
        -0.000          -0.000
  -6475700.803 9  -5028168.12345  24214625.099    24214624.5354   24214638.6154
        -0.000          -0.000
 99  4 11  2 41 30.0010000  0  8 17 26 23 22 21  6  3 29             0.001386692
    440848.646 9    345240.69049  21246925.427    21246924.8104   21246932.5424
        -0.000          -0.000
   7987993.722 9   6222454.06945  23539097.566    23539097.5504   23539104.3114
        -0.000          -0.000
    359540.166 9    347577.48649  21244226.565    21244226.1484   21244233.5224
        -0.000          -0.000
   6925014.508 9   5392839.24745  24924853.063    24924852.1734   24924865.6474
        -0.000          -0.000
  -8207589.742 9  -6383099.80748  22338963.510    22338962.9384   22338971.0594
        -0.000          -0.000
  13041664.590 9  10147364.63846  23515995.771    23515995.7054   23516005.7794
        -0.000          -0.000
 -10666169.280 9  -7816174.77447  23109889.131    23109889.1264   23109897.7944
        -0.000          -0.000
  -6575650.468 9  -5106050.64345  24195604.812    24195604.0644   24195618.1844
        -0.000          -0.000
 99  4 11  2 42  0.0010000  0  8 17 26 23 22 21  6  3 29             0.001391178
    461145.164 9    361056.17049  21250787.803    21250787.2264   21250794.9114
        -0.000          -0.000
   8079767.877 8   6293966.39345  23556561.742    23556561.8314   23556568.9214
        -0.000          -0.000
    386462.575 9    368556.01749  21249349.808    21249349.3514   21249356.5084
        -0.000          -0.000
   6993764.162 9   5446410.33145  24937935.602    24937934.9174   24937948.7124
        -0.000          -0.000
  -8244220.065 9  -6411642.83348  22331992.876    22331992.2944   22332000.4244
        -0.000          -0.000
  13155051.156 9  10235717.73446  23537572.307    23537572.3884   23537582.5364
        -0.000          -0.000
 -10737656.030 9  -7871878.67947  23096285.705    23096285.6744   23096294.2834
        -0.000          -0.000
  -6675487.408 8  -5183845.34645  24176605.816    24176605.0364   24176619.1664
        -0.000          -0.000
 99  4 11  2 42 30.0010000  0  8 17 26 23 22 21  6  3 29             0.001395669
    481688.506 9    377063.98849  21254697.240    21254696.6194   21254704.2074
        -0.000          -0.000
   8171909.446 8   6365765.03245  23574095.497    23574095.7144   23574103.2334
        -0.000          -0.000
    413639.751 9    389733.06849  21254521.472    21254521.0114   21254528.0404
        -0.000          -0.000
   7062671.033 9   5500103.91245  24951048.095    24951047.6384   24951061.2784
        -0.000          -0.000
  -8280615.235 9  -6440002.61248  22325067.084    22325066.5084   22325074.5444
        -0.000          -0.000
  13268625.492 9  10324217.11646  23559184.804    23559184.9164   23559194.9234
        -0.000          -0.000
 -10808742.715 9  -7927270.82547  23082758.404    23082758.3194   23082766.9174
        -0.000          -0.000
  -6775214.353 9  -5261554.31045  24157627.439    24157627.0544   24157641.1394
        -0.000          -0.000
 99  4 11  2 43  0.0010000  0  8 17 26 23 22 21  6  3 29             0.001400175
    502482.075 9    393266.80549  21258654.208    21258653.5804   21258661.0664
        -0.000          -0.000
   8264429.111 8   6437858.32245  23591701.420    23591701.3964   23591709.7704
        -0.000          -0.000
    441078.303 9    411113.78149  21259742.778    21259742.2974   21259749.3634
        -0.000          -0.000
   7131738.469 9   5553922.62845  24964191.607    24964190.9404   24964204.2824
        -0.000          -0.000
  -8316783.170 9  -6468185.34448  22318184.618    22318183.9734   22318192.0484
        -0.000          -0.000
  13382397.438 9  10412870.45246  23580835.162    23580834.9784   23580844.8614
        -0.000          -0.000
 -10879424.828 9  -7982347.74047  23069308.071    23069307.9604   23069316.5004
        -0.000          -0.000
  -6874837.195 9  -5339182.16145  24138669.431    24138669.1884   24138683.0294
        -0.000          -0.000
 99  4 11  2 43 30.0010000  0  8 17 26 23 22 21  6  3 29             0.001404684
    523516.116 9    409656.99749  21262656.858    21262656.2394   21262663.7204
        -0.000          -0.000
   8357318.138 8   6510239.44445  23609377.316    23609377.3294   23609386.8204
        -0.000          -0.000
    468757.413 9    432681.94149  21265009.837    21265009.3904   21265016.5434
        -0.000          -0.000
   7200943.379 9   5607848.40645  24977360.787    24977360.2324   24977373.4194
        -0.000          -0.000
  -8352742.741 9  -6496205.70948  22311341.704    22311341.1504   22311349.1714
        -0.000          -0.000
  13496343.975 9  10501659.90546  23602518.245    23602518.0974   23602528.1304
        -0.000          -0.000
 -10949714.287 9  -8037118.66847  23055932.317    23055932.2404   23055940.7064
        -0.000          -0.000
  -6974373.199 9  -5416742.33045  24119728.216    24119727.9404   24119741.4704
        -0.000          -0.000
 99  4 11  2 44  0.0010000  0  8 17 26 23 22 21  6  3 29             0.001409210
    544799.290 9    426241.31349  21266706.864    21266706.2164   21266713.7394
        -0.000          -0.000
   8450590.598 8   6582919.33245  23627126.257    23627126.3404   23627136.1864
        -0.000          -0.000
    496667.769 9    454430.29749  21270321.015    21270320.5444   21270327.6554
        -0.000          -0.000
   7270289.263 9   5661884.08546  24990557.411    24990556.8364   24990569.6324
        -0.000          -0.000
  -8388495.075 9  -6524064.59248  22304538.243    22304537.6704   22304545.6524
        -0.000          -0.000
  13610468.318 9  10590587.89746  23624234.902    23624234.9434   23624245.5854
        -0.000          -0.000
 -11019609.045 9  -8091582.04147  23042631.747    23042631.6194   23042640.0064
        -0.000          -0.000
  -7073820.788 9  -5494233.60346  24100803.773    24100803.6314   24100816.9384
        -0.000          -0.000
 99  4 11  2 44 30.0010000  0  8 17 26 23 22 21  6  3 29             0.001413749
    566346.820 9    443031.61048  21270807.041    21270806.4474   21270813.9634
        -0.000          -0.000
   8544257.075 8   6655906.20845  23644950.235    23644949.9204   23644959.6494
        -0.000          -0.000
    524824.680 9    476370.76949  21275679.110    21275678.6544   21275685.6984
        -0.000          -0.000
   7339771.333 9   5716025.91546  25003780.092    25003778.9744   25003791.7804
        -0.000          -0.000
  -8424024.787 9  -6551750.00948  22297776.800    22297776.3414   22297784.4704
        -0.000          -0.000
  13724782.206 9  10679663.59146  23645988.353    23645988.3934   23645999.2224
        -0.000          -0.000
 -11089122.252 9  -8145748.09047  23029403.557    23029403.4964   23029412.0034
        -0.000          -0.000
  -7173174.753 9  -5571651.90546  24081897.302    24081897.1104   24081910.4704
        -0.000          -0.000
 99  4 11  2 45  0.0010000  0  8 17 26 23 22 21  6  3 29             0.001418292
    588179.659 9    460044.24048  21274961.528    21274960.9814   21274968.4484
        -0.000          -0.000
   8638314.787 8   6729197.84445  23662849.006    23662848.7094   23662858.2434
        -0.000          -0.000
    553229.978 9    498504.78749  21281084.555    21281084.0924   21281091.0634
        -0.000          -0.000
   7409369.071 9   5770257.82646  25017023.812    25017022.8464   25017036.0784
        -0.000          -0.000
  -8459316.208 9  -6579249.74848  22291060.889    22291060.4604   22291068.7614
        -0.000          -0.000
  13839293.370 9  10768892.96346  23667779.716    23667779.5564   23667790.4264
        -0.000          -0.000
 -11158250.854 9  -8199614.45647  23016248.415    23016248.5034   23016257.1894
        -0.000          -0.000
  -7272419.992 9  -5648985.49246  24063011.372    24063011.2344   24063024.7064
        -0.000          -0.000
 99  4 11  2 45 30.0010000  0  8 17 26 23 22 21  6  3 29             0.001422832
    610311.990 9    477290.24448  21279173.102    21279172.5754   21279180.0364
        -0.000          -0.000
   8732752.389 8   6802785.52045  23680819.993    23680820.0204   23680828.6784
        -0.000          -0.000
    581877.317 9    520827.41649  21286536.110    21286535.5984   21286542.5214
        -0.000          -0.000
   7479083.754 8   5824580.89345  25030289.336    25030288.8524   25030302.6944
        -0.000          -0.000
  -8494360.763 9  -6606557.12248  22284392.025    22284391.6574   22284400.0764
        -0.000          -0.000
  13953984.775 9  10858262.79146  23689605.260    23689604.9484   23689615.7444
        -0.000          -0.000
 -11227001.260 9  -8253186.09847  23003165.552    23003165.6404   23003174.3534
        -0.000          -0.000
  -7371548.230 9  -5726227.92246  24044147.816    24044147.7534   24044160.9304
        -0.000          -0.000
 99  4 11  2 46  0.0010000  0  8 17 26 23 22 21  6  3 29             0.001427369
    632754.194 9    494777.70348  21283443.794    21283443.2294   21283450.6684
        -0.000          -0.000
   8827561.462 8   6876662.69945  23698861.903    23698861.9084   23698870.3394
        -0.000          -0.000
    610764.677 9    543337.07649  21292033.167    21292032.6724   21292039.5864
        -0.000          -0.000
   7548917.554 8   5878996.77445  25043577.514    25043577.4324   25043591.6724
        -0.000          -0.000
  -8529163.136 9  -6633675.76648  22277769.448    22277769.0314   22277777.3934
        -0.000          -0.000
  14068857.817 9  10947774.15646  23711464.899    23711464.5454   23711475.4114
        -0.000          -0.000
 -11295376.150 9  -8306465.14047  22990154.284    22990154.2584   22990162.9234
        -0.000          -0.000
  -7470560.628 9  -5803380.07146  24025306.548    24025306.3674   24025319.0134
        -0.000          -0.000
 99  4 11  2 46 30.0010000  0  8 17 26 23 22 21  6  3 29             0.001431907
    655516.863 9    512514.87248  21287775.395    21287774.7904   21287782.1984
        -0.000          -0.000
   8922742.557 8   6950829.69145  23716974.789    23716974.9384   23716982.5054
        -0.000          -0.000
    639911.308 9    566048.76149  21297579.542    21297579.0334   21297586.0194
        -0.000          -0.000
   7618891.896 9   5933522.16445  25056893.105    25056893.1234   25056907.2194
        -0.000          -0.000
  -8563697.170 9  -6660585.32148  22271197.756    22271197.2324   22271205.6454
        -0.000          -0.000
  14183930.888 9  11037441.41746  23733362.327    23733362.1254   23733372.9584
        -0.000          -0.000
 -11363367.304 9  -8359445.18047  22977215.986    22977215.9044   22977224.3014
        -0.000          -0.000
  -7569440.357 9  -5880428.85446  24006490.300    24006490.0434   24006502.3124
        -0.000          -0.000
 99  4 11  2 47  0.0010000  0  8 17 26 23 22 21  6  3 29             0.001436436
    678562.341 9    530472.41048  21292160.654    21292160.0754   21292167.4904
        -0.000          -0.000
   9018270.772 8   7025267.25545  23735153.156    23735153.4554   23735161.2804
        -0.000          -0.000
    669296.343 9    588946.21549  21303171.140    21303170.6624   21303177.7704
        -0.000          -0.000
   7688992.476 9   5988145.86245  25070233.169    25070233.0984   25070246.7804
        -0.000          -0.000
  -8597976.013 9  -6687296.03348  22264674.268    22264673.9674   22264682.5224
        -0.000          -0.000
  14299196.826 9  11127258.92846  23755296.869    23755296.7004   23755307.2564
        -0.000          -0.000
 -11430985.514 9  -8412134.59947  22964348.768    22964348.5324   22964356.6964
        -0.000          -0.000
  -7668206.576 9  -5957389.20546  23987695.341    23987695.2554   23987707.4254
        -0.000          -0.000
 99  4 11  2 47 30.0010000  0  8 17 26 23 22 21  6  3 29             0.001440966
    701874.275 9    548637.57848  21296596.682    21296596.1234   21296603.5144
        -0.000          -0.000
   9114150.242 8   7099978.56144  23753398.188    23753398.6164   23753406.6894
        -0.000          -0.000
    698916.397 9    612026.80249  21308807.592    21308807.0804   21308814.2294
        -0.000          -0.000
   7759232.659 9   6042878.36145  25083599.655    25083599.5854   25083613.0854
        -0.000          -0.000
  -8631998.879 9  -6713807.27648  22258200.053    22258199.6594   22258208.0754
        -0.000          -0.000
  14414674.902 9  11217241.76146  23777271.624    23777271.5084   23777281.7174
        -0.000          -0.000
 -11498224.513 9  -8464528.53147  22951553.538    22951553.3404   22951561.3244
        -0.000          -0.000
  -7766865.423 9  -6034265.90146  23968920.589    23968920.6334   23968933.1864
        -0.000          -0.000
 99  4 11  2 48  0.0010000  0  8 17 26 23 22 21  6  3 29             0.001445511
    725435.227 9    566996.79648  21301080.221    21301079.6794   21301086.9884
        -0.000          -0.000
   9210388.940 8   7174969.75744  23771712.122    23771712.0664   23771720.3314
        -0.000          -0.000
    728775.825 9    635293.91849  21314489.450    21314489.0074   21314496.1704
        -0.000          -0.000
   7829615.024 9   6097721.70045  25096993.186    25096992.8934   25097006.5164
        -0.000          -0.000
  -8665761.013 9  -6740115.33748  22251775.519    22251774.9374   22251783.1544
        -0.000          -0.000
  14530365.409 9  11307390.12946  23799286.572    23799286.6964   23799296.6914
        -0.000          -0.000
 -11565068.694 9  -8516614.80947  22938833.365    22938833.1474   22938841.0804
        -0.000          -0.000
  -7865407.972 9  -6111051.96946  23950167.987    23950168.0454   23950180.8804
        -0.000          -0.000
 99  4 11  2 48 30.0010000  0  8 17 26 23 22 21  6  3 29             0.001450067
    749232.978 9    585540.53048  21305608.876    21305608.3044   21305615.5144
        -0.000          -0.000
   9306985.886 8   7250240.05444  23790093.795    23790093.7904   23790102.3054
        -0.000          -0.000
    758874.229 9    658747.25149  21320216.847    21320216.4614   21320223.5924
        -0.000          -0.000
   7900130.167 9   6152668.45745  25110411.857    25110411.5044   25110425.4984
        -0.000          -0.000
  -8699253.152 9  -6766213.02948  22245402.092    22245401.5094   22245409.6864
        -0.000          -0.000
  14646254.098 9  11397692.91746  23821339.499    23821339.5794   23821349.5704
        -0.000          -0.000
 -11631511.514 9  -8568388.34947  22926189.663    22926189.3904   22926197.3414
        -0.000          -0.000
  -7963826.655 9  -6187741.52246  23931439.245    23931439.3304   23931451.9364
        -0.000          -0.000
 99  4 11  2 49  0.0010000  0  8 17 26 23 22 21  6  3 29             0.001454636
    773269.446 9    604270.26448  21310182.909    21310182.3484   21310189.5124
        -0.000          -0.000
   9403938.200 8   7325787.31545  23808543.260    23808543.3484   23808551.5464
        -0.000          -0.000
    789189.231 9    682369.35849  21325985.549    21325985.1684   21325992.2824
        -0.000          -0.000
   7970757.946 9   6207702.99846  25123852.114    25123851.6394   25123865.9144
        -0.000          -0.000
  -8732500.107 9  -6792119.66348  22239075.440    22239074.8094   22239082.9994
        -0.000          -0.000
  14762321.454 9  11488134.92446  23843426.683    23843426.5494   23843436.5354
        -0.000          -0.000
 -11697550.323 9  -8619847.07347  22913622.732    22913622.4994   22913630.5094
        -0.000          -0.000
  -8062115.860 9  -6264330.19046  23912735.331    23912735.4584   23912747.5144
        -0.000          -0.000
 99  4 11  2 49 30.0010000  0  8 17 26 23 22 21  6  3 29             0.001459218
    797579.508 9    623213.19848  21314809.010    21314808.4054   21314815.6104
        -0.000          -0.000
   9501243.085 8   7401609.31545  23827059.531    23827059.7404   23827067.7174
        -0.000          -0.000
    819731.476 9    706168.53849  21331797.575    21331797.2144   21331804.3194
        -0.000          -0.000
   8041506.402 9   6262831.61045  25137315.353    25137314.7894   25137329.0104
        -0.000          -0.000
  -8765504.209 9  -6817837.05448  22232794.903    22232794.2574   22232802.2854
        -0.000          -0.000
  14878556.464 9  11578707.58346  23865545.379    23865545.2674   23865555.4154
        -0.000          -0.000
 -11763169.785 9  -8670979.03447  22901135.402    22901135.3544   22901143.4424
        -0.000          -0.000
  -8160251.868 9  -6340799.49446  23894060.517    23894060.6674   23894072.5224
        -0.000          -0.000
 99  4 11  2 50  0.0010000  0  8 17 26 23 22 21  6  3 29             0.001463815
    822207.340 9    642403.75249  21319495.598    21319494.9814   21319502.2504
        -0.000          -0.000
   9598909.442 8   7477712.98845  23845644.508    23845644.8944   23845652.5554
        -0.000          -0.000
    850534.502 9    730170.93149  21337659.337    21337658.8764   21337665.9614
        -0.000          -0.000
   8112388.136 9   6318064.03245  25150803.574    25150803.1714   25150817.3284
        -0.000          -0.000
  -8798253.261 9  -6843355.70848  22226562.877    22226562.3014   22226570.0824
        -0.000          -0.000
  14994966.072 9  11669416.29146  23887696.942    23887697.0434   23887707.7224
        -0.000          -0.000
 -11828344.591 9  -8721764.50447  22888732.761    22888732.8814   22888740.9484
        -0.000          -0.000
  -8258200.822 9  -6417123.03546  23875421.056    23875421.3014   23875433.2044
        -0.000          -0.000
 99  4 11  2 50 30.0010000  0  8 17 26 23 22 21  6  3 29             0.001468419
    847143.676 9    661834.69448  21324240.767    21324240.1464   21324247.4454
        -0.000          -0.000
   9696912.536 8   7554079.04745  23864294.087    23864294.3314   23864301.7304
        -0.000          -0.000
    881570.573 9    754354.90149  21343565.164    21343564.7184   21343571.8834
        -0.000          -0.000
   8183374.268 9   6373377.77145  25164312.323    25164311.6484   25164325.4334
        -0.000          -0.000
  -8830780.504 9  -6868701.54348  22220373.098    22220372.5964   22220380.3354
        -0.000          -0.000
  15111537.893 9  11760251.37446  23909879.804    23909879.8944   23909890.8294
        -0.000          -0.000
 -11893099.773 9  -8772223.00347  22876410.105    22876410.3114   22876418.3594
        -0.000          -0.000
  -8355980.162 9  -6493314.40646  23856813.849    23856814.1124   23856826.3504
        -0.000          -0.000
 99  4 11  2 51  0.0010000  0  8 17 26 23 22 21  6  3 29             0.001473017
    872374.075 9    681494.75748  21329041.783    21329041.1924   21329048.4354
        -0.000          -0.000
   9795232.607 8   7630692.11745  23883004.080    23883004.3904   23883011.4184
        -0.000          -0.000
    912831.356 9    778713.97749  21349513.790    21349513.4294   21349520.5764
        -0.000          -0.000
   8254454.781 9   6428765.08245  25177839.209    25177838.3434   25177851.3544
        -0.000          -0.000
  -8863113.155 9  -6893895.74748  22214220.452    22214219.8864   22214227.5454
        -0.000          -0.000
  15228255.143 9  11851199.78946  23932090.730    23932090.6384   23932101.3754
        -0.000          -0.000
 -11957453.920 9  -8822369.02347  22864163.746    22864164.0984   22864172.2444
        -0.000          -0.000
  -8453600.521 9  -6569381.90846  23838236.877    23838237.1634   23838249.6564
        -0.000          -0.000
 99  4 11  2 51 30.0010000  0  8 17 26 23 22 21  6  3 29             0.001477604
    897891.181 9    701378.24248  21333897.435    21333896.8804   21333904.1224
        -0.000          -0.000
   9893862.372 8   7707546.51045  23901772.729    23901773.0884   23901779.4824
        -0.000          -0.000
    944322.721 9    803252.73549  21355506.462    21355506.0214   21355513.0834
        -0.000          -0.000
   8325632.645 9   6484228.25845  25191384.487    25191383.5774   25191396.0244
        -0.000          -0.000
  -8895235.293 9  -6918925.90648  22208107.509    22208107.0584   22208114.7414
        -0.000          -0.000
  15345106.442 9  11942252.63846  23954327.210    23954327.0044   23954337.6304
        -0.000          -0.000
 -12021399.373 9  -8872196.56647  22851995.454    22851995.6934   22852003.9614
        -0.000          -0.000
  -8551081.978 9  -6645341.18546  23819686.239    23819686.5954   23819699.1764
        -0.000          -0.000
 99  4 11  2 52  0.0010000  0  8 17 26 23 22 21  6  3 29             0.001482198
    923697.431 9    721487.05148  21338808.237    21338807.6514   21338814.9544
        -0.000          -0.000
   9992830.966 8   7784664.89644  23920605.358    23920606.2494   23920611.4134
        -0.000          -0.000
    976049.621 9    827975.01749  21361543.844    21361543.3924   21361550.4874
        -0.000          -0.000
   8396921.601 9   6539778.03045  25204950.472    25204949.5764   25204962.2304
        -0.000          -0.000
  -8927126.068 9  -6943775.79848  22202038.426    22202038.2194   22202046.0484
        -0.000          -0.000
  15462111.224 9  12033425.08446  23976592.751    23976592.5594   23976603.0704
        -0.000          -0.000
 -12084918.876 9  -8921692.20247  22839908.178    22839908.3604   22839916.7694
        -0.000          -0.000
  -8648414.559 9  -6721184.43946  23801164.052    23801164.4484   23801176.9244
        -0.000          -0.000
 99  4 11  2 52 30.0010000  0  8 17 26 23 22 21  6  3 29             0.001486799
    949773.873 9    741806.38848  21343770.417    21343769.8654   21343777.2064
        -0.000          -0.000
  10092135.617 7   7862045.10154  23939501.882    23939502.7384          0.0005
        -0.000          -0.000
   1008002.235 9    852873.18249  21367624.138    21367623.7124   21367630.8914
        -0.000          -0.000
   8468314.407 8   6595408.71645  25218535.950    25218534.9134   25218548.2834
        -0.000          -0.000
  -8958778.842 9  -6968440.22448  22196014.895    22196014.7594   22196022.7194
        -0.000          -0.000
  15579260.688 9  12124710.28446  23998885.644    23998885.4974   23998895.9494
        -0.000          -0.000
 -12148007.160 9  -8970851.82847  22827902.889    22827903.0924   22827911.5614
        -0.000          -0.000
  -8745602.720 9  -6796915.14746  23782669.005    23782669.5624   23782682.1564
        -0.000          -0.000
 99  4 11  2 53  0.0010000  0  8 17 26 23 22 21  6  3 29             0.001491395
    976123.000 9    762338.20849  21348784.588    21348784.0244   21348791.2994
        -0.000          -0.000
  10191760.706 7   7939675.03754  23958459.199    23958460.6124          0.0005
        -0.000          -0.000
   1040186.677 9    877951.99549  21373748.564    21373748.1124   21373755.3454
        -0.000          -0.000
   8539797.505 9   6651109.73845  25232138.141    25232137.3354   25232151.5354
        -0.000          -0.000
  -8990181.365 9  -6992909.65148  22190039.174    22190038.9964   22190047.0404
        -0.000          -0.000
  15696545.319 9  12216100.80346  24021204.363    24021204.1264   24021214.4654
        -0.000          -0.000
 -12210652.903 9  -9019666.60547  22815981.876    22815981.9244   22815990.4524
        -0.000          -0.000
  -8842655.495 9  -6872540.37146  23764200.307    23764200.8364   23764213.0504
        -0.000          -0.000
 99  4 11  2 53 30.0010000  0  8 17 26 23 22 21  6  3 29             0.001495986
   1002750.824 9    783087.18749  21353851.692    21353851.1164   21353858.4744
        -0.000          -0.000
  10291699.84918   8017549.68254  23977476.965    23977478.0285   23977484.4415
        -0.000          -0.000
   1072592.203 9    903203.09049  21379915.077    21379914.6634   21379921.9054
        -0.000          -0.000
   8611354.223 9   6706868.11645  25245754.800    25245754.2484   25245768.6084
        -0.000          -0.000
  -9021332.113 9  -7017182.89348  22184111.338    22184111.1204   22184119.3004
        -0.000          -0.000
  15813971.273 9  12307601.45546  24043550.218    24043549.8174   24043559.8364
        -0.000          -0.000
 -12272860.128 9  -9068139.68647  22804144.132    22804144.2104   22804152.8164
        -0.000          -0.000
  -8939578.067 9  -6948064.13246  23745756.983    23745757.2344   23745768.6864
        -0.000          -0.000
 99  4 11  2 54  0.0010000  0  8 17 26 23 22 21  6  3 29             0.001500573
   1029667.203 9    804061.00649  21358973.630    21358973.0514   21358980.6144
        -0.000          -0.000
  10391957.428 8   8095672.51954  23996555.474    23996556.5694   23996564.0795
        -0.000          -0.000
   1105229.629 9    928634.88049  21386125.915    21386125.4144   21386132.6584
        -0.000          -0.000
   8682979.768 9   6762680.09345  25259384.918    25259384.2524   25259398.7144
        -0.000          -0.000
  -9052226.808 9  -7041256.61048  22178232.284    22178232.0204   22178240.2444
        -0.000          -0.000
  15931574.335 9  12399240.09846  24065929.559    24065929.1344   24065938.9174
        -0.000          -0.000
 -12334629.157 9  -9116271.31847  22792389.834    22792389.9174   22792398.6064
        -0.000          -0.000
  -9036341.453 9  -7023463.83446  23727343.411    23727343.5034   23727354.8914
        -0.000          -0.000
 99  4 11  2 54 30.0010000  0  8 17 26 23 22 21  6  3 29             0.001505150
   1056887.650 9    825271.76748  21364153.408    21364152.8354   21364160.5454
        -0.000          -0.000
  10492524.417 7   8174036.39044  24015692.702    24015693.7304   24015702.3114
        -0.000          -0.000
   1138115.641 9    954260.36149  21392383.912    21392383.4014   21392390.6284
        -0.000          -0.000
   8754672.606 9   6818544.51945  25273028.057    25273027.1474   25273041.4754
        -0.000          -0.000
  -9082851.471 9  -7065119.91648  22172404.603    22172404.2444   22172412.5484
        -0.000          -0.000
  16049355.545 9  12491017.54945  24088342.734    24088342.2274   24088351.7394
        -0.000          -0.000
 -12395947.530 9  -9164051.79147  22780721.274    22780721.3454   22780730.1844
        -0.000          -0.000
  -9132946.051 9  -7098739.85546  23708959.606    23708959.9594   23708971.3334
        -0.000          -0.000
 99  4 11  2 55  0.0010000  0  8 17 26 23 22 21  6  3 29             0.001509712
   1084411.194 9    846718.70848  21369390.928    21369390.3594   21369397.9864
        -0.000          -0.000
  10593388.653 7   8252631.85544  24034886.082    24034887.1864   24034896.2914
        -0.000          -0.000
   1171238.771 9    980070.62749  21398686.984    21398686.5174   21398693.6394
        -0.000          -0.000
   8826428.700 9   6874458.26045  25286682.913    25286681.8754   25286696.3674
        -0.000          -0.000
  -9113224.136 9  -7088786.86048  22166624.774    22166624.4554   22166632.8424
        -0.000          -0.000
  16167307.203 9  12582927.85345  24110788.246    24110787.7794   24110796.9434
        -0.000          -0.000
 -12456830.863 9  -9211493.26547  22769135.449    22769135.5264   22769144.5014
        -0.000          -0.000
  -9229405.209 9  -7173902.53946  23690603.899    23690604.2164   23690615.4254
        -0.000          -0.000
 99  4 11  2 55 30.0010000  0  8 17 26 23 22 21  6  3 29             0.001514267
   1112215.846 9    868384.69848  21374681.951    21374681.3374   21374688.8634
        -0.000          -0.000
  10694546.530 7   8331456.17244  24054136.316    24054136.7684   24054145.5894
        -0.000          -0.000
   1204576.892 9   1006048.41149  21405031.158    21405030.5864   21405037.6304
        -0.000          -0.000
   8898244.588 8   6930418.59645  25300348.850    25300347.9944   25300362.4774
        -0.000          -0.000
  -9143366.944 9  -7112274.70248  22160888.790    22160888.4664   22160896.7914
        -0.000          -0.000
  16285422.344 9  12674965.51645  24133264.872    24133264.3304   24133273.5124
        -0.000          -0.000
 -12517296.520 9  -9258609.29047  22757629.265    22757629.2814   22757638.2204
        -0.000          -0.000
  -9325716.138 9  -7248949.70546  23672276.404    23672276.6044   23672287.8044
        -0.000          -0.000
 99  4 11  2 56  0.0010000  0  9 17 26 23 22 21  6  3 29  1          0.001518826
   1140308.090 9    890274.77548  21380027.560    21380027.0154   21380034.4634
        -0.000          -0.000
  10796013.578 8   8410521.40544  24073445.107    24073445.3494   24073453.7854
        -0.000          -0.000
   1238138.579 9   1032200.40549  21411417.842    21411417.2344   21411424.1494
        -0.000          -0.000
   8970137.471 8   6986438.95545  25314029.481    25314028.6534   25314043.3104
        -0.000          -0.000
  -9173263.404 9  -7135570.57848  22155199.742    22155199.3154   22155207.5774
        -0.000          -0.000
  16403695.503 9  12767126.33246  24155771.312    24155770.8494   24155780.4084
        -0.000          -0.000
 -12577320.113 9  -9305380.84847  22746207.093    22746207.0994   22746215.9774
        -0.000          -0.000
  -9421855.397 9  -7323863.14046  23653981.233    23653981.6604   23653992.9924
        -0.000          -0.000
   -271439.91218   -199938.99252         0.000           0.0005          0.0005
        -0.000          -0.000
 99  4 11  2 56 30.0010000  0  9 17 26 23 22 21  6  3 29  1          0.001523386
   1168685.944 9    912387.41048  21385427.676    21385427.1074   21385434.4384
        -0.000          -0.000
  10897779.882 7   8489819.78744  24092811.087    24092811.4864   24092818.5964
        -0.000          -0.000
   1271911.232 9   1058516.80049  21417844.619    21417843.9754   21417850.8094
        -0.000          -0.000
   9042110.220 8   7042521.53245  25327725.286    25327724.7314   25327739.0754
        -0.000          -0.000
  -9202926.996 9  -7158684.99748  22149554.779    22149554.3734   22149562.7074
        -0.000          -0.000
  16522086.264 9  12859378.79546  24178300.115    24178299.7324   24178309.7324
        -0.000          -0.000
 -12636901.262 9  -9351807.64447  22734869.069    22734869.1284   22734877.8634
        -0.000          -0.000
  -9517827.556 9  -7398646.36646  23635718.004    23635718.4834   23635729.8434
        -0.000          -0.000
   -375221.64418    -31723.70752         0.000           0.0005          0.0005
        -0.000          -0.000
 99  4 11  2 57  0.0010000  0  9 17 26 23 22 21  6  3 29  1          0.001527958
   1197353.674 9    934725.92248  21390882.959    21390882.4104   21390889.5994
        -0.000          -0.000
  10999858.083 7   8569361.17244  24112235.577    24112236.1864   24112243.6844
        -0.000          -0.000
   1305895.388 9   1084997.99449  21424311.515    21424310.8884   21424317.6964
        -0.000          -0.000
   9114175.547 9   7098676.26445  25341438.730    25341438.4274   25341452.7844
        -0.000          -0.000
  -9232355.543 9  -7181616.27148  22143954.511    22143954.1104   22143962.4094
        -0.000          -0.000
  16640608.957 9  12951734.06646  24200854.136    24200853.8184   24200864.1384
        -0.000          -0.000
 -12696041.354 9  -9397890.76347  22723614.931    22723615.0594   22723623.6944
        -0.000          -0.000
  -9613599.898 9  -7473273.89246  23617493.110    23617493.4104   23617504.6924
        -0.000          -0.000
   -479026.986 8   -112609.53752         0.000           0.0004          0.0005
        -0.000          -0.000
 99  4 11  2 57 30.0010000  0  9 17 26 23 22 21  6  3 29  1          0.001532550
   1226313.890 9    957292.35448  21396393.854    21396393.3054   21396400.4184
        -0.000          -0.000
  11102255.802 7   8649151.55744  24131721.423    24131722.1284   24131729.4914
        -0.000          -0.000
   1340087.146 9   1111640.94749  21430817.850    21430817.3144   21430824.2034
        -0.000          -0.000
   9186325.691 8   7154897.02945  25355168.655    25355168.4224   25355182.6394
        -0.000          -0.000
  -9261547.659 9  -7204363.31048  22138399.318    22138398.9454   22138407.0624
        -0.000          -0.000
  16759258.160 9  13044187.89446  24223432.481    24223432.2364   24223442.6694
        -0.000          -0.000
 -12754738.105 9  -9443628.43347  22712445.282    22712445.3814   22712453.8664
        -0.000          -0.000
  -9709149.214 9  -7547727.64046  23599310.686    23599310.9674   23599321.9774
        -0.000          -0.000
   -582824.045 8   -193487.96852         0.000           0.0004          0.0005
        -0.000          -0.000
 99  4 11  2 58  0.0010000  0  9 17 26 23 22 21  6  3 29  1          0.001537145
   1255571.638 9    980090.61348  21401961.393    21401960.8714   21401968.0604
        -0.000          -0.000
  11204955.628 7   8729177.37254  24151264.637    24151264.9964   24151273.1135
        -0.000          -0.000
   1374485.455 9   1138444.86349  21437363.629    21437363.1024   21437370.0334
        -0.000          -0.000
   9258547.177 8   7211173.42745  25368912.413    25368912.0974   25368925.8354
        -0.000          -0.000
  -9290510.720 9  -7226931.85748  22132887.987    22132887.5114   22132895.5564
        -0.000          -0.000
  16878015.964 9  13136726.35546  24246031.566    24246031.3014   24246041.7804
        -0.000          -0.000
 -12812994.193 9  -9489022.71647  22701359.576    22701359.5264   22701367.9644
        -0.000          -0.000
  -9804493.580 9  -7622021.67846  23581167.313    23581167.4784   23581178.1664
        -0.000          -0.000
   -686606.07218    -24979.51552         0.000           0.0005          0.0005
        -0.000          -0.000
 99  4 11  2 58 30.0010000  0  9 17 26 23 22 21  6  3 29  1          0.001541789
   1285144.320 9   1003134.26248  21407588.853    21407588.3354   21407595.5404
        -0.000          -0.000
  11307974.08318   8809451.47454  24170867.997    24170868.2165   24170876.7795
        -0.000          -0.000
   1409109.715 9   1165424.84049  21443952.369    21443951.8514   21443958.8074
        -0.000          -0.000
   9330849.148 8   7267512.48045  25382671.306    25382670.9034   25382684.4654
        -0.000          -0.000
  -9319245.577 9  -7249322.57748  22127419.986    22127419.5064   22127427.4604
        -0.000          -0.000
  16996907.152 9  13229368.74846  24268655.894    24268655.7194   24268666.2294
        -0.000          -0.000
 -12870799.239 9  -9534065.54847  22690359.699    22690359.6514   22690368.0724
        -0.000          -0.000
  -9899627.004 9  -7696151.33646  23563063.777    23563064.0114   23563074.5354
        -0.000          -0.000
   -790350.495 8   -105787.91052         0.000           0.0004          0.0005
        -0.000          -0.000
 99  4 11  2 59  0.0010000  0  9 17 26 23 22 21  6  3 29  1          0.001546434
   1315033.134 9   1026424.26148  21413276.599    21413276.0674   21413283.1434
        -0.000          -0.000
  11411334.884 7   8889992.37054  24190537.342    24190537.3104          0.0005
        -0.000          -0.000
   1443962.406 9   1192582.82549  21450584.645    21450584.1404   21450591.0564
        -0.000          -0.000
   9403231.821 8   7323914.47645  25396445.183    25396444.9974   25396458.2944
        -0.000          -0.000
  -9347737.777 9  -7271524.20448  22121998.171    22121997.6204   22122005.5214
        -0.000          -0.000
  17115955.933 9  13322133.93946  24291310.355    24291310.1154   24291320.6134
        -0.000          -0.000
 -12928142.063 9  -9578748.19347  22679448.023    22679447.7654   22679456.2354
        -0.000          -0.000
  -9994538.639 9  -7770108.17946  23545002.457    23545002.6244   23545013.2454
        -0.000          -0.000
   -894041.866 9   -186519.17152         0.000           0.0004          0.0005
        -0.000          -0.000
 99  4 11  2 59 30.0010000  0  9 17 26 23 22 21  6  3 29  1          0.001551086
   1345208.265 9   1049937.37148  21419018.722    21419018.1824   21419025.3064
        -0.000          -0.000
  11514995.139 7   8970766.57454  24210264.329    24210264.7694          0.0005
        -0.000          -0.000
   1479003.206 9   1219887.37449  21457252.615    21457252.1144   21457259.0504
        -0.000          -0.000
   9475647.753 9   7380342.40145  25410225.516    25410225.3274   25410238.2624
        -0.000          -0.000
  -9376025.303 9  -7293566.36348  22116615.083    22116614.5464   22116622.5504
        -0.000          -0.000
  17235116.338 9  13414986.07646  24313986.430    24313986.0174   24313996.0254
        -0.000          -0.000
 -12985046.703 9  -9623089.38647  22668619.738    22668619.3214   22668627.8234
        -0.000          -0.000
 -10089280.076 9  -7843932.41246  23526973.301    23526973.6954   23526984.2764
        -0.000          -0.000
   -997738.70819    -18225.93152         0.000           0.0005          0.0005
        -0.000          -0.000
 99  4 11  3  0  0.0010000  0  9 17 26 23 22 21  6  3 29  1          0.001555748
   1375682.890 9   1073683.86148  21424817.928    21424817.3884   21424824.5104
        -0.000          -0.000
  11618960.16017   9051778.21654  24230049.133    24230049.7075          0.0005
        -0.000          -0.000
   1514254.627 9   1247356.04349  21463960.627    21463960.1904   21463967.0744
        -0.000          -0.000
   9548115.183 9   7436810.41345  25424015.869    25424015.3804   25424028.3634
        -0.000          -0.000
  -9404086.942 9  -7315432.50548  22111275.024    22111274.5734   22111282.5514
        -0.000          -0.000
  17354401.662 9  13507935.57346  24336685.999    24336685.3634   24336695.1114
        -0.000          -0.000
 -13041487.614 9  -9667069.24647  22657879.597    22657879.1464   22657887.6274
        -0.000          -0.000
 -10183854.016 9  -7917626.12746  23508976.474    23508976.7254   23508987.0814
        -0.000          -0.000
  -1101447.059 9    -99037.37652         0.000           0.0004          0.0005
        -0.000          -0.000
 99  4 11  3  0 30.0010000  0  9 17 26 23 22 21  6  3 29  1          0.001560409
   1406444.684 9   1097654.10748  21430671.707    21430671.2154   21430678.3394
        -0.000          -0.000
  11723216.99917   9133017.33754         0.000           0.0005          0.0005
        -0.000          -0.000
   1549699.848 9   1274975.73449  21470705.644    21470705.2204   21470712.0084
        -0.000          -0.000
   9620625.894 9   7493312.15445  25437814.224    25437813.8664   25437826.9944
        -0.000          -0.000
  -9431931.519 9  -7337129.51448  22105976.298    22105975.8724   22105983.8494
        -0.000          -0.000
  17473800.260 8  13600973.36745  24359406.340    24359405.8954   24359415.8534
        -0.000          -0.000
 -13097474.724 9  -9710695.49447  22647225.652    22647225.1824   22647233.7394
        -0.000          -0.000
 -10278263.154 9  -7991191.40646  23491011.031    23491011.0524   23491021.2314
        -0.000          -0.000
  -1205192.327 9   -179877.12754         0.000           0.0004   25558014.4885
        -0.000          -0.000
 99  4 11  3  1  0.0010000  0  9 17 26 23 22 21  6  3 29  1          0.001565075
   1437509.675 9   1121860.61648  21436583.215    21436582.6634   21436589.7744
        -0.000          -0.000
  11827750.97618      7534.32252         0.000           0.0005          0.0005
        -0.000          -0.000
   1585346.275 9   1302752.19749  21477488.858    21477488.4544   21477495.3094
        -0.000          -0.000
   9693187.217 8   7549853.37045  25451622.293    25451621.6094   25451635.1794
        -0.000          -0.000
  -9459535.171 9  -7358638.77748  22100723.357    22100723.0084   22100731.0554
        -0.000          -0.000
  17593313.139 9  13694100.18546  24382148.037    24382148.1704   24382158.5254
        -0.000          -0.000
 -13152987.880 9  -9753952.43247  22636661.755    22636661.2264   22636669.8774
        -0.000          -0.000
 -10372495.544 9  -8064618.99146  23473079.074    23473079.0864   23473089.1074
        -0.000          -0.000
  -1308962.91519   -260736.68945  25538253.437    25538251.7865   25538269.7204
        -0.000          -0.000
 99  4 11  3  1 30.0010000  0  9 17 26 23 22 21  6  3 29  1          0.001569724
   1468886.697 9   1146310.26148  21442553.977    21442553.4594   21442560.6094
        -0.000          -0.000
  11932537.616 8     89216.27742         0.000           0.0004          0.0004
        -0.000          -0.000
   1621214.748 9   1330701.68349  21484314.321    21484313.9694   21484320.8324
        -0.000          -0.000
   9765801.659 8   7606435.93045  25465439.581    25465439.4234   25465453.5394
        -0.000          -0.000
  -9486888.112 9  -7379952.66948  22095518.323    22095517.8714   22095525.9414
        -0.000          -0.000
  17712933.428 9  13787310.71146  24404911.305    24404911.3004   24404921.7704
        -0.000          -0.000
 -13208014.977 9  -9796830.60447  22626189.983    22626189.6764   22626198.4174
        -0.000          -0.000
 -10466555.910 9  -8137912.53046  23455179.652    23455179.8374   23455189.8654
        -0.000          -0.000
  -1412750.380 9   -341609.45845  25518502.968    25518500.4104   25518518.6724
        -0.000          -0.000
 99  4 11  3  2  0.0010000  0  9 17 26 23 22 21  6  3 29  1          0.001574359
   1500563.606 9   1170993.59748  21448581.885    21448581.3464   21448588.5444
        -0.000          -0.000
  12037574.695 7    171183.52452         0.000           0.0004          0.0005
        -0.000          -0.000
   1657300.772 9   1358820.70449  21491181.391    21491180.9754   21491187.8194
        -0.000          -0.000
   9838477.338 8   7663066.25845  25479269.368    25479269.1694   25479283.5234
        -0.000          -0.000
  -9513980.755 9  -7401063.74748  22090362.713    22090362.2804   22090370.3454
        -0.000          -0.000
  17832657.946 9  13880602.44746  24427694.655    24427694.5194   24427704.9244
        -0.000          -0.000
 -13262558.212 9  -9839331.74447  22615810.494    22615810.2314   22615819.0584
        -0.000          -0.000
 -10560440.737 9  -8211069.27946  23437314.016    23437314.1954   23437324.0474
        -0.000          -0.000
  -1516537.741 9   -422482.12945  25498752.451    25498749.8044   25498768.1904
        -0.000          -0.000
 99  4 11  3  2 30.0010000  0  9 17 26 23 22 21  6  3 29  1          0.001578983
   1532531.771 9   1195903.87548  21454665.162    21454664.6254   21454671.9634
        -0.000          -0.000
  12142858.05418      2085.68452         0.000           0.0005          0.0005
        -0.000          -0.000
   1693581.514 9   1387091.44149  21498085.414    21498084.9364   21498091.8964
        -0.000          -0.000
   9911200.183 8   7719733.33145  25493108.359    25493107.9094   25493121.9914
        -0.000          -0.000
  -9540820.056 9  -7421977.40848  22085255.452    22085254.9264   22085262.8554
        -0.000          -0.000
  17952479.389 9  13973969.71646  24450496.091    24450496.0244   24450506.4284
        -0.000          -0.000
 -13316632.436 9  -9881467.43547  22605520.389    22605520.2044   22605528.9574
        -0.000          -0.000
 -10654145.810 9  -8284085.98046  23419482.680    23419482.6704   23419492.4024
        -0.000          -0.000
  -1620320.129 9   -503350.94345  25479003.003    25479000.1554   25479018.9204
        -0.000          -0.000
 99  4 11  3  3  0.0010000  0 10 17 26 23 22 21  6  3 29  1 31       0.001583602
   1564788.913 9   1221039.32548  21460803.376    21460802.8554   21460810.3404
        -0.000          -0.000
  12248397.488 8     84308.66942         0.000           0.0004          0.0004
        -0.000          -0.000
   1730061.370 9   1415517.32249  21505027.169    21505026.7204   21505033.8144
        -0.000          -0.000
   9983960.507 8   7776429.56445  25506954.717    25506954.0834   25506967.8064
        -0.000          -0.000
  -9567411.093 9  -7442697.61548  22080195.185    22080194.7504   22080202.6414
        -0.000          -0.000
  18072398.570 8  14067413.16345  24473315.774    24473315.8474   24473326.2174
        -0.000          -0.000
 -13370233.519 9  -9923234.44247  22595320.338    22595320.1854   22595328.8474
        -0.000          -0.000
 -10747662.693 9  -8356956.04347  23401686.823    23401686.9104   23401696.6384
        -0.000          -0.000
  -1724090.556 9   -584210.44345  25459255.443    25459252.9564   25459271.7864
        -0.000          -0.000
   -247539.74118   -175757.72655         0.000           0.0005   25432450.2875
        -0.000          -0.000
 99  4 11  3  3 30.0010000  0 10 17 26 23 22 21  6  3 29  1 31       0.001588230
   1597323.422 9   1246390.91448  21466994.548    21466994.0394   21467001.4314
        -0.000          -0.000
  12354208.734 8    166674.62952         0.000           0.0004          0.0005
        -0.000          -0.000
   1766730.367 9   1444090.59649  21512004.894    21512004.4994   21512011.5674
        -0.000          -0.000
  10056763.855 8   7833159.37045  25520808.883    25520808.3324   25520822.1714
        -0.000          -0.000
  -9593768.080 9  -7463235.45248  22075179.573    22075179.1524   22075187.0014
        -0.000          -0.000
  18192422.400 9  14160938.11145  24496155.572    24496155.5744   24496165.8984
        -0.000          -0.000
 -13423377.207 9  -9964645.02447  22585207.216    22585207.1764   22585215.8404
        -0.000          -0.000
 -10840977.794 9  -8429668.89247  23383929.346    23383929.5324   23383939.2874
        -0.000          -0.000
  -1827851.617 9   -665062.67045  25439509.665    25439507.6964   25439526.3294
        -0.000          -0.000
   -338304.10418   -246483.14745  25415172.957    25415171.7535   25415181.1194
        -0.000          -0.000
 99  4 11  3  4  0.0010000  0 10 17 26 23 22 21  6  3 29  1 31       0.001592689
   1630142.074 9   1271963.91648  21473239.619    21473239.0764   21473246.5814
        -0.000          -0.000
  12460306.354 8    166674.629 1         0.000           0.000           0.000
        -0.000          -0.000
   1803567.502 9   1472794.88149  21519014.700    21519014.3564   21519021.3794
        -0.000          -0.000
  10129604.663 8   7889918.39445  25534669.879    25534669.2564   25534683.9104
        -0.000          -0.000
  -9619916.152 9  -7483610.50148  22070203.720    22070203.2774   22070211.1204
        -0.000          -0.000
  18312548.880 8  14254543.08745  24519015.039    24519014.8694   24519025.3294
        -0.000          -0.000
 -13476075.167 9 -10005708.28447  22575179.153    22575179.1094   22575187.7424
        -0.000          -0.000
 -10934075.730 9  -8502212.50147  23366213.476    23366213.5374   23366223.1124
        -0.000          -0.000
  -1931611.633 9   -745914.08845  25419764.001    25419762.7444   25419780.9844
        -0.000          -0.000
   -428857.986 8   -317044.58545  25397940.632    25397940.4514   25397948.4334
        -0.000          -0.000
 99  4 11  3  4 30.0010000  0 10 17 26 23 22 21  6  3 29  1 31       0.001597552
   1663281.089 9   1297786.54548  21479545.631    21479545.1304   21479552.7394
        -0.000          -0.000
  12566702.85418     79458.78852         0.000           0.0005          0.0005
        -0.000          -0.000
   1840602.012 9   1501652.96149  21526062.126    21526061.7584   21526068.7524
        -0.000          -0.000
  10202488.148 8   7946710.60045  25548539.116    25548538.4254   25548553.5074
        -0.000          -0.000
  -9645857.564 9  -7503824.50948  22065267.094    22065266.6544   22065274.5854
        -0.000          -0.000
  18432797.209 8  14348242.96945  24541897.410    24541897.2984   24541908.2614
        -0.000          -0.000
 -13528302.843 9 -10046405.10247  22565240.536    22565240.4894   22565249.0244
        -0.000          -0.000
 -11026935.393 9  -8574570.43647  23348543.050    23348542.9804   23348552.2864
        -0.000          -0.000
  -2035357.148 9   -826754.21545  25400021.695    25400020.6924   25400038.4424
        -0.000          -0.000
   -519186.148 8   -387430.12745  25380751.340    25380751.0234   25380759.8434
        -0.000          -0.000
 99  4 11  3  5  0.0010000  0 10 17 26 23 22 21  6  3 29  1 31       0.001602229
   1696722.426 9   1323844.74548  21485909.384    21485908.8354   21485916.4534
        -0.000          -0.000
  12673359.181 8    162430.91652         0.000           0.0004          0.0005
        -0.000          -0.000
   1877816.039 9   1530650.92449  21533143.686    21533143.3254   21533150.2704
        -0.000          -0.000
  10275383.580 9   8003512.13545  25562411.207    25562410.1414   25562424.9624
        -0.000          -0.000
  -9671622.912 9  -7523901.32648  22060363.954    22060363.5584   22060371.5514
        -0.000          -0.000
  18553145.422 8  14442020.72745  24564798.854    24564798.9034   24564810.0104
        -0.000          -0.000
 -13580073.295 9 -10086745.64447  22555389.047    22555388.9694   22555397.3104
        -0.000          -0.000
 -11119589.213 9  -8646767.97947  23330911.650    23330911.4474   23330920.6554
        -0.000          -0.000
  -2139104.711 9   -907595.91546  25380279.319    25380278.2194   25380295.6544
        -0.000          -0.000
   -609296.410 8   -457645.85145  25363603.583    25363603.5634   25363612.4124
        -0.000          -0.000
 99  4 11  3  5 30.0010000  0 10 17 26 23 22 21  6  3 29  1 31       0.001606915
   1730494.343 9   1350160.56048  21492336.005    21492335.4464   21492342.9964
        -0.000          -0.000
  12780283.697 8    245612.07752         0.000           0.0004          0.0005
        -0.000          -0.000
   1915216.761 9   1559794.36749  21540260.886    21540260.4884   21540267.3424
        -0.000          -0.000
  10348310.725 9   8060338.36145  25576288.763    25576287.7544   25576302.4584
        -0.000          -0.000
  -9697179.868 9  -7543815.75548  22055500.707    22055500.2754   22055508.1474
        -0.000          -0.000
  18673607.563 8  14535887.22345  24587722.244    24587722.1844   24587733.1354
        -0.000          -0.000
 -13631363.137 9 -10126711.68748  22545629.119    22545628.8264   22545637.0834
        -0.000          -0.000
 -11212029.857 9  -8718799.40247  23313320.357    23313320.2954   23313329.7104
        -0.000          -0.000
  -2242827.928 9   -988418.65646  25360541.378    25360540.4034   25360557.5004
        -0.000          -0.000
   -699161.233 8   -527670.30245  25346502.854    25346502.3734   25346511.5354
        -0.000          -0.000
 99  4 11  3  6  0.0010000  0 10 17 26 23 22 21  6  3 29  1 31       0.001611608
   1764620.896 9   1376752.71148  21498830.137    21498829.5604   21498837.0624
        -0.000          -0.000
  12887475.02317     74496.36052         0.000           0.0005          0.0005
        -0.000          -0.000
   1952818.078 9   1589094.11749  21547416.206    21547415.8044   21547422.6064
        -0.000          -0.000
  10421267.417 9   8117187.65245  25590172.288    25590171.2524   25590185.7764
        -0.000          -0.000
  -9722509.207 9  -7563552.82848  22050680.745    22050680.2024   22050688.0874
        -0.000          -0.000
  18794178.720 8  14629838.67245  24610666.191    24610666.0804   24610676.9344
        -0.000          -0.000
 -13682140.648 9 -10166278.51248  22535966.289    22535966.0764   22535974.2364
        -0.000          -0.000
 -11304259.302 9  -8790666.26146  23295769.151    23295769.1754   23295778.8434
        -0.000          -0.000
  -2346513.213 9  -1069211.84446  25340810.442    25340809.6434   25340826.5024
        -0.000          -0.000
   -788773.775 8   -597498.19445  25329450.317    25329449.6064   25329459.0544
        -0.000          -0.000
 99  4 11  3  6 30.0010000  0 10 17 26 23 22 21  6  3 29  1 31       0.001616293
   1799057.407 9   1403586.39148  21505383.163    21505382.5344   21505390.0724
        -0.000          -0.000
  12994899.350 7    158288.90952         0.000           0.0004          0.0005
        -0.000          -0.000
   1990603.354 9   1618537.21249  21554606.491    21554606.1174   21554612.8764
        -0.000          -0.000
  10494224.659 8   8174037.33145  25604056.018    25604054.7824   25604069.4184
        -0.000          -0.000
  -9747622.933 9  -7583121.89448  22045901.702    22045901.1404   22045909.0114
        -0.000          -0.000
  18914833.600 8  14723855.35245  24633625.960    24633625.9154   24633636.9184
        -0.000          -0.000
 -13732421.932 9 -10205458.67747  22526398.001    22526397.8194   22526405.7564
        -0.000          -0.000
 -11396309.670 9  -8862393.58046  23278252.155    23278252.2224   23278261.9894
        -0.000          -0.000
  -2450172.095 9  -1149984.44946  25321084.341    25321083.7794   25321100.2154
        -0.000          -0.000
   -878155.235 8   -667146.02845  25312441.399    25312440.7544   25312449.9324
        -0.000          -0.000
 99  4 11  3  7  0.0010000  0 10 17 26 23 22 21  6  3 29  1 31       0.001620972
   1833776.923 9   1430640.56948  21511989.781    21511989.2104   21511996.9084
        -0.000          -0.000
  13102545.85917    242254.56352         0.000           0.0005          0.0005
        -0.000          -0.000
   2028542.435 9   1648100.15649  21561826.129    21561825.7094   21561832.5334
        -0.000          -0.000
  10567175.848 9   8230882.29645  25617938.269    25617937.0514   25617951.6444
        -0.000          -0.000
  -9772516.475 9  -7602519.38248  22041164.547    22041164.0104   22041171.8334
        -0.000          -0.000
  19035543.419 8  14817914.85645  24656596.222    24656596.2544   24656607.3054
        -0.000          -0.000
 -13782215.703 9 -10244258.95047  22516922.683    22516922.3594   22516930.1384
        -0.000          -0.000
 -11488173.358 9  -8933975.44146  23260770.497    23260770.7444   23260780.5224
        -0.000          -0.000
  -2553822.629 9  -1230750.52245  25301360.008    25301359.2944   25301375.2624
        -0.000          -0.000
   -967319.620 8   -736624.70545  25295473.539    25295472.7604   25295482.3734
        -0.000          -0.000
 99  4 11  3  7 30.0010000  0 10 17 26 23 22 21  6  3 29  1 31       0.001625650
   1868789.826 9   1457923.38248  21518652.363    21518651.8874   21518659.4504
        -0.000          -0.000
  13210423.43817     67968.30852         0.000           0.0005          0.0005
        -0.000          -0.000
   2066651.039 9   1677795.19149  21569078.057    21569077.6084   21569084.4084
        -0.000          -0.000
  10640141.850 8   8287738.78145  25631823.215    25631822.2084   25631836.2864
        -0.000          -0.000
  -9797180.309 9  -7621737.89248  22036471.049    22036470.5694   22036478.4684
        -0.000          -0.000
  19156302.054 8  14912012.40645  24679575.854    24679575.7854   24679586.9994
        -0.000          -0.000
 -13831511.874 9 -10282671.48048  22507541.837    22507541.5634   22507549.3724
        -0.000          -0.000
 -11579809.726 9  -9005380.16246  23243332.349    23243332.5764   23243342.4214
        -0.000          -0.000
  -2657459.429 9  -1311505.90045  25281638.216    25281637.2994   25281652.8224
        -0.000          -0.000
  -1056264.520 8   -805932.32845  25278547.484    25278546.6574   25278556.7904
        -0.000          -0.000
 99  4 11  3  8  0.0010000  0 10 17 26 23 22 21  6  3 29  1 31       0.001630336
   1904098.966 9   1485437.02648  21525371.612    21525371.0764   21525378.4614
        -0.000          -0.000
  13318537.235 7    152103.79952         0.000           0.0004          0.0005
        -0.000          -0.000
   2104962.919 9   1707648.63549  21576368.656    21576368.1514   21576374.8704
        -0.000          -0.000
  10713134.602 8   8344616.15045  25645713.459    25645712.4034   25645726.2834
        -0.000          -0.000
  -9821606.617 9  -7640771.31648  22031822.846    22031822.3474   22031830.2294
        -0.000          -0.000
  19277122.611 8  15006158.18845  24702567.436    24702567.3594   24702578.4914
        -0.000          -0.000
 -13880296.597 9 -10320685.49048  22498258.394    22498258.1204   22498265.8834
        -0.000          -0.000
 -11671176.163 9  -9076574.56247  23225945.696    23225946.0324   23225955.6554
        -0.000          -0.000
  -2761058.046 8  -1392231.51645  25261923.109    25261922.1974   25261937.8124
        -0.000          -0.000
  -1144975.343 8   -875057.60845  25261665.938    25261665.3244   25261675.5534
        -0.000          -0.000
 99  4 11  3  8 30.0010000  0 10 17 26 23 22 21  6  3 29  1 31       0.001635024
   1939691.494 9   1513171.49148  21532144.673    21532144.1274   21532151.5014
        -0.000          -0.000
  13426880.83017    236414.70452         0.000           0.0005          0.0005
        -0.000          -0.000
   2143472.981 9   1737656.49948  21583696.802    21583696.2884   21583703.0274
        -0.000          -0.000
  10786131.212 8   8401496.51545  25659603.622    25659602.9574   25659616.9634
        -0.000          -0.000
  -9845801.942 9  -7659624.74548  22027218.531    22027218.0544   22027225.8944
        -0.000          -0.000
  19398001.296 8  15100349.26345  24725569.879    24725569.7554   24725580.7694
        -0.000          -0.000
 -13928584.313 9 -10358312.22348  22489069.707    22489069.3514   22489077.0714
        -0.000          -0.000
 -11762265.992 9  -9147553.42846  23208611.891    23208612.0634   23208621.4434
        -0.000          -0.000
  -2864621.496 8  -1472929.73645  25242214.329    25242213.7914   25242229.4174
        -0.000          -0.000
  -1233446.951 8   -943996.52045  25244830.337    25244829.6194   25244839.8354
        -0.000          -0.000
 99  4 11  3  9  0.0010000  0 10 17 26 23 22 21  6  3 29  1 31       0.001639695
   1975581.297 9   1541137.60248  21538974.326    21538973.7894   21538981.1564
        -0.000          -0.000
  13535430.70217     61371.05052         0.000           0.0005          0.0005
        -0.000          -0.000
   2182172.995 9   1767812.38548  21591061.136    21591060.6504   21591067.3194
        -0.000          -0.000
  10859114.820 8   8458366.75145  25673492.186    25673491.3124   25673504.8914
        -0.000          -0.000
  -9869775.738 9  -7678305.56748  22022656.249    22022655.8834   22022663.7844
        -0.000          -0.000
  19518923.839 8  15194574.54045  24748580.571    24748580.4044   24748591.3464
        -0.000          -0.000
 -13976387.996 9 -10395561.78348  22479973.222    22479972.7584   22479980.3554
        -0.000          -0.000
 -11853080.415 9  -9218317.70446  23191330.359    23191330.4964   23191339.6424
        -0.000          -0.000
  -2968159.529 8  -1553608.16445  25222510.609    25222510.4904   25222526.1544
        -0.000          -0.000
  -1321677.151 8  -1012747.29945  25228040.855    25228040.1014   25228050.3374
        -0.000          -0.000
 99  4 11  3  9 30.0010000  0  9 17 23 22 21  6  3 29  1 31          0.001644279
   2011785.032 9   1569348.31648  21545863.745    21545863.1894   21545870.4104
        -0.000          -0.000
   2221092.621 9   1798139.39148  21598467.186    21598466.7234   21598473.3814
        -0.000          -0.000
  10932086.679 8   8515227.78145  25687378.294    25687377.6584   25687391.0854
        -0.000          -0.000
  -9893524.181 9  -7696810.77148  22018137.013    22018136.6514   22018144.6394
        -0.000          -0.000
  19639920.201 8  15288857.30645  24771605.519    24771605.4744   24771616.0744
        -0.000          -0.000
 -14023703.625 9 -10432431.05348  22470969.603    22470968.9824   22470976.4654
        -0.000          -0.000
 -11943622.735 9  -9288869.94946  23174100.712    23174100.7544   23174109.6704
        -0.000          -0.000
  -3071640.647 8  -1634242.23545  25202818.594    25202818.1044   25202833.6864
        -0.000          -0.000
  -1409645.210 8  -1081293.79645  25211301.193    25211300.6094   25211310.7534
        -0.000          -0.000
 99  4 11  3 10  0.0010000  0  9 17 23 22 21  6  3 29  1 31          0.001648859
   2048294.138 9   1597796.99148  21552811.311    21552810.7304   21552817.7654
        -0.000          -0.000
   2260213.919 9   1828623.54448  21605911.647    21605911.2094   21605917.9384
        -0.000          -0.000
  11005024.374 8   8572062.24045  25701258.088    25701257.3994   25701271.1054
        -0.000          -0.000
  -9917049.538 9  -7715142.16448  22013660.134    22013659.8204   22013667.9004
        -0.000          -0.000
  19760991.662 8  15383198.60145  24794645.115    24794644.8054   24794655.1284
        -0.000          -0.000
 -14070534.796 9 -10468922.82048  22462057.949    22462057.3014   22462064.7474
        -0.000          -0.000
 -12033924.559 9  -9359234.79846  23156916.945    23156916.9104   23156925.4954
        -0.000          -0.000
  -3175064.140 8  -1714831.39245  25183137.520    25183136.7884   25183152.5474
        -0.000          -0.000
  -1497346.291 8  -1149632.26945  25194612.549    25194611.9034   25194622.1284
        -0.000          -0.000
 99  4 11  3 10 30.0010000  0  9 17 23 22 21  6  3 29  1 31          0.001653458
   2085148.992 9   1626515.08348  21559824.615    21559823.9744   21559831.0384
        -0.000          -0.000
   2299536.294 9   1859264.38349  21613394.533    21613394.0094   21613400.7444
        -0.000          -0.000
  11077956.031 8   8628891.98145  25715136.312    25715135.5524   25715149.6734
        -0.000          -0.000
  -9940339.920 9  -7733290.44748  22009228.028    22009227.7494   22009235.8224
        -0.000          -0.000
  19882154.914 9  15477611.41945  24817701.978    24817701.6834   24817711.7514
        -0.000          -0.000
 -14116850.487 9 -10505012.91948  22453244.287    22453243.5934   22453251.0874
        -0.000          -0.000
 -12123973.988 9  -9429402.96146  23139781.010    23139780.9734   23139789.4384
        -0.000          -0.000
  -3278417.560 9  -1795365.94845  25163469.895    25163468.8144   25163484.6774
        -0.000          -0.000
  -1584758.591 8  -1217745.74545  25177979.071    25177978.1784   25177988.4454
        -0.000          -0.000
 99  4 11  3 11  0.0010000  0  9 17 23 22 21  6  3 29  1 31          0.001658069
   2122324.540 9   1655483.06048  21566898.884    21566898.2774   21566905.2774
        -0.000          -0.000
   2339022.180 9   1890032.63048  21620908.445    21620907.8874   21620914.6004
        -0.000          -0.000
  11150874.410 8   8685711.38045  25729012.308    25729011.3764   25729025.7734
        -0.000          -0.000
  -9963422.350 9  -7751276.70448  22004835.566    22004835.2994   22004843.3374
        -0.000          -0.000
  20003382.523 8  15572074.39945  24840770.725    24840770.4134   24840780.9304
        -0.000          -0.000
 -14162666.443 9 -10540713.62448  22444525.549    22444524.8994   22444532.4404
        -0.000          -0.000
 -12213797.039 9  -9499394.76646  23122688.092    23122688.1664   23122696.3284
        -0.000          -0.000
  -3381728.752 8  -1875867.62745  25143809.750    25143808.8744   25143824.8184
        -0.000          -0.000
  -1671925.431 8  -1285667.93845  25161392.144    25161390.7934   25161401.0984
        -0.000          -0.000
 99  4 11  3 11 30.0010000  0  9 17 23 22 21  6  3 29  1 31          0.001662719
   2159814.073 9   1684695.69848  21574032.948    21574032.3784   21574039.3364
        -0.000          -0.000
   2378666.203 9   1920924.09348  21628452.324    21628451.8344   21628458.4784
        -0.000          -0.000
  11223789.247 8   8742527.99345  25742888.016    25742886.8694   25742901.4154
        -0.000          -0.000
  -9986292.057 9  -7769097.18448  22000483.818    22000483.4924   22000491.3474
        -0.000          -0.000
  20124676.797 8  15666589.32545  24863852.367    24863851.8834   24863863.0084
        -0.000          -0.000
 -14207964.086 9 -10576010.44748  22435905.422    22435904.9264   22435912.4064
        -0.000          -0.000
 -12303399.807 9  -9569214.92047  23105637.201    23105637.3404   23105645.1754
        -0.000          -0.000
  -3484998.260 9  -1956336.82645  25124157.417    25124156.9794   25124172.6974
        -0.000          -0.000
  -1758859.863 8  -1353409.01545  25144849.335    25144847.7344   25144858.2674
        -0.000          -0.000
 99  4 11  3 12  0.0010000  0  9 17 23 22 21  6  3 29  1 31          0.001667424
   2197618.334 9   1714153.57648  21581227.055    21581226.4284   21581233.3074
        -0.000          -0.000
   2418449.313 9   1951923.94148  21636022.755    21636022.2934   21636028.8654
        -0.000          -0.000
  11296700.200 8   8799341.54345  25756763.035    25756761.9944   25756775.8074
        -0.000          -0.000
 -10008959.061 9  -7786759.71748  21996170.550    21996170.1384   21996177.8584
        -0.000          -0.000
  20246023.128 9  15761144.78145  24886943.847    24886943.3874   24886955.1694
        -0.000          -0.000
 -14252737.534 9 -10610898.80748  22427385.162    22427384.7354   22427392.1774
        -0.000          -0.000
 -12392784.631 9  -9638865.24547  23088627.993    23088628.0754   23088635.3634
        -0.000          -0.000
  -3588232.803 9  -2036778.80245  25104512.010    25104511.8704   25104527.3244
        -0.000          -0.000
  -1845564.664 8  -1420971.13445  25128349.864    25128348.0974   25128358.9434
        -0.000          -0.000
 99  4 11  3 12 30.0010000  0  9 17 23 22 21  6  3 29  1 31          0.001672133
   2235734.839 9   1743854.76248  21588480.303    21588479.6674   21588486.6084
        -0.000          -0.000
   2458369.043 9   1983030.24649  21643619.214    21643618.7454   21643625.4344
        -0.000          -0.000
  11369613.536 8   8856156.98845  25770638.534    25770637.3204   25770650.5124
        -0.000          -0.000
 -10031424.446 9  -7804265.14748  21991895.475    21991895.0984   21991902.8574
        -0.000          -0.000
  20367414.032 8  15855735.04645  24910043.768    24910043.6164   24910055.6244
        -0.000          -0.000
 -14296997.724 9 -10645387.22248  22418962.505    22418962.1664   22418969.6864
        -0.000          -0.000
 -12481945.614 9  -9708341.13547  23071661.284    23071661.3824   23071668.2644
        -0.000          -0.000
  -3691433.064 9  -2117194.02945  25084873.343    25084873.1054   25084888.4204
        -0.000          -0.000
  -1932050.235 8  -1488362.42645  25111892.026    25111890.2104   25111901.2564
        -0.000          -0.000
 99  4 11  3 13  0.0010000  0  9 17 23 22 21  6  3 29  1 31          0.001676867
   2274144.081 9   1773784.06648  21595789.217    21595788.6574   21595795.5654
        -0.000          -0.000
   2498440.558 9   2014254.82049  21651244.448    21651243.9964   21651250.8824
        -0.000          -0.000
  11442516.726 8   8912964.55845  25784511.687    25784510.1754   25784523.5744
        -0.000          -0.000
 -10053678.303 9  -7821605.74948  21987660.506    21987660.1804   21987667.9914
        -0.000          -0.000
  20488856.932 9  15950365.78045  24933153.669    24933153.5964   24933165.7094
        -0.000          -0.000
 -14340748.757 9 -10679478.88648  22410636.814    22410636.5304   22410644.1194
        -0.000          -0.000
 -12570892.067 9  -9777649.86647  23054735.105    23054735.2204   23054742.0334
        -0.000          -0.000
  -3794592.282 9  -2197577.30245  25065242.455    25065242.0254   25065257.1734
        -0.000          -0.000
  -2018301.519 8  -1555571.20845  25095478.543    25095477.1924   25095488.0804
        -0.000          -0.000
 99  4 11  3 13 30.0010000  0  9 17 23 22 21  6  3 29  1 31          0.001681623
   2312843.201 9   1803939.24448  21603153.398    21603152.8284   21603159.6904
        -0.000          -0.000
   2538672.166 9   2045604.14448  21658900.266    21658899.8564   21658906.6844
        -0.000          -0.000
  11515401.456 8   8969757.74245  25798380.783    25798379.6554   25798393.6694
        -0.000          -0.000
 -10075735.993 9  -7838793.48248  21983462.972    21983462.6464   21983470.4714
        -0.000          -0.000
  20610342.313 8  16045029.55745  24956271.752    24956271.8414   24956283.5474
        -0.000          -0.000
 -14384004.079 9 -10713184.27048  22402405.336    22402405.1084   22402412.9394
        -0.000          -0.000
 -12659626.893 9  -9846793.70547  23037849.172    23037849.3994   23037856.1194
        -0.000          -0.000
  -3897701.725 8  -2277921.78545  25045621.158    25045620.6384   25045635.5454
        -0.000          -0.000
  -2104289.388 8  -1622574.70445  25079115.330    25079114.3504   25079124.8264
        -0.000          -0.000
 99  4 11  3 14  0.0010000  0  9 17 23 22 21  6  3 29  1 31          0.001686402
   2351853.235 9   1834336.69848  21610576.784    21610576.1994   21610582.9974
        -0.000          -0.000
   2579081.606 9   2077092.04848  21666589.948    21666589.5024   21666596.2274
        -0.000          -0.000
  11588270.886 8   9026538.99445  25812247.312    25812246.0244   25812260.2454
        -0.000          -0.000
 -10097586.898 9  -7855820.10048  21979304.725    21979304.3654   21979312.3964
        -0.000          -0.000
  20731887.883 8  16139740.26345  24979401.217    24979401.2604   24979412.4864
        -0.000          -0.000
 -14426760.091 9 -10746500.58148  22394268.996    22394268.7514   22394276.7584
        -0.000          -0.000
 -12748123.646 9  -9915752.01147  23021008.843    23021008.9884   23021015.4994
        -0.000          -0.000
  -4000735.192 9  -2358207.08145  25026014.341    25026013.9414   25026028.5304
        -0.000          -0.000
  -2189977.336 8  -1689344.49945  25062809.382    25062808.4794   25062818.6194
        -0.000          -0.000
 99  4 11  3 14 30.0010000  0  9 17 23 22 21  6  3 29  1 31          0.001691195
   2391164.263 9   1864968.68848  21618057.421    21618056.8414   21618063.6414
        -0.000          -0.000
   2619675.728 9   2108723.84548  21674314.701    21674314.2744   21674320.9974
        -0.000          -0.000
  11661102.651 8   9083290.91945  25826107.203    25826105.5804   25826119.6044
        -0.000          -0.000
 -10119225.183 9  -7872681.03748  21975186.843    21975186.6354   21975194.7044
        -0.000          -0.000
  20853490.641 8  16234495.51945  25002541.341    25002541.2034   25002552.0254
        -0.000          -0.000
 -14469013.342 9 -10779425.12848  22386228.294    22386228.0974   22386236.2224
        -0.000          -0.000
 -12836372.420 9  -9984517.09047  23004215.714    23004215.6834   23004222.2304
        -0.000          -0.000
  -4103700.067 9  -2438438.90945  25006420.882    25006420.4354   25006434.6214
        -0.000          -0.000
  -2275365.657 8  -1755880.82345  25046560.565    25046559.7074   25046569.5764
        -0.000          -0.000
 99  4 11  3 15  0.0010000  0  9 17 23 22 21  6  3 29  1 31          0.001695903
   2430785.229 9   1895842.18148  21625596.972    21625596.4214   21625603.2044
        -0.000          -0.000
   2660464.089 9   2140507.00548  21682076.542    21682076.0814   21682082.7634
        -0.000          -0.000
  11733887.429 8   9140006.24345  25839957.452    25839955.9004   25839969.8244
        -0.000          -0.000
 -10140648.854 9  -7889374.73648  21971110.151    21971109.8274   21971117.7944
        -0.000          -0.000
  20975154.365 8  16329298.32945  25025692.943    25025692.5564   25025703.5364
        -0.000          -0.000
 -14510740.131 9 -10811939.46548  22378287.928    22378287.7344   22378295.7534
        -0.000          -0.000
 -12924357.436 9 -10053076.67247  22987472.403    22987472.4744   22987479.2384
        -0.000          -0.000
  -4206595.187 9  -2518616.38445  24986840.414    24986839.8624   24986854.0244
        -0.000          -0.000
  -2360431.638 8  -1822165.95245  25030373.127    25030372.3544   25030381.8244
        -0.000          -0.000
 99  4 11  3 15 30.0010000  0  9 17 23 22 21  6  3 29  1 31          0.001700633
   2470732.303 9   1926969.79048  21633198.637    21633198.0594   21633204.8474
        -0.000          -0.000
   2701435.783 9   2172433.03448  21689873.140    21689872.6444   21689879.2804
        -0.000          -0.000
  11806624.251 8   9196684.20145  25853798.738    25853797.3404   25853811.2474
        -0.000          -0.000
 -10161860.974 9  -7905903.59248  21967073.565    21967073.2624   21967081.1704
        -0.000          -0.000
  21096859.945 8  16424133.75045  25048852.758    25048852.3304   25048863.2914
        -0.000          -0.000
 -14551940.963 9 -10844043.96348  22370447.739    22370447.5614   22370455.3614
        -0.000          -0.000
 -13012059.696 9 -10121415.89747  22970782.998    22970783.0394   22970790.1144
        -0.000          -0.000
  -4309418.080 9  -2598737.58645  24967273.427    24967272.9674   24967287.1014
        -0.000          -0.000
  -2445186.158 9  -1888208.39445  25014244.884    25014244.2394   25014253.3264
        -0.000          -0.000
 99  4 11  3 16  0.0010000  0  9 17 23 22 21  6  3 29  1 31          0.001705373
   2511007.052 9   1958352.71648  21640862.643    21640862.0834   21640868.9044
        -0.000          -0.000
   2742577.669 9   2204491.67348  21697701.975    21697701.5344   21697708.2884
        -0.000          -0.000
  11879305.003 8   9253318.36345  25867629.281    25867627.7444   25867642.4094
        -0.000          -0.000
 -10182850.564 9  -7922259.04848  21963079.435    21963079.0574   21963086.7894
        -0.000          -0.000
  21218610.113 8  16519003.84445  25072021.232    25072020.8904   25072032.0414
        -0.000          -0.000
 -14592606.056 9 -10875730.99548  22362709.417    22362709.2684   22362716.9104
        -0.000          -0.000
 -13099469.094 9 -10189526.92347  22954149.259    22954149.2544   22954156.7154
        -0.000          -0.000
  -4412180.447 8  -2678811.64645  24947717.729    24947717.4654   24947731.4734
        -0.000          -0.000
  -2529648.413 8  -1954023.07545  24998172.454    24998171.6564   24998180.5084
        -0.000          -0.000
 99  4 11  3 16 30.0010000  0  9 17 23 22 21  6  3 29  1 31          0.001710095
   2551596.772 9   1989981.08548  21648586.645    21648586.0364   21648592.9084
        -0.000          -0.000
   2783867.925 9   2236665.92148  21705559.083    21705558.7144   21705565.6284
        -0.000          -0.000
  11951936.036 8   9309913.81945  25881450.467    25881449.0964   25881463.5134
        -0.000          -0.000
 -10203628.589 9  -7938449.64448  21959125.548    21959125.1544   21959132.6354
        -0.000          -0.000
  21340379.336 8  16613888.87845  25095193.266    25095192.8804   25095204.4184
        -0.000          -0.000
 -14632734.553 9 -10906999.90748  22355073.294    22355073.1154   22355080.6704
        -0.000          -0.000
 -13186587.409 9 -10257411.13747  22937571.067    22937571.0314   22937578.6344
        -0.000          -0.000
  -4514902.498 9  -2758854.28545  24928169.707    24928169.4494   24928183.5874
        -0.000          -0.000
  -2613839.890 8  -2019626.77145  24982151.273    24982150.5374   24982159.3194
        -0.000          -0.000
 99  4 11  3 17  0.0010000  0  9 17 23 22 21  6  3 29  1 31          0.001714826
   2592534.973 9   2021881.00048  21656376.971    21656376.3934   21656383.3494
        -0.000          -0.000
   2825312.280 9   2268960.23548  21713445.651    21713445.3244   21713452.2764
        -0.000          -0.000
  12024561.892 8   9366505.31045  25895270.820    25895269.6484   25895283.7734
        -0.000          -0.000
 -10224186.594 9  -7954468.80448  21955213.469    21955213.0234   21955220.4164
        -0.000          -0.000
  21462176.887 8  16708795.94345  25118370.599    25118370.2044   25118382.1924
        -0.000          -0.000
 -14672330.310 9 -10937853.69148  22347538.488    22347538.2614   22347545.9234
        -0.000          -0.000
 -13273395.523 9 -10325053.61347  22921051.911    22921051.7874   22921059.5094
        -0.000          -0.000
  -4617554.848 8  -2838842.60745  24908635.209    24908634.7224   24908648.9154
        -0.000          -0.000
  -2697739.564 9  -2085003.09045  24966185.622    24966184.9404   24966193.6384
        -0.000          -0.000
 99  4 11  3 17 30.0010000  0  9 17 23 22 21  6  3 29  1 31          0.001719542
   2633793.535 9   2054030.54648  21664228.145    21664227.5574   21664234.5464
        -0.000          -0.000
   2866881.357 9   2301351.75248  21721356.075    21721355.6684   21721362.5584
        -0.000          -0.000
  12097156.576 8   9423072.46545  25909085.176    25909084.1844   25909098.6144
        -0.000          -0.000
 -10244557.534 9  -7970342.20348  21951336.930    21951336.5364   21951343.9094
        -0.000          -0.000
  21583978.459 8  16803706.10045  25141548.639    25141548.2884   25141560.9104
        -0.000          -0.000
 -14711431.451 9 -10968322.05648  22340097.686    22340097.4634   22340105.1844
        -0.000          -0.000
 -13359922.351 9 -10392476.91547  22904586.200    22904586.0664   22904593.9584
        -0.000          -0.000
  -4720154.815 9  -2918790.14045  24889110.538    24889109.9404   24889124.2094
        -0.000          -0.000
  -2781392.507 8  -2150187.15345  24950267.058    24950266.2904   24950274.7494
        -0.000          -0.000
 99  4 11  3 18  0.0010000  0  9 17 23 22 21  6  3 29  1 31          0.001724248
   2675379.075 9   2086434.88548  21672141.538    21672140.9694   21672147.9974
        -0.000          -0.000
   2908580.076 9   2333844.29248  21729291.000    21729290.5654   21729297.4464
        -0.000          -0.000
  12169732.257 8   9479624.83445  25922896.294    25922895.2734   25922909.8314
        -0.000          -0.000
 -10264733.591 9  -7986063.73648  21947497.622    21947497.2044   21947504.4924
        -0.000          -0.000
  21705794.435 8  16898627.47745  25164729.417    25164728.8114   25164741.8924
        -0.000          -0.000
 -14750033.479 9 -10998401.50748  22332751.661    22332751.5384   22332759.3744
        -0.000          -0.000
 -13446177.958 9 -10459688.89047  22888172.081    22888171.9484   22888180.2324
        -0.000          -0.000
  -4822696.783 8  -2998692.49845  24869596.761    24869596.2084   24869610.7294
        -0.000          -0.000
  -2864786.320 8  -2215169.29145  24934398.077    24934397.0164   24934405.3724
        -0.000          -0.000
 99  4 11  3 18 30.0010000  0  9 17 23 22 21  6  3 29  1 31          0.001728966
   2717305.212 9   2119104.60148  21680119.732    21680119.2064   21680126.2914
        -0.000          -0.000
   2950431.894 9   2366456.14048  21737255.014    21737254.5924   21737261.4454
        -0.000          -0.000
  12242290.316 8   9536163.46045  25936703.810    25936702.6744   25936717.2364
        -0.000          -0.000
 -10284719.112 9  -8001636.79448  21943694.421    21943694.0374   21943701.3094
        -0.000          -0.000
  21827614.886 8  16993552.31645  25187910.550    25187910.2934   25187923.6384
        -0.000          -0.000
 -14788141.973 9 -11028096.38448  22325499.513    22325499.5884   22325507.5114
        -0.000          -0.000
 -13532173.449 9 -10526698.19447  22871807.413    22871807.4084   22871815.9124
        -0.000          -0.000
  -4925160.709 9  -3078534.06545  24850097.877    24850097.3874   24850112.0644
        -0.000          -0.000
  -2947901.070 8  -2279933.98745  24918582.203    24918581.0054   24918589.0094
        -0.000          -0.000
 99  4 11  3 19  0.0010000  0  9 17 23 22 21  6  3 29  1 31          0.001733708
   2759591.521 9   2152054.98748  21688166.587    21688166.0054   21688173.1164
        -0.000          -0.000
   2992480.454 9   2399221.28048  21745256.443    21745256.0434   21745262.9944
        -0.000          -0.000
  12314820.719 8   9592680.44345  25950505.827    25950504.7504   25950519.4774
        -0.000          -0.000
 -10304483.008 9  -8017037.16748  21939933.381    21939933.0514   21939940.3084
        -0.000          -0.000
  21949467.861 8  17088502.58445  25211098.039    25211097.8904   25211111.2294
        -0.000          -0.000
 -14825735.077 9 -11057389.65948  22318345.794    22318345.8314   22318353.7094
        -0.000          -0.000
 -13617900.654 9 -10593498.42547  22855493.827    22855493.8324   22855502.3184
        -0.000          -0.000
  -5027517.296 9  -3158292.01845  24830619.391    24830619.2214   24830633.8234
        -0.000          -0.000
  -3030705.384 8  -2344456.80145  24902825.057    24902823.8144   24902831.5954
        -0.000          -0.000
 99  4 11  3 19 30.0010000  0  9 17 23 22 21  6  3 29  1 31          0.001738455
   2802209.348 9   2185263.68948  21696276.411    21696275.8914   21696282.9664
        -0.000          -0.000
   3034712.387 9   2432129.30248  21753292.917    21753292.5094   21753299.5224
        -0.000          -0.000
  12387287.941 8   9649148.19945  25964295.884    25964294.9304   25964309.8584
        -0.000          -0.000
 -10324029.675 9  -8032268.27548  21936213.648    21936213.3464   21936220.5794
        -0.000          -0.000
  22071336.224 8  17183464.80845  25234288.943    25234288.8254   25234302.0314
        -0.000          -0.000
 -14862798.820 9 -11086270.44348  22311292.795    22311292.8334   22311300.6504
        -0.000          -0.000
 -13703384.602 9 -10660109.12447  22839226.381    22839226.4334   22839234.7944
        -0.000          -0.000
  -5129781.747 8  -3237978.16445  24811158.690    24811158.5334   24811173.2814
        -0.000          -0.000
  -3113212.360 8  -2408747.88245  24887124.566    24887123.1944   24887130.9654
        -0.000          -0.000
 99  4 11  3 20  0.0010000  0  9 17 23 22 21  6  3 29  1 31          0.001743201
   2845156.809 9   2218729.27348  21704449.029    21704448.4634   21704455.4824
        -0.000          -0.000
   3077128.450 9   2465180.82048  21761364.575    21761364.1514   21761371.0594
        -0.000          -0.000
  12459693.945 8   9705568.33745  25978074.234    25978073.4744   25978088.1834
        -0.000          -0.000
 -10343344.823 9  -8047318.96348  21932538.060    21932537.7904   21932544.9364
        -0.000          -0.000
  22193208.373 8  17278429.91345  25257480.900    25257480.6194   25257493.7324
        -0.000          -0.000
 -14899329.788 9 -11114736.08048  22304341.425    22304341.3654   22304348.9944
        -0.000          -0.000
 -13788611.242 9 -10726519.33047  22823007.823    22823008.0414   22823016.2824
        -0.000          -0.000
  -5231957.478 9  -3317595.18445  24791714.865    24791714.6344   24791729.4294
        -0.000          -0.000
  -3195410.010 8  -2472797.95145  24871482.517    24871481.2324   24871489.5194
        -0.000          -0.000
 99  4 11  3 20 30.0010000  0  9 17 23 22 21  6  3 29  1 31          0.001747938
   2888409.476 9   2252432.67548  21712679.753    21712679.1754   21712686.1234
        -0.000          -0.000
   3119716.257 9   2498366.16148  21769468.873    21769468.3614   21769475.3644
        -0.000          -0.000
  12532020.987 8   9761926.90945  25991837.472    25991836.8454   25991852.1094
        -0.000          -0.000
 -10362439.407 9  -8062197.79148  21928904.408    21928904.1164   21928911.2574
        -0.000          -0.000
  22315086.766 8  17373399.89645  25280674.381    25280673.9424   25280686.8884
        -0.000          -0.000
 -14935320.449 9 -11142780.69848  22297492.959    22297492.7374   22297500.1434
        -0.000          -0.000
 -13873559.579 9 -10792712.66047  22806842.441    22806842.6824   22806850.8344
        -0.000          -0.000
  -5334042.562 9  -3397141.57245  24772288.323    24772288.0634   24772302.6754
        -0.000          -0.000
  -3277305.072 8  -2536612.22545  24855897.750    24855896.6124   24855905.8544
        -0.000          -0.000
 99  4 11  3 21  0.0010000  0  9 17 23 22 21  6  3 29  1 31          0.001752648
   2931955.447 9   2286364.61648  21720966.248    21720965.6494   21720972.6664
        -0.000          -0.000
   3162441.450 9   2531658.53948  21777599.013    21777598.5434   21777605.7634
        -0.000          -0.000
  12604272.686 8   9818226.76445  26005586.329    26005586.0684   26005601.7784
        -0.000          -0.000
 -10381311.308 9  -8076903.11648  21925313.130    21925312.8324   21925319.9444
        -0.000          -0.000
  22436979.396 8  17468380.96445  25303870.819    25303870.4124   25303882.4554
        -0.000          -0.000
 -14970763.084 9 -11170398.27848  22290748.588    22290748.3764   22290755.4774
        -0.000          -0.000
 -13958219.977 9 -10858681.64847  22790731.894    22790732.0754   22790740.0934
        -0.000          -0.000
  -5436044.829 9  -3476623.44545  24752877.552    24752877.2704   24752891.6954
        -0.000          -0.000
  -3358911.851 8  -2600201.84845  24840367.751    24840366.8344   24840376.6884
        -0.000          -0.000
 99  4 11  3 21 30.0010000  0  9 17 23 22 21  6  3 29  1 31          0.001757331
   2975786.892 9   2320519.00248  21729306.948    21729306.4044   21729313.5384
        -0.000          -0.000
   3205265.445 9   2565027.92248  21785747.984    21785747.5714   21785754.8454
        -0.000          -0.000
  12676443.829 8   9874463.94745  26019319.472    26019319.4314   26019335.1914
        -0.000          -0.000
 -10399996.060 9  -8091462.60248  21921757.696    21921757.2534   21921764.3044
        -0.000          -0.000
  22558869.953 8  17563360.38345  25327066.718    25327066.3174   25327077.5494
        -0.000          -0.000
 -15005681.385 9 -11197607.28048  22284103.778    22284103.6164   22284110.5984
        -0.000          -0.000
 -14042585.030 9 -10924420.49147  22774677.447    22774677.6094   22774685.5164
        -0.000          -0.000
  -5537972.891 8  -3556047.46745  24733480.731    24733480.5894   24733494.9114
        -0.000          -0.000
  -3440245.771 8  -2663578.87145  24824889.970    24824889.2774   24824899.1794
        -0.000          -0.000
 99  4 11  3 22  0.0010000  0  9 17 23 22 21  6  3 29  1 31          0.001761983
   3019902.098 9   2354894.49048  21737701.659    21737701.1434   21737708.4204
        -0.000          -0.000
   3248180.219 9   2598468.03948  21793914.385    21793914.0074   21793921.1824
        -0.000          -0.000
  12748522.764 8   9930629.18045  26033035.577    26033035.7334   26033051.3194
        -0.000          -0.000
 -10418513.051 9  -8105891.36948  21918233.983    21918233.5734   21918240.4934
        -0.000          -0.000
  22680752.400 8  17658333.45545  25350260.421    25350259.9004   25350271.1594
        -0.000          -0.000
 -15040095.507 9 -11224423.40948  22277554.605    22277554.5804   22277561.5564
        -0.000          -0.000
 -14126661.242 9 -10989934.24947  22758677.931    22758678.1854   22758686.0234
        -0.000          -0.000
  -5639846.925 9  -3635429.40045  24714094.280    24714094.1894   24714108.5244
        -0.000          -0.000
  -3521317.277 8  -2726751.41445  24809462.381    24809461.6874   24809471.7334
        -0.000          -0.000
 99  4 11  3 22 30.0010000  0  9 17 23 22 21  6  3 29  1 31          0.001766620
   3064324.308 9   2389509.20448  21746154.891    21746154.3714   21746161.7344
        -0.000          -0.000
   3291193.758 9   2631985.10748  21802099.746    21802099.3304   21802106.3784
        -0.000          -0.000
  12820517.219 8   9986728.53745  26046735.840    26046736.2194   26046751.4474
        -0.000          -0.000
 -10436864.095 9  -8120190.83148  21914741.747    21914741.4004   21914748.3444
        -0.000          -0.000
  22802646.516 8  17753315.66445  25373455.612    25373455.6044   25373466.9414
        -0.000          -0.000
 -15073979.614 9 -11250826.53548  22271106.468    22271106.5044   22271113.5164
        -0.000          -0.000
 -14210462.454 9 -11055233.71647  22742731.106    22742731.2054   22742739.0564
        -0.000          -0.000
  -5741655.483 8  -3714760.33245  24694720.864    24694720.4814   24694734.4704
        -0.000          -0.000
  -3602103.879 8  -2789701.94145  24794089.345    24794088.4504   24794098.3044
        -0.000          -0.000
 99  4 11  3 23  0.0010000  0  9 17 23 22 21  6  3 29  1 31          0.001771260
   3109096.489 9   2424396.63248  21754674.664    21754674.1034   21754681.5144
        -0.000          -0.000
   3334335.518 9   2665602.07548  21810309.507    21810309.0874   21810315.9174
        -0.000          -0.000
  12892448.585 8  10042778.81145  26060424.578    26060424.7234   26060439.0254
        -0.000          -0.000
 -10455018.591 9  -8134337.13248  21911286.923    21911286.6524   21911293.6804
        -0.000          -0.000
  22924559.598 8  17848312.69845  25396654.220    25396654.2334   25396666.5124
        -0.000          -0.000
 -15107317.477 9 -11276804.02448  22264762.530    22264762.5064   22264769.3844
        -0.000          -0.000
 -14293982.182 9 -11120313.87447  22726837.805    22726837.8184   22726845.7114
        -0.000          -0.000
  -5843383.973 8  -3794028.88045  24675362.544    24675361.7144   24675375.6724
        -0.000          -0.000
  -3682570.082 8  -2852402.82945  24778776.887    24778776.2504   24778785.8784
        -0.000          -0.000
 99  4 11  3 23 30.0010000  0  9 17 23 22 21  6  3 29  1 31          0.001775899
   3154199.129 9   2459541.56048  21763257.271    21763256.7214   21763264.1554
        -0.000          -0.000
   3377620.513 9   2699330.66948  21818546.477    21818545.9954   21818552.6964
        -0.000          -0.000
  12964305.767 8  10098771.22945  26074099.121    26074098.9754   26074112.7224
        -0.000          -0.000
 -10472979.985 9  -8148332.96948  21907868.963    21907868.6884   21907875.8454
        -0.000          -0.000
  23046470.385 8  17943307.90645  25419852.850    25419853.0314   25419865.7784
        -0.000          -0.000
 -15140116.483 9 -11302361.62548  22258521.174    22258521.0874   22258527.8714
        -0.000          -0.000
 -14377224.362 9 -11185177.76547  22710997.207    22710997.2644   22711005.1414
        -0.000          -0.000
  -5945037.687 8  -3873239.14945  24656017.899    24656017.2454   24656031.1384
        -0.000          -0.000
  -3762712.990 8  -2914851.78745  24763526.288    24763525.5084   24763534.9014
        -0.000          -0.000
 99  4 11  3 24  0.0010000  0  9 17 23 22 21  6  3 29  1 31          0.001780550
   3199654.272 9   2494961.15948  21771907.055    21771906.5034   21771913.8514
        -0.000          -0.000
   3421077.759 9   2733193.49048  21826816.101    21826815.6304   21826822.2314
        -0.000          -0.000
  13036116.679 8  10154727.60545  26087764.220    26087764.1964   26087778.1764
        -0.000          -0.000
 -10490716.591 9  -8162153.64148  21904493.847    21904493.5354   21904500.6624
        -0.000          -0.000
  23168385.183 8  18038306.18645  25443052.946    25443053.0904   25443065.6814
        -0.000          -0.000
 -15172350.493 9 -11327478.96148  22252387.222    22252387.1034   22252394.0644
        -0.000          -0.000
 -14460180.420 9 -11249818.71347  22695211.114    22695211.1824   22695219.0744
        -0.000          -0.000
  -6046600.075 8  -3952378.26845  24636690.581    24636690.1954   24636703.9474
        -0.000          -0.000
  -3842496.669 8  -2977020.80445  24748343.897    24748343.4184   24748352.2614
        -0.000          -0.000
 99  4 11  3 24 30.0010000  0  9 17 23 22 21  6  3 29  1 31          0.001785225
   3245452.418 9   2530648.03748  21780622.218    21780621.6494   21780628.8554
        -0.000          -0.000
   3464689.650 9   2767176.80948  21835115.160    21835114.6754   21835121.2714
        -0.000          -0.000
  13107864.592 8  10210634.92945  26101417.752    26101417.7254   26101431.5124
        -0.000          -0.000
 -10508238.910 9  -8175807.34448  21901159.381    21901159.0144   21901166.2334
        -0.000          -0.000
  23290284.847 8  18133292.65045  25466250.100    25466250.3604   25466263.1784
        -0.000          -0.000
 -15204033.790 9 -11352167.18548  22246357.992    22246357.8574   22246365.0004
        -0.000          -0.000
 -14542845.125 9 -11314232.61547  22679480.713    22679480.6524   22679488.3544
        -0.000          -0.000
  -6148054.028 9  -4031432.89945  24617384.554    24617384.2494   24617397.4954
        -0.000          -0.000
  -3921917.591 8  -3038907.17545  24733230.655    24733230.0914   24733238.8534
        -0.000          -0.000
 99  4 11  3 25  0.0010000  0  9 17 23 22 21  6  3 29  1 31          0.001789932
   3291600.522 9   2566607.61048  21789404.016    21789403.4204   21789410.5594
        -0.000          -0.000
   3508465.229 9   2801287.66348  21843445.315    21843444.8184   21843451.5034
        -0.000          -0.000
  13179550.574 7  10266493.93045  26115059.074    26115059.0314   26115072.7934
        -0.000          -0.000
 -10525533.996 9  -8189283.98248  21897868.127    21897867.8314   21897874.9894
        -0.000          -0.000
  23412170.706 8  18228268.32045  25489444.816    25489445.1834   25489457.2814
        -0.000          -0.000
 -15235163.886 9 -11376424.34348  22240434.146    22240434.0284   22240441.2754
        -0.000          -0.000
 -14625174.192 9 -11378384.99047  22663813.911    22663813.8384   22663821.4624
        -0.000          -0.000
  -6249371.298 9  -4110380.99545  24598105.046    24598104.3574   24598117.3034
        -0.000          -0.000
  -4000966.318 8  -3100503.50345  24718188.150    24718187.4854   24718196.3374
        -0.000          -0.000
 99  4 11  3 25 30.0010000  0  9 17 23 22 21  6  3 29  1 31          0.001794658
   3338082.808 9   2602827.59348  21798249.347    21798248.7764   21798255.9214
        -0.000          -0.000
   3552383.232 9   2835509.49948  21851802.629    21851802.1624   21851808.7944
        -0.000          -0.000
  13251151.66717  10322286.82245  26128684.266    26128684.6895   26128698.3334
        -0.000          -0.000
 -10542635.917 9  -8202610.09648  21894613.860    21894613.4554   21894620.5104
        -0.000          -0.000
  23534031.409 8  18323224.42445  25512634.697    25512634.7604   25512646.6884
        -0.000          -0.000
 -15265750.167 9 -11400257.73548  22234613.923    22234613.6774   22234620.9914
        -0.000          -0.000
 -14707178.145 9 -11442284.03347  22648208.717    22648208.7224   22648216.4524
        -0.000          -0.000
  -6350557.182 9  -4189226.70945  24578850.244    24578849.2684   24578862.0564
        -0.000          -0.000
  -4079672.196 8  -3161832.69845  24703210.938    24703210.2734   24703219.2214
        -0.000          -0.000
 99  4 11  3 26  0.0010000  0  9 17 23 22 21  6  3 29  1 31          0.001799410
   3384908.605 9   2639315.24248  21807160.119    21807159.5284   21807166.5504
        -0.000          -0.000
   3596429.243 9   2869831.09248  21860184.394    21860183.8894   21860190.4364
        -0.000          -0.000
  13322649.107 8  10377998.93245  26142290.140    26142290.4874   26142303.6744
        -0.000          -0.000
 -10559565.582 9  -8215801.99748  21891392.098    21891391.8054   21891398.8654
        -0.000          -0.000
  23655875.523 8  18418167.58245  25535820.950    25535821.1804   25535833.0344
        -0.000          -0.000
 -15295790.033 9 -11423665.35948  22228897.533    22228897.2854   22228904.5594
        -0.000          -0.000
 -14788864.523 9 -11505935.63247  22632664.166    22632664.2934   22632671.9554
        -0.000          -0.000
  -6451603.649 9  -4267963.83645  24559621.141    24559620.2704   24559633.3214
        -0.000          -0.000
  -4158041.521 9  -3222899.61745  24688297.894    24688297.1674   24688306.4314
        -0.000          -0.000
 99  4 11  3 26 30.0010000  0  9 17 23 22 21  6  3 29  1 31          0.001804167
   3432056.922 9   2676054.20648  21816132.144    21816131.5474   21816138.6344
        -0.000          -0.000
   3640601.413 9   2904250.99548  21868590.151    21868589.6314   21868596.1614
        -0.000          -0.000
  13394027.649 8  10433618.39745  26155874.258    26155873.7644   26155887.3774
        -0.000          -0.000
 -10576325.377 9  -8228861.53148  21888202.734    21888202.4234   21888209.5394
        -0.000          -0.000
  23777705.880 8  18513100.03645  25559004.276    25559004.2004   25559016.5694
        -0.000          -0.000
 -15325279.841 9 -11446644.35748  22223285.660    22223285.4204   22223292.6924
        -0.000          -0.000
 -14870228.686 9 -11569336.14147  22617181.113    22617181.1514   22617188.8964
        -0.000          -0.000
  -6552506.916 9  -4346589.37745  24540419.173    24540418.5434   24540431.8814
        -0.000          -0.000
  -4236099.946 8  -3283724.32545  24673443.850    24673443.3614   24673452.5794
        -0.000          -0.000
 99  4 11  3 27  0.0010000  0  9 17 23 22 21  6  3 29  1 31          0.001808922
   3479533.865 9   2713049.24248  21825166.626    21825166.0824   21825173.1924
        -0.000          -0.000
   3684934.375 9   2938796.17248  21877026.283    21877025.8304   21877032.4394
        -0.000          -0.000
  13465316.997 8  10489168.31745  26169439.982    26169439.9344   26169454.3164
        -0.000          -0.000
 -10592892.739 9  -8241771.11148  21885050.064    21885049.7354   21885056.7954
        -0.000          -0.000
  23899546.111 8  18608040.18145  25582189.279    25582189.2104   25582202.2024
        -0.000          -0.000
 -15354192.377 9 -11469173.54848  22217783.776    22217783.5194   22217790.7034
        -0.000          -0.000
 -14951253.362 9 -11632472.13647  22601762.300    22601762.5164   22601770.3454
        -0.000          -0.000
  -6653263.236 9  -4425100.40845  24521245.771    24521245.0164   24521257.8634
        -0.000          -0.000
  -4313838.685 9  -3344299.89345  24658650.839    24658650.2924   24658659.5734
        -0.000          -0.000
 99  4 11  3 27 30.0010000  0  9 17 23 22 21  6  3 29  1 31          0.001813668
   3527328.234 9   2750291.62748  21834261.646    21834261.1364   21834268.2454
        -0.000          -0.000
   3729435.469 9   2973472.37048  21885494.547    21885494.0884   21885500.6794
        -0.000          -0.000
  13536518.694 8  10544649.98045  26182989.233    26182988.5354   26183003.6664
        -0.000          -0.000
 -10609265.221 9  -8254528.83648  21881934.504    21881934.1124   21881941.1344
        -0.000          -0.000
  24021392.398 8  18702984.97645  25605375.591    25605375.7394   25605388.7884
        -0.000          -0.000
 -15382517.228 9 -11491244.80948  22212393.699    22212393.5004   22212400.5854
        -0.000          -0.000
 -15031952.224 9 -11695354.23547  22586405.846    22586406.1164   22586413.8054
        -0.000          -0.000
  -6753878.610 9  -4503501.61245  24502098.917    24502098.2814   24502110.6264
        -0.000          -0.000
  -4391253.481 9  -3404623.04445  24643919.446    24643918.8304   24643928.0414
        -0.000          -0.000
 99  4 11  3 28  0.0010000  0  9 17 23 22 21  6  3 29  1 31          0.001818390
   3575419.075 9   2787765.02948  21843413.047    21843412.5404   21843419.6574
        -0.000          -0.000
   3774090.292 9   3008268.35748  21893992.050    21893991.5954   21893998.2324
        -0.000          -0.000
  13607615.88618  10600050.14945  26196518.454    26196517.4215   26196533.3544
        -0.000          -0.000
 -10625435.493 9  -8267128.99948  21878857.368    21878856.9924   21878864.0024
        -0.000          -0.000
  24143214.795 8  18797911.15944  25628557.956    25628557.7804   25628570.7244
        -0.000          -0.000
 -15410268.247 9 -11512868.91848  22207113.037    22207112.7464   22207119.6944
        -0.000          -0.000
 -15112328.265 9 -11757984.77747  22571110.993    22571111.1354   22571118.6764
        -0.000          -0.000
  -6854367.577 9  -4581804.29445  24482975.801    24482975.5794   24482987.6224
        -0.000          -0.000
  -4468339.086 8  -3464689.66645  24629250.460    24629249.9554   24629259.1334
        -0.000          -0.000
 99  4 11  3 28 30.0010000  0  9 17 23 22 21  6  3 29  1 31          0.001823095
   3623816.674 9   2825477.45648  21852622.863    21852622.3354   21852629.2934
        -0.000          -0.000
   3818890.919 9   3043177.95848  21902517.358    21902516.8834   21902523.5934
        -0.000          -0.000
  13678606.80217  10655367.52445  26210026.958    26210026.2765   26210042.7334
        -0.000          -0.000
 -10641403.042 9  -8279571.19048  21875818.856    21875818.4464   21875825.3904
        -0.000          -0.000
  24264992.001 8  18892802.04354  25651731.840    25651731.1344          0.0005
        -0.000          -0.000
 -15437453.444 9 -11534052.13148  22201939.652    22201939.4574   22201946.3654
        -0.000          -0.000
 -15192379.884 9 -11820362.53447  22555877.666    22555877.7414   22555885.2834
        -0.000          -0.000
  -6954739.852 9  -4660016.07645  24463875.500    24463875.0924   24463886.9584
        -0.000          -0.000
  -4545086.849 9  -3524493.05345  24614645.601    24614645.1864   24614654.3994
        -0.000          -0.000
 99  4 11  3 29  0.0010000  0  9 17 23 22 21  6  3 29  1 31          0.001827796
   3672533.180 9   2863438.37748  21861893.163    21861892.6674   21861899.5484
        -0.000          -0.000
   3863810.519 9   3078180.26548  21911065.285    21911064.8054   21911071.5734
        -0.000          -0.000
  13749479.73218  10710592.99945  26223514.312    26223513.6385   26223529.0764
        -0.000          -0.000
 -10657179.373 9  -8291864.39148  21872816.722    21872816.3544   21872823.2314
        -0.000          -0.000
  24386719.170 8  18987653.93854  25674896.328    25674895.0714          0.0005
        -0.000          -0.000
 -15464082.347 9 -11554801.87148  22196872.262    22196872.0364   22196878.8614
        -0.000          -0.000
 -15272122.401 9 -11882499.43247  22540703.123    22540703.0864   22540710.6004
        -0.000          -0.000
  -7055003.182 9  -4738142.95645  24444796.283    24444795.4614   24444807.1854
        -0.000          -0.000
  -4621481.289 9  -3584021.10145  24600108.066    24600107.5614   24600116.9294
        -0.000          -0.000
 99  4 11  3 29 30.0010000  0  9 17 23 22 21  6  3 29  1 31          0.001832515
   3721598.907 9   2901671.40848  21871229.952    21871229.4734   21871236.3554
        -0.000          -0.000
   3908831.402 9   3113261.48748  21919632.395    21919631.9254   21919638.6424
        -0.000          -0.000
  13820233.130 8  10765725.23845  26236978.760    26236978.0164   26236993.7594
        -0.000          -0.000
 -10672756.426 9  -8304002.30648  21869852.564    21869852.1564   21869858.9664
        -0.000          -0.000
  24508395.07818  19082466.07153         0.000           0.0005          0.0005
        -0.000          -0.000
 -15490143.386 9 -11575109.12148  22191912.934    22191912.6994   22191919.4834
        -0.000          -0.000
 -15351557.329 9 -11944396.64847  22525587.006    22525586.8914   22525594.4834
        -0.000          -0.000
  -7155140.117 9  -4816171.36145  24425740.574    24425739.7034   24425751.6354
        -0.000          -0.000
  -4697495.130 9  -3643252.57545  24585642.761    24585642.2954   24585651.9504
        -0.000          -0.000
 99  4 11  3 30  0.0010000  0  9 17 23 22 21  6  3 29  1 31          0.001837274
   3771056.891 9   2940210.12148  21880641.371    21880640.9084   21880647.8064
        -0.000          -0.000
   3953961.296 9   3148427.66448  21928220.235    21928219.8294   21928226.4264
        -0.000          -0.000
  13890894.500 8  10820785.87045  26250425.650    26250424.8684   26250440.0694
        -0.000          -0.000
 -10688120.310 9  -8315974.11648  21866928.859    21866928.4114   21866935.1704
        -0.000          -0.000
  24630039.56317     22957.75152         0.000           0.0005          0.0005
        -0.000          -0.000
 -15515638.511 9 -11594975.39148  22187061.295    22187061.0384   22187067.8984
        -0.000          -0.000
 -15430663.938 9 -12006038.03647  22510533.037    22510533.0534   22510540.8374
        -0.000          -0.000
  -7255130.086 9  -4894085.27546  24406712.397    24406711.7264   24406723.8704
        -0.000          -0.000
  -4773112.947 9  -3702175.44246  24571252.756    24571252.4064   24571262.2944
        -0.000          -0.000
 99  4 11  3 30 30.0010000  0  9 17 23 22 21  6  3 29  1 31          0.001842051
   3820863.024 9   2979020.11348  21890119.145    21890118.7064   21890125.6974
        -0.000          -0.000
   3999162.726 9   3183649.57348  21936821.644    21936821.2554   21936827.9374
        -0.000          -0.000
  13961440.27118  10875756.32544  26263849.704    26263849.2945   26263863.9764
        -0.000          -0.000
 -10703313.908 9  -8327813.23048  21864037.569    21864037.1224   21864043.8264
        -0.000          -0.000
  24751634.54617    117690.12552         0.000           0.0005          0.0005
        -0.000          -0.000
 -15540611.726 9 -11614434.99148  22182308.858    22182308.6484   22182315.7144
        -0.000          -0.000
 -15509491.728 9 -12067462.16947  22495532.139    22495532.3284   22495540.2844
        -0.000          -0.000
  -7355003.878 9  -4971908.66946  24387706.520    24387705.9734   24387718.2534
        -0.000          -0.000
  -4848377.295 9  -3760822.90246  24556930.173    24556929.8724   24556939.9084
        -0.000          -0.000
 99  4 11  3 31  0.0010000  0  9 17 23 22 21  6  3 29  1 31          0.001846861
   3871042.971 9   3018121.39148  21899668.126    21899667.6464   21899674.7014
        -0.000          -0.000
   4044485.302 9   3218965.88848  21945446.134    21945445.7644   21945452.5754
        -0.000          -0.000
  14031917.79516  10930673.68944  26277261.077    26277260.8895   26277275.7734
        -0.000          -0.000
 -10718293.483 9  -8339485.57148  21861186.912    21861186.4664   21861193.2904
        -0.000          -0.000
  24873225.07517    212393.67452         0.000           0.0005          0.0005
        -0.000          -0.000
 -15565016.646 9 -11633451.76348  22177664.606    22177664.4034   22177671.6594
        -0.000          -0.000
 -15587997.675 9 -12128635.51647  22480592.772    22480592.9304   22480601.0224
        -0.000          -0.000
  -7454714.917 9  -5049605.23246  24368731.967    24368731.2794   24368743.6424
        -0.000          -0.000
  -4923256.898 9  -3819170.57446  24542681.040    24542680.8154   24542690.5884
        -0.000          -0.000
 99  4 11  3 31 30.0010000  0  9 17 23 22 21  6  3 29  1 31          0.001851675
   3921567.816 9   3057491.40248  21909282.598    21909282.1304   21909289.3034
        -0.000          -0.000
   4089931.052 9   3254378.19548  21954094.278    21954093.8674   21954100.6494
        -0.000          -0.000
  14102314.13218  10985527.97754  26290656.802    26290657.1165   26290671.9695
        -0.000          -0.000
 -10733083.347 9  -8351010.10248  21858372.306    21858371.9944   21858378.8684
        -0.000          -0.000
  24994783.72916     15048.10452         0.000           0.0005          0.0005
        -0.000          -0.000
 -15588875.535 9 -11652043.05748  22173124.116    22173124.0064   22173131.4004
        -0.000          -0.000
 -15666189.848 9 -12189564.36447  22465713.241    22465713.3604   22465721.4064
        -0.000          -0.000
  -7554281.911 9  -5127189.55346  24349785.207    24349784.1964   24349796.4134
        -0.000          -0.000
  -4997792.544 9  -3877250.22845  24528497.660    24528497.1754   24528506.7774
        -0.000          -0.000
 99  4 11  3 32  0.0010000  0  9 17 23 22 21  6  3 29  1 31          0.001856453
   3972386.137 9   3097090.09448  21918952.893    21918952.4354   21918959.7254
        -0.000          -0.000
   4135489.774 9   3289878.51848  21962763.957    21962763.4754   21962770.2704
        -0.000          -0.000
  14172602.816 8  11040298.02444  26304032.906    26304033.0364   26304047.8474
        -0.000          -0.000
 -10747709.703 9  -8362407.21248  21855589.115    21855588.8004   21855595.5254
        -0.000          -0.000
  25116293.27116    109755.94742         0.000           0.0005          0.0004
        -0.000          -0.000
 -15612218.816 9 -11670232.59148  22168681.853    22168681.8114   22168689.2044
        -0.000          -0.000
 -15744079.261 9 -12250257.29447  22450891.442    22450891.4614   22450899.4494
        -0.000          -0.000
  -7653726.567 9  -5204678.56646  24330861.196    24330860.2264   24330872.3674
        -0.000          -0.000
  -5072032.344 9  -3935099.32645  24514370.532    24514369.8854   24514379.2154
        -0.000          -0.000
 99  4 11  3 32 30.0010000  0  9 17 23 22 21  6  3 29  1 31          0.001861205
   4023511.153 9   3136927.78148  21928681.730    21928681.2504   21928688.4694
        -0.000          -0.000
   4181199.859 9   3325496.77948  21971462.306    21971461.8344   21971468.6924
        -0.000          -0.000
  14242802.010 8  11094998.46244  26317392.055    26317391.7584   26317406.5754
        -0.000          -0.000
 -10762142.465 9  -8373653.47348  21852842.861    21852842.4524   21852849.1244
        -0.000          -0.000
  25237790.48416    204508.37552         0.000           0.0005          0.0005
        -0.000          -0.000
 -15634999.678 9 -11687983.86348  22164346.607    22164346.6134   22164354.0524
        -0.000          -0.000
 -15821629.072 9 -12310685.60947  22436134.041    22436134.2074   22436142.0864
        -0.000          -0.000
  -7753019.900 9  -5282049.66346  24311965.612    24311965.0774   24311976.9394
        -0.000          -0.000
  -5145943.103 9  -3992692.05545  24500306.141    24500305.1424   24500314.3364
        -0.000          -0.000
 99  4 11  3 33  0.0010000  0  9 17 23 22 21  6  3 29  1 31          0.001865926
   4074946.652 9   3177007.39448  21938469.734    21938469.1944   21938476.3624
        -0.000          -0.000
   4227055.686 9   3361228.60748  21980188.276    21980187.7934   21980194.8234
        -0.000          -0.000
  14312886.243 8  11149609.29454  26330729.031    26330728.8674   26330742.9025
        -0.000          -0.000
 -10776397.112 9  -8384760.94348  21850130.318    21850129.8804   21850136.5304
        -0.000          -0.000
  25359258.00316      7150.62552         0.000           0.0005          0.0005
        -0.000          -0.000
 -15657218.945 9 -11705297.53348  22160118.280    22160118.3594   22160125.7264
        -0.000          -0.000
 -15898836.944 9 -12370847.45347  22421442.039    22421442.0484   22421449.7504
        -0.000          -0.000
  -7852173.179 9  -5359311.63446  24293096.856    24293096.5404   24293108.0814
        -0.000          -0.000
  -5219534.573 8  -4050035.97145  24486302.371    24486301.1574   24486310.2374
        -0.000          -0.000
 99  4 11  3 33 30.0010000  0  8 17 23 22 21  3 29  1 31             0.001870608
   4126679.521 9   3217318.71748  21948314.252    21948313.6394   21948320.8014
        -0.000          -0.000
   4273040.588 9   3397061.01548  21988938.761    21988938.3154   21988945.4944
        -0.000          -0.000
  14382840.627 8  11204118.99545  26344041.004    26344040.4324   26344055.5524
        -0.000          -0.000
 -10790482.903 9  -8395736.83348  21847449.872    21847449.3864   21847456.0594
        -0.000          -0.000
 -15678891.909 9 -11722185.52348  22155994.001    22155994.1044   22156001.2284
        -0.000          -0.000
 -15975709.451 9 -12430747.99747  22406813.814    22406813.7364   22406821.3404
        -0.000          -0.000
  -7951200.654 9  -5436475.58346  24274252.176    24274251.8954   24274263.3514
        -0.000          -0.000
  -5292807.269 8  -4107131.50245  24472358.690    24472357.8394   24472366.8804
        -0.000          -0.000
 99  4 11  3 34  0.0010000  0  8 17 23 22 21  3 29  1 31             0.001875278
   4178730.512 9   3257877.93648  21958219.204    21958218.6424   21958225.7844
        -0.000          -0.000
   4319158.522 9   3432997.10348  21997714.879    21997714.3994   21997721.4474
        -0.000          -0.000
  14452668.524 8  11258530.08445  26357329.026    26357327.2824   26357343.2584
        -0.000          -0.000
 -10804378.293 9  -8406564.36548  21844805.415    21844805.0164   21844811.7544
        -0.000          -0.000
 -15699994.058 9 -11738628.71348  22151978.470    22151978.4544   22151985.5394
        -0.000          -0.000
 -16052231.876 9 -12490375.76748  22392251.958    22392252.0164   22392259.4254
        -0.000          -0.000
  -8050081.481 9  -5513525.27846  24255435.793    24255435.5324   24255446.7334
        -0.000          -0.000
  -5365717.923 8  -4163944.91045  24458484.497    24458483.4044   24458492.4504
        -0.000          -0.000
 99  4 11  3 34 30.0010000  0  8 17 23 22 21  3 29  1 31             0.001879952
   4231116.571 9   3298698.23848  21968187.977    21968187.3904   21968194.4954
        -0.000          -0.000
   4365393.349 9   3469024.26348  22006513.138    22006512.6184   22006519.6544
        -0.000          -0.000
  14522355.89717  11312831.67444  26370590.014    26370588.7505   26370604.3964
        -0.000          -0.000
 -10818093.762 9  -8417251.69748  21842195.481    21842195.0434   21842201.8374
        -0.000          -0.000
 -15720526.019 9 -11754627.60448  22148071.330    22148071.3394   22148078.5454
        -0.000          -0.000
 -16128408.455 9 -12549734.02948  22377756.268    22377756.2024   22377763.3114
        -0.000          -0.000
  -8148822.072 9  -5590465.68646  24236646.270    24236645.8104   24236656.9214
        -0.000          -0.000
  -5438247.510 8  -4220461.35745  24444683.348    24444681.5994   24444690.3914
        -0.000          -0.000
 99  4 11  3 35  0.0010000  0  8 17 23 22 21  3 29  1 31             0.001884633
   4283845.986 9   3339786.09648  21978222.056    21978221.5144   21978228.6504
        -0.000          -0.000
   4411746.288 9   3505143.44848  22015333.790    22015333.2524   22015340.3274
        -0.000          -0.000
  14591909.56518  11367029.32653         0.000           0.0005          0.0005
        -0.000          -0.000
 -10831616.658 9  -8427788.96948  21839622.230    21839621.7154   21839628.4464
        -0.000          -0.000
 -15740473.574 9 -11770171.10848  22144275.377    22144275.3574   22144282.7484
        -0.000          -0.000
 -16204231.180 9 -12608816.55948  22363327.763    22363327.5714   22363334.5544
        -0.000          -0.000
  -8247406.778 9  -5667284.63946  24217886.247    24217885.7274   24217896.6964
        -0.000          -0.000
  -5510379.639 9  -4276668.12045  24430957.368    24430955.3124   24430964.0834
        -0.000          -0.000
 99  4 11  3 35 30.0010000  0  8 17 23 22 21  3 29  1 31             0.001889333
   4336910.665 9   3381135.20348  21988319.886    21988319.3334   21988326.5404
        -0.000          -0.000
   4458202.919 9   3541343.43348  22024174.141    22024173.6124   22024180.7454
        -0.000          -0.000
  14661313.49318  11421110.04653         0.000           0.0005          0.0005
        -0.000          -0.000
 -10844961.451 9  -8438187.45848  21837082.708    21837082.2034   21837088.7634
        -0.000          -0.000
 -15759853.880 9 -11785272.60048  22140587.483    22140587.4404   22140594.8064
        -0.000          -0.000
 -16279711.463 9 -12667632.24648  22348964.178    22348964.0454   22348971.0504
        -0.000          -0.000
  -8345837.452 9  -5743983.57646  24199155.262    24199154.7354   24199165.6674
        -0.000          -0.000
  -5582106.980 9  -4332559.44145  24417308.422    24417306.2304   24417314.6274
        -0.000          -0.000
 99  4 11  3 36  0.0010000  0  8 17 23 22 21  3 29  1 31             0.001894061
   4390333.214 9   3422763.15848  21998485.871    21998485.3454   21998492.5574
        -0.000          -0.000
   4504769.194 9   3577628.85448  22033035.374    22033034.8674   22033042.0444
        -0.000          -0.000
  14730567.39518  11475073.76353         0.000           0.0005          0.0005
        -0.000          -0.000
 -10858126.136 9  -8448445.59948  21834577.533    21834577.0874   21834583.6124
        -0.000          -0.000
 -15778663.200 9 -11799929.17448  22137008.273    22137008.2484   22137015.3604
        -0.000          -0.000
 -16354835.442 9 -12726170.31048  22334668.413    22334668.3114   22334675.2614
        -0.000          -0.000
  -8444105.717 9  -5820555.97446  24180454.754    24180454.5014   24180465.6304
        -0.000          -0.000
  -5653417.607 9  -4388126.05645  24403738.417    24403736.3254   24403744.5584
        -0.000          -0.000
 99  4 11  3 36 30.0010000  0  8 17 23 22 21  3 29  1 31             0.001898823
   4444128.025 9   3464681.19548  22008722.734    22008722.1894   22008729.4244
        -0.000          -0.000
   4551462.593 9   3614013.34048  22041920.832    22041920.3264   22041927.3794
        -0.000          -0.000
  14799684.50018     41769.15852         0.000           0.0005          0.0005
        -0.000          -0.000
 -10871104.454 9  -8458558.53348  21832107.713    21832107.2574   21832114.0994
        -0.000          -0.000
 -15796896.325 9 -11814136.75148  22133538.797    22133538.6804   22133545.5984
        -0.000          -0.000
 -16429585.208 9 -12784416.78147  22320443.805    22320443.8184   22320450.6424
        -0.000          -0.000
  -8542200.982 9  -5896993.59646  24161787.376    24161787.3834   24161798.6144
        -0.000          -0.000
  -5724307.785 9  -4443365.06945  24390247.909    24390246.1744   24390254.2794
        -0.000          -0.000
 99  4 11  3 37  0.0010000  0  8 17 23 22 21  3 29  1 31             0.001903618
   4498290.268 9   3506885.55548  22019029.431    22019028.8544   22019036.0594
        -0.000          -0.000
   4598290.947 9   3650502.99948  22050831.967    22050831.4074   22050838.2844
        -0.000          -0.000
  14868667.21118     95517.55752         0.000           0.0005          0.0005
        -0.000          -0.000
 -10883897.538 9  -8468527.12548  21829673.021    21829672.6324   21829679.5574
        -0.000          -0.000
 -15814555.973 9 -11827897.47648  22130178.234    22130178.1364   22130185.0794
        -0.000          -0.000
 -16503963.912 9 -12842374.10247  22306290.137    22306290.0874   22306296.6714
        -0.000          -0.000
  -8640126.853 9  -5973299.21846  24143152.772    24143152.4544   24143163.8504
        -0.000          -0.000
  -5794775.173 9  -4498274.60245  24376837.775    24376836.4584   24376844.5544
        -0.000          -0.000
 99  4 11  3 37 30.0010000  0  8 17 23 22 21  3 29  1 31             0.001908442
   4552821.460 9   3549377.39648  22029406.439    22029405.8504   22029413.0044
        -0.000          -0.000
   4645244.846 9   3687090.47148  22059766.901    22059766.3524   22059773.1714
        -0.000          -0.000
  14937498.48115    149147.75452         0.000           0.0005          0.0005
        -0.000          -0.000
 -10896510.885 9  -8478355.65048  21827272.706    21827272.2744   21827279.0524
        -0.000          -0.000
 -15831661.007 9 -11841226.02948  22126923.143    22126923.0904   22126930.2114
        -0.000          -0.000
 -16577978.039 9 -12900047.34148  22292205.853    22292205.7074   22292212.1164
        -0.000          -0.000
  -8737893.531 9  -6049480.77446  24124548.177    24124547.8734   24124559.1114
        -0.000          -0.000
  -5864828.209 9  -4552861.27045  24363506.673    24363505.5064   24363513.8474
        -0.000          -0.000
 99  4 11  3 38  0.0010000  0  8 17 23 22 21  3 29  1 31             0.001913268
   4607709.099 9   3592146.97948  22039851.246    22039850.6194   22039857.7774
        -0.000          -0.000
   4692323.685 9   3723775.28348  22068725.678    22068725.1794   22068732.0484
        -0.000          -0.000
     30885.96418     14746.54752         0.000           0.0005          0.0005
        -0.000          -0.000
 -10908927.241 9  -8488030.67948  21824909.904    21824909.4204   21824916.1914
        -0.000          -0.000
 -15848192.570 9 -11854107.73248  22123777.181    22123777.1284   22123784.4464
        -0.000          -0.000
 -16651618.924 9 -12957429.75048  22278192.299    22278192.2094   22278198.7414
        -0.000          -0.000
  -8835502.898 9  -6125539.77246  24105973.359    24105973.1434   24105984.1884
        -0.000          -0.000
  -5934479.549 9  -4607134.93245  24350252.072    24350251.0624   24350259.5034
        -0.000          -0.000
 99  4 11  3 38 30.0010000  0  8 17 23 22 21  3 29  1 31             0.001918079
   4662922.007 9   3635170.02548  22050357.890    22050357.3054   22050364.5064
        -0.000          -0.000
   4739508.939 9   3760543.02248  22077704.775    22077704.2834   22077711.1354
        -0.000          -0.000
     99427.538 8     68124.18652         0.000           0.0004          0.0005
        -0.000          -0.000
 -10921155.774 9  -8497559.35548  21822582.819    21822582.3414   21822589.1424
        -0.000          -0.000
 -15864147.873 9 -11866540.40048  22120740.916    22120740.8104   22120748.2144
        -0.000          -0.000
 -16724908.919 9 -13014538.75048  22264245.508    22264245.5144   22264252.1524
        -0.000          -0.000
  -8932951.464 9  -6201473.46446  24087429.248    24087428.9614   24087439.8714
        -0.000          -0.000
  -6003746.553 9  -4661109.11145  24337070.644    24337069.8774   24337078.2554
        -0.000          -0.000
 99  4 11  3 39  0.0010000  0  8 17 23 22 21  3 29  1 31             0.001922868
   4718449.759 9   3678438.41148  22060924.478    22060923.9304   22060931.1174
        -0.000          -0.000
   4786786.709 9   3797382.86848  22086701.445    22086700.9754   22086707.7314
        -0.000          -0.000
    167824.47018    121347.99352         0.000           0.0005          0.0005
        -0.000          -0.000
 -10933190.402 9  -8506936.94148  21820292.691    21820292.1964   21820298.9804
        -0.000          -0.000
 -15879529.955 9 -11878526.39948  22117813.590    22117813.5674   22117821.1034
        -0.000          -0.000
 -16797851.392 9 -13071376.93948  22250365.041    22250364.8634   22250371.4214
        -0.000          -0.000
  -9030235.624 9  -6277279.05246  24068916.132    24068915.8174   24068927.0174
        -0.000          -0.000
  -6072634.874 9  -4714788.23445  24323961.497    24323960.5834   24323969.1334
        -0.000          -0.000
 99  4 11  3 39 30.0010000  0  8 17 23 22 21  3 29  1 31             0.001927633
   4774295.992 9   3721954.96848  22071551.792    22071551.1934   22071558.2674
        -0.000          -0.000
   4834159.965 9   3834297.11748  22095716.201    22095715.8044   22095722.4904
        -0.000          -0.000
    236085.15817     11110.87752         0.000           0.0005          0.0005
        -0.000          -0.000
 -10945026.304 9  -8516159.67748  21818040.351    21818039.8754   21818046.6294
        -0.000          -0.000
 -15894323.920 9 -11890054.12948  22114998.431    22114998.3854   22115005.8884
        -0.000          -0.000
 -16870426.554 9 -13127928.92748  22236554.229    22236554.0944   22236560.4574
        -0.000          -0.000
  -9127334.636 9  -6352940.38646  24050438.129    24050437.8794   24050449.6304
        -0.000          -0.000
  -6141142.757 9  -4768170.87845  24310924.857    24310923.9074   24310932.5064
        -0.000          -0.000
 99  4 11  3 40  0.0010000  0  8 17 23 22 21  3 29  1 31             0.001932369
   4830447.649 9   3765709.53048  22082236.960    22082236.3664   22082243.4904
        -0.000          -0.000
   4881621.946 9   3871280.48348  22104747.906    22104747.5424   22104754.2414
        -0.000          -0.000
    304204.47418     64191.41052         0.000           0.0005          0.0005
        -0.000          -0.000
 -10956686.625 9  -8525245.59848  21815821.391    21815820.9214   21815827.6354
        -0.000          -0.000
 -15908515.606 9 -11901112.53748  22112298.132    22112297.9744   22112305.3504
        -0.000          -0.000
 -16942630.418 9 -13184191.58948  22222814.118    22222814.0564   22222820.2924
        -0.000          -0.000
  -9224246.889 9  -6428456.20246  24031995.431    24031995.4974   24032008.0634
        -0.000          -0.000
  -6209276.936 9  -4821262.35245  24297959.605    24297958.3644   24297966.8504
        -0.000          -0.000
 99  4 11  3 40 30.0010000  0  8 17 23 22 21  3 29  1 31             0.001937108
   4886935.126 9   3809725.75448  22092985.860    22092985.3654   22092992.6004
        -0.000          -0.000
   4929194.851 9   3908350.28348  22113800.871    22113800.4744   22113807.0674
        -0.000          -0.000
    372194.54518    117171.91652         0.000           0.0005          0.0005
        -0.000          -0.000
 -10968166.712 9  -8534191.07248  21813636.790    21813636.3244   21813643.0894
        -0.000          -0.000
 -15922098.703 9 -11911696.72348  22109713.632    22109713.3944   22109720.6414
        -0.000          -0.000
 -17014447.379 9 -13240152.76848  22209147.780    22209147.7374   22209153.9504
        -0.000          -0.000
  -9320946.262 9  -6503806.16346  24013593.572    24013593.9554   24013606.7784
        -0.000          -0.000
  -6277006.236 9  -4874038.33145  24285070.980    24285069.8954   24285078.0414
        -0.000          -0.000
 99  4 11  3 41  0.0010000  0  8 17 23 22 21  3 29  1 31             0.001941865
   4943781.935 9   3854021.97147  22103803.330    22103802.8464   22103810.0294
        -0.000          -0.000
   4976886.344 9   3945512.49948  22122876.365    22122875.9124   22122882.3144
        -0.000          -0.000
    440040.39916      6639.79652         0.000           0.0005          0.0005
        -0.000          -0.000
 -10979466.568 9  -8542996.10948  21811486.390    21811485.9134   21811492.7684
        -0.000          -0.000
 -15935080.797 9 -11921812.59148  22107243.310    22107243.0044   22107250.0924
        -0.000          -0.000
 -17085865.374 9 -13295803.05748  22195557.281    22195557.2864   22195563.6004
        -0.000          -0.000
  -9417437.478 9  -6578993.89346  23995232.018    23995232.3464   23995244.8424
        -0.000          -0.000
  -6344320.898 9  -4926491.23845  24272261.640    24272260.6544   24272268.4234
        -0.000          -0.000
 99  4 11  3 41 30.0010000  0  8 17 23 22 21  3 29  1 31             0.001946636
   5000968.495 9   3898582.91947  22114685.566    22114685.0724   22114692.1474
        -0.000          -0.000
   5024689.419 9   3982761.67448  22131972.917    22131972.4454   22131978.7394
        -0.000          -0.000
    507710.65718     59392.37842         0.000           0.0005          0.0004
        -0.000          -0.000
 -10990615.361 9  -8551683.43348  21809364.750    21809364.3214   21809371.2264
        -0.000          -0.000
 -15947478.571 9 -11931473.16648  22104883.977    22104883.7484   22104890.6394
        -0.000          -0.000
 -17156923.558 9 -13351172.97748  22182035.384    22182035.2974   22182041.8174
        -0.000          -0.000
  -9513737.315 9  -6654032.49046  23976907.235    23976907.3424   23976919.2574
        -0.000          -0.000
  -6411231.502 9  -4978629.27045  24259529.522    24259528.1884   24259535.9564
        -0.000          -0.000
 99  4 11  3 42  0.0010000  0  7 17 23 21  3 29  1 31                0.001951422
   5058505.797 9   3943417.18647  22125634.526    22125633.9934   22125641.0344
        -0.000          -0.000
   5072613.231 9   4020104.92248  22141092.385    22141091.9714   22141098.2254
        -0.000          -0.000
 -11001596.019 9  -8560239.74448  21807275.231    21807274.8084   21807281.6454
        -0.000          -0.000
 -15959295.288 9 -11940680.96548  22102635.163    22102634.9254   22102641.7094
        -0.000          -0.000
 -17227635.964 9 -13406273.46348  22168579.015    22168579.0124   22168585.8064
        -0.000          -0.000
  -9609840.874 9  -6728918.15446  23958619.575    23958619.5734   23958630.9424
        -0.000          -0.000
  -6477731.517 9  -5030447.36545  24246875.323    24246873.8384   24246881.6354
        -0.000          -0.000
 99  4 11  3 42 30.0010000  0  7 17 23 21  3 29  1 31                0.001956230
   5116406.825 9   3988534.87047  22136652.606    22136652.0754   22136659.2134
        -0.000          -0.000
   5120670.561 9   4057552.21748  22150237.460    22150237.0104   22150243.2084
        -0.000          -0.000
 -11012385.363 9  -8568646.98348  21805222.128    21805221.6994   21805228.4794
        -0.000          -0.000
 -15970542.568 9 -11949445.04948  22100494.719    22100494.5164   22100501.2504
        -0.000          -0.000
 -17298001.871 9 -13461103.94548  22155188.621    22155188.6724   22155195.6984
        -0.000          -0.000
  -9705739.228 9  -6803643.92946  23940370.839    23940370.6564   23940381.7844
        -0.000          -0.000
  -6543808.175 9  -5081935.58645  24234301.058    24234299.8634   24234307.5064
        -0.000          -0.000
 99  4 11  3 43  0.0010000  0  7 17 23 21  3 29  1 31                0.001961059
   5174677.441 9   4033940.55247  22147741.112    22147740.5984   22147747.7404
        -0.000          -0.000
   5168869.807 9   4095110.08148  22159409.484    22159408.9914   22159415.2964
        -0.000          -0.000
 -11022965.342 9  -8576891.07848  21803208.957    21803208.4734   21803215.0974
        -0.000          -0.000
 -15981209.254 9 -11957756.70748  22098464.897    22098464.6514   22098471.3434
        -0.000          -0.000
 -17368010.025 9 -13515655.67048  22141866.393    22141866.4454   22141873.5894
        -0.000          -0.000
  -9801423.311 9  -6878202.73646  23922162.978    23922162.5614   23922173.3504
        -0.000          -0.000
  -6609456.374 9  -5133089.93745  24221808.583    24221807.5024   24221815.0404
        -0.000          -0.000
 99  4 11  3 43 30.0010000  0  7 17 23 21  3 29  1 31                0.001965889
   5233291.120 9   4079613.54248  22158894.880    22158894.4364   22158901.6334
        -0.000          -0.000
   5217198.662 9   4132768.93348  22168605.906    22168605.4154   22168612.0194
        -0.000          -0.000
 -11033345.615 9  -8584979.55848  21801233.790    21801233.2204   21801239.7634
        -0.000          -0.000
 -15991296.243 9 -11965616.66848  22096545.474    22096545.1704   22096551.8244
        -0.000          -0.000
 -17437668.931 9 -13569935.26748  22128610.700    22128610.8214   22128617.9254
        -0.000          -0.000
  -9896909.751 9  -6952607.55846  23903992.804    23903992.0814   23904002.5694
        -0.000          -0.000
  -6674687.876 9  -5183919.60245  24209395.408    24209394.1964   24209401.7174
        -0.000          -0.000
 99  4 11  3 44  0.0010000  0  7 17 23 21  3 29  1 31                0.001970691
   5292234.830 9   4125543.70348  22170111.649    22170111.1024   22170118.4104
        -0.000          -0.000
   5265613.579 9   4170494.85748  22177818.632    22177818.2664   22177825.0244
        -0.000          -0.000
 -11043548.909 9  -8592930.14048  21799292.036    21799291.5554   21799298.1504
        -0.000          -0.000
 -16000820.553 9 -11973038.17748  22094733.090    22094732.7554   22094739.3484
        -0.000          -0.000
 -17506963.016 9 -13623930.58348  22115424.516    22115424.6604   22115431.5734
        -0.000          -0.000
  -9992223.637 9  -7026877.92146  23885854.940    23885854.3574   23885864.5914
        -0.000          -0.000
  -6739532.410 9  -5234447.70645  24197055.710    24197054.4784   24197061.8634
        -0.000          -0.000
 99  4 11  3 44 30.0010000  0  7 17 23 21  3 29  1 31                0.001975465
   5351517.787 9   4171738.23148  22181392.858    22181392.3114   22181399.5884
        -0.000          -0.000
   5314107.966 9   4208282.71348  22187046.815    22187046.4574   22187053.1564
        -0.000          -0.000
 -11053580.935 9  -8600747.25848  21797383.030    21797382.5764   21797389.1084
        -0.000          -0.000
 -16009763.071 9 -11980006.34248  22093031.290    22093030.9634   22093037.6154
        -0.000          -0.000
 -17575864.714 9 -13677620.13148  22102313.123    22102313.1074   22102319.7584
        -0.000          -0.000
 -10087358.364 9  -7101008.70346  23867751.358    23867750.8704   23867760.7424
        -0.000          -0.000
  -6803984.503 9  -5284670.04345  24184790.662    24184789.5494   24184796.6634
        -0.000          -0.000
 99  4 11  3 45  0.0010000  0  7 17 23 21  3 29  1 31                0.001980220
   5411149.079 9   4218204.18448  22192740.416    22192739.8564   22192747.0784
        -0.000          -0.000
   5362679.183 9   4246130.42548  22196289.593    22196289.2394   22196295.8994
        -0.000          -0.000
 -11063445.007 9  -8608433.50348  21795505.994    21795505.4764   21795512.0264
        -0.000          -0.000
 -16018104.713 9 -11986506.29648  22091443.672    22091443.4824   22091450.2054
        -0.000          -0.000
 -17644367.336 9 -13730998.71748  22089277.410    22089277.3424   22089284.0254
        -0.000          -0.000
 -10182309.216 9  -7174996.21046  23849682.614    23849682.1494   23849691.8854
        -0.000          -0.000
  -6868029.741 9  -5334575.35745  24172603.148    24172602.1754   24172609.0234
        -0.000          -0.000
 99  4 11  3 45 30.0010000  0  7 17 23 21  3 29  1 31                0.001984972
   5471145.050 9   4264954.27048  22204157.371    22204156.7824   22204163.9804
        -0.000          -0.000
   5411332.577 9   4284042.16848  22205547.921    22205547.5904   22205554.2924
        -0.000          -0.000
 -11073152.064 9  -8615997.40548  21793658.688    21793658.2254   21793664.9114
        -0.000          -0.000
 -16025832.470 9 -11992527.89848  22089972.926    22089972.8704   22089979.6544
        -0.000          -0.000
 -17712453.787 9 -13784053.01448  22076320.723    22076320.7514   22076327.6184
        -0.000          -0.000
 -10277059.581 9  -7248827.49546  23831651.724    23831651.4214   23831661.1854
        -0.000          -0.000
  -6931652.855 9  -5384151.72345  24160495.823    24160494.9384   24160501.9104
        -0.000          -0.000
 99  4 11  3 46  0.0010000  0  7 17 23 21  3 29  1 31                0.001989727
   5531501.443 9   4311985.21848  22215642.946    22215642.3604   22215649.4314
        -0.000          -0.000
   5460067.020 9   4322017.07448  22214821.683    22214821.3394   22214828.1624
        -0.000          -0.000
 -11082706.924 9  -8623442.72548  21791840.229    21791839.8634   21791846.6684
        -0.000          -0.000
 -16032960.669 9 -11998082.30248  22088616.455    22088616.4194   22088623.2744
        -0.000          -0.000
 -17780128.620 9 -13836786.57148  22063442.695    22063442.6964   22063449.5604
        -0.000          -0.000
 -10371594.060 9  -7322490.58146  23813662.260    23813662.0654   23813671.4204
        -0.000          -0.000
  -6994860.269 9  -5433404.16546  24148467.663    24148466.7954   24148473.9834
        -0.000          -0.000
 99  4 11  3 46 30.0010000  0  7 17 23 21  3 29  1 31                0.001994517
   5592237.880 9   4359312.31348  22227200.799    22227200.2194   22227207.2294
        -0.000          -0.000
   5508925.094 9   4360088.31948  22224119.075    22224118.7424   22224125.6124
        -0.000          -0.000
 -11092077.312 9  -8630744.28648  21790057.138    21790056.7584   21790063.4524
        -0.000          -0.000
 -16039477.736 9 -12003160.49648  22087376.296    22087376.2584   22087383.2124
        -0.000          -0.000
 -17847386.795 9 -13889195.45648  22050643.870    22050643.7984   22050650.6674
        -0.000          -0.000
 -10465878.684 9  -7395958.93546  23795720.745    23795720.3764   23795729.3734
        -0.000          -0.000
  -7057611.861 9  -5482301.41846  24136526.311    24136525.5124   24136532.7704
        -0.000          -0.000
 99  4 11  3 47  0.0010000  0  7 17 23 21  3 29  1 31                0.001999321
   5653301.069 9   4406894.01948  22238820.747    22238820.1954   22238827.1694
        -0.000          -0.000
   5557874.859 9   4398231.00948  22233434.117    22233433.7644   22233440.5854
        -0.000          -0.000
 -11101304.438 9  -8637934.22148  21788301.213    21788300.8044   21788307.3384
        -0.000          -0.000
 -16045441.064 9 -12007807.21048  22086241.620    22086241.5234   22086248.4764
        -0.000          -0.000
 -17914271.615 9 -13941313.44048  22037915.991    22037915.9884   22037922.8244
        -0.000          -0.000
 -10559961.029 9  -7469269.67646  23777817.690    23777817.1314   23777825.9924
        -0.000          -0.000
  -7119930.289 9  -5530861.11846  24124667.258    24124666.4524   24124673.9254
        -0.000          -0.000
 99  4 11  3 47 30.0010000  0  7 17 23 21  3 29  1 31                0.002004127
   5714680.317 9   4454722.00848  22250500.839    22250500.3094   22250507.2804
        -0.000          -0.000
   5606924.287 9   4436451.36548  22242768.104    22242767.7124   22242774.4304
        -0.000          -0.000
 -11110373.158 9  -8645000.71148  21786575.489    21786575.0784   21786581.4184
        -0.000          -0.000
 -16050848.826 9 -12012021.02548  22085212.747    22085212.5264   22085219.4514
        -0.000          -0.000
 -17980765.405 9 -13993126.70948  22025262.697    22025262.6384   22025269.4024
        -0.000          -0.000
 -10653829.608 9  -7542413.83246  23759954.623    23759954.1374   23759963.1754
        -0.000          -0.000
  -7181816.065 9  -5579083.67946  24112890.463    24112889.5054   24112897.2194
        -0.000          -0.000
 99  4 11  3 48  0.0020000  0  8 17 23 21  3 29  9  1 31             0.002008935
   5776383.060 9   4502802.04648  22262242.558    22262241.9704   22262249.0124
        -0.000          -0.000
   5656083.180 9   4474757.02448  22252122.905    22252122.4764   22252129.0934
        -0.000          -0.000
 -11119248.071 9  -8651916.18748  21784886.704    21784886.2274   21784892.5184
        -0.000          -0.000
 -16055688.959 9 -12015792.52448  22084291.665    22084291.4634   22084298.3484
        -0.000          -0.000
 -18046868.824 9 -14044635.78448  22012683.553    22012683.4274   22012690.2144
        -0.000          -0.000
     -5244.39818     -3114.27452         0.000           0.0005          0.0005
        -0.000          -0.000
 -10747477.490 9  -7615386.01646  23742133.257    23742133.0354   23742142.3024
        -0.000          -0.000
  -7243252.979 9  -5626956.46246  24101198.814    24101197.7394   24101206.0014
        -0.000          -0.000
 99  4 11  3 48 30.0020000  0  8 17 23 21  3 29  9  1 31             0.002013757
   5838421.693 9   4551143.83248  22274048.106    22274047.5374   22274054.4744
        -0.000          -0.000
   5705336.043 9   4513135.89448  22261495.458    22261494.9684   22261501.5354
        -0.000          -0.000
 -11127937.115 9  -8658686.84148  21783233.030    21783232.6424   21783238.9274
        -0.000          -0.000
 -16059948.057 9 -12019111.27348  22083481.147    22083480.9544   22083487.7134
        -0.000          -0.000
 -18112575.687 9 -14095835.86548  22000179.868    22000179.7234   22000186.4334
        -0.000          -0.000
     -9333.955 8     -6260.30552         0.000           0.0004          0.0005
        -0.000          -0.000
 -10840906.658 9  -7688187.79846  23724353.557    23724353.5524   23724363.0974
        -0.000          -0.000
  -7304217.668 9  -5674461.31146  24089597.212    24089596.3304   24089604.7634
        -0.000          -0.000
 99  4 11  3 49  0.0020000  0  9 17 23 21  3 29  9  8  1 31          0.002018579
   5900794.068 9   4599745.66648  22285917.333    22285916.7614   22285923.5414
        -0.000          -0.000
   5754671.014 9   4551578.74648  22270883.604    22270883.1094   22270889.6224
        -0.000          -0.000
 -11136446.641 9  -8665317.59648  21781613.686    21781613.3334   21781619.6034
        -0.000          -0.000
 -16063617.135 9 -12021970.24948  22082782.909    22082782.7374   22082789.4074
        -0.000          -0.000
 -18177884.306 9 -14146725.63648  21987752.001    21987751.8264   21987758.3974
        -0.000          -0.000
    -12909.905 8     -9006.10952         0.000           0.0004          0.0005
        -0.000          -0.000
    -50899.38718    -32703.87852         0.000           0.0005          0.0005
        -0.000          -0.000
 -10934127.358 9  -7760827.12046  23706613.849    23706613.8744   23706623.7074
        -0.000          -0.000
  -7364726.494 9  -5721610.93846  24078082.716    24078082.0004   24078090.4264
        -0.000          -0.000
 99  4 11  3 49 30.0020000  0  9 17 23 21  3 29  9  8  1 31          0.002023334
   5963505.457 9   4648611.67848  22297851.039    22297850.4094   22297857.1044
        -0.000          -0.000
   5804075.502 9   4590075.77148  22280284.917    22280284.4604   22280291.0064
        -0.000          -0.000
 -11144767.200 9  -8671801.10948  21780030.385    21780029.9994   21780036.2794
        -0.000          -0.000
 -16066684.446 9 -12024360.32348  22082199.325    22082199.0924   22082205.7024
        -0.000          -0.000
 -18242801.222 9 -14197310.17648  21975398.582    21975398.4694   21975404.9544
        -0.000          -0.000
    -15979.18318     -1905.76452         0.000           0.0005          0.0005
        -0.000          -0.000
   -112837.367 8    -80963.24252         0.000           0.0004          0.0005
        -0.000          -0.000
 -11027135.634 9  -7833300.93646  23688914.855    23688914.7964   23688924.6644
        -0.000          -0.000
  -7424792.760 9  -5768415.70446  24066652.777    24066652.0134   24066660.5584
        -0.000          -0.000
 99  4 11  3 50  0.0020000  0  9 17 23 21  3 29  9  8  1 31          0.002028138
   6026556.267 9   4697742.18348  22309849.231    22309848.5934   22309855.3444
        -0.000          -0.000
   5853529.854 9   4628611.63948  22289695.719    22289695.2454   22289701.9004
        -0.000          -0.000
 -11152919.537 9  -8678153.54548  21778479.169    21778478.7534   21778485.0454
        -0.000          -0.000
 -16069170.605 9 -12026297.55748  22081726.135    22081726.0294   22081732.7354
        -0.000          -0.000
 -18307351.729 9 -14247609.20248  21963114.859    21963114.7524   21963121.2904
        -0.000          -0.000
    -18554.471 7     -3894.84352         0.000           0.0004          0.0005
        -0.000          -0.000
   -174569.536 8   -129061.46252         0.000           0.0004          0.0005
        -0.000          -0.000
 -11119948.307 9  -7905622.33846  23671252.991    23671253.0534   23671262.7184
        -0.000          -0.000
  -7484423.001 9  -5814880.71946  24055305.658    24055304.8194   24055313.6844
        -0.000          -0.000
 99  4 11  3 50 30.0020000  0  9 17 23 21  3 29  9  8  1 31          0.002032952
   6089944.596 9   4747135.69548  22321911.509    22321910.9534   22321917.7404
        -0.000          -0.000
   5903043.302 9   4667193.56048  22299117.755    22299117.2724   22299124.0334
        -0.000          -0.000
 -11160910.277 9  -8684380.05848  21776958.634    21776958.0964   21776964.4544
        -0.000          -0.000
 -16071071.214 9 -12027778.52248  22081364.525    22081364.3904   22081371.1174
        -0.000          -0.000
 -18371508.394 9 -14297601.34948  21950906.052    21950906.0644   21950912.5984
        -0.000          -0.000
    -20630.12917     -5494.03352         0.000           0.0005          0.0005
        -0.000          -0.000
   -236093.54218    -28375.16352         0.000           0.0005          0.0005
        -0.000          -0.000
 -11212566.293 9  -7977792.03846  23653628.523    23653628.4844   23653637.6664
        -0.000          -0.000
  -7543616.347 9  -5861005.30846  24044041.409    24044040.6774   24044049.6754
        -0.000          -0.000
 99  4 11  3 51  0.0020000  0  9 17 23 21  3 29  9  8  1 31          0.002037748
   6153679.899 9   4796799.56648  22334039.868    22334039.3164   22334046.1344
        -0.000          -0.000
   5952655.721 9   4705852.59348  22308558.683    22308558.1574   22308564.9534
        -0.000          -0.000
 -11168700.341 9  -8690450.20648  21775476.033    21775475.5824   21775481.9174
        -0.000          -0.000
 -16072365.730 9 -12028787.20948  22081118.219    22081118.0804   22081124.7144
        -0.000          -0.000
 -18435237.693 9 -14347260.47848  21938778.655    21938778.6904   21938785.1584
        -0.000          -0.000
    -22179.82417      -835.54252         0.000           0.0005          0.0005
        -0.000          -0.000
   -297407.246 7    -76151.31652         0.000           0.0004          0.0005
        -0.000          -0.000
 -11304969.433 9  -8049794.33146  23636045.127    23636044.8464   23636053.6034
        -0.000          -0.000
  -7602356.938 9  -5906777.08646  24032863.285    24032862.4964   24032871.6304
        -0.000          -0.000
 99  4 11  3 51 30.0020000  0  9 17 23 21  3 29  9  8  1 31          0.002042544
   6217766.193 9   4846736.92548  22346235.077    22346234.5244   22346241.4204
        -0.000          -0.000
   6002372.883 9   4744593.25548  22318019.509    22318019.0074   22318025.7674
        -0.000          -0.000
 -11176302.050 9  -8696373.58148  21774029.385    21774028.9244   21774035.3714
        -0.000          -0.000
 -16073058.996 9 -12029327.38448  22080986.322    22080986.1214   22080992.8024
        -0.000          -0.000
 -18498541.573 9 -14396588.10648  21926732.334    21926732.3794   21926738.8024
        -0.000          -0.000
    -23200.940 8     -1511.63852         0.000           0.0004          0.0005
        -0.000          -0.000
   -358503.703 8   -123757.93552         0.000           0.0004          0.0005
        -0.000          -0.000
 -11397151.909 9  -8121624.67346  23618503.711    23618503.1814   23618511.6534
        -0.000          -0.000
  -7660628.913 9  -5952183.72946  24021774.277    24021773.4924   24021782.7694
        -0.000          -0.000
 99  4 11  3 52  0.0020000  0  9 17 23 21  3 29  9  8  1 31          0.002047342
   6282202.841 9   4896947.29748  22358496.917    22358496.3454   22358503.2854
        -0.000          -0.000
   6052204.413 9   4783423.03648  22327502.047    22327501.5634   22327508.3474
        -0.000          -0.000
 -11183749.824 9  -8702177.01548  21772612.076    21772611.6454   21772618.2134
        -0.000          -0.000
 -16073166.250 9 -12029410.93348  22080965.984    22080965.7854   22080972.4864
        -0.000          -0.000
 -18561421.879 9 -14445585.68148  21914766.687    21914766.6534   21914773.1464
        -0.000          -0.000
    -23694.731 8     -1760.97552         0.000           0.0004          0.0005
        -0.000          -0.000
   -419360.07118    -24115.93252         0.000           0.0005          0.0005
        -0.000          -0.000
 -11489111.391 9  -8193281.26047  23601004.351    23601003.8654   23601012.2984
        -0.000          -0.000
  -7718439.851 9  -5997231.12846  24010772.748    24010772.2684   24010781.3174
        -0.000          -0.000
 99  4 11  3 52 30.0020000  0  9 17 23 21  3 29  9  8  1 31          0.002052137
   6346991.729 9   4947432.13948  22370825.648    22370825.1904   22370832.2434
        -0.000          -0.000
   6102155.202 9   4822345.74548  22337007.270    22337006.7924   22337013.5044
        -0.000          -0.000
 -11191052.888 9  -8707867.67248  21771222.430    21771221.9374   21771228.4404
        -0.000          -0.000
 -16072684.245 9 -12029035.32348  22081057.736    22081057.5324   22081064.2464
        -0.000          -0.000
 -18623875.331 9 -14494250.64948  21902882.192    21902882.1504   21902888.7384
        -0.000          -0.000
    -23667.73218        60.49952         0.000           0.0005          0.0005
        -0.000          -0.000
   -479960.681 8    -71329.70552         0.000           0.0004          0.0005
        -0.000          -0.000
 -11580846.202 9  -8264762.80947  23583547.561    23583547.2304   23583555.7074
        -0.000          -0.000
  -7775796.599 9  -6041924.61346  23999857.775    23999857.3064   23999866.1044
        -0.000          -0.000
 99  4 11  3 53  0.0020000  0  9 17 23 21  3 29  9  8  1 31          0.002056942
   6412140.830 9   4998197.65748  22383223.184    22383222.6384   22383229.7234
        -0.000          -0.000
   6152222.574 9   4861359.29448  22346534.929    22346534.4764   22346540.9804
        -0.000          -0.000
 -11198226.390 9  -8713457.37148  21769857.278    21769856.8024   21769863.3554
        -0.000          -0.000
 -16071628.654 9 -12028212.76148  22081258.672    22081258.4334   22081265.1314
        -0.000          -0.000
 -18685928.620 9 -14542603.79348  21891073.871    21891073.8354   21891080.3834
        -0.000          -0.000
    -23124.602 8       479.92652         0.000           0.0004          0.0005
        -0.000          -0.000
   -540294.23017   -118331.66752         0.000           0.0005          0.0005
        -0.000          -0.000
 -11672338.055 9  -8336055.01847  23566137.387    23566136.9524   23566145.4564
        -0.000          -0.000
  -7832696.939 9  -6086262.45946  23989029.650    23989029.3414   23989037.9264
        -0.000          -0.000
 99  4 11  3 53 30.0020000  0  9 17 23 21  3 29  9  8  1 31          0.002061753
   6477636.651 9   5049233.36248  22395686.726    22395686.2194   22395693.0114
        -0.000          -0.000
   6202380.940 9   4900443.74648  22356079.965    22356079.4584   22356085.8364
        -0.000          -0.000
 -11205308.202 9  -8718975.62548  21768509.575    21768509.0754   21768515.7094
        -0.000          -0.000
 -16070022.253 9 -12026960.98948  22081564.301    22081564.0024   22081570.7684
        -0.000          -0.000
 -18747605.685 9 -14590663.78248  21879337.096    21879337.0404   21879343.5704
        -0.000          -0.000
    -22091.117 8      1280.57352         0.000           0.0004          0.0005
        -0.000          -0.000
   -600362.04917    -19900.29752         0.000           0.0005          0.0005
        -0.000          -0.000
 -11763581.152 9  -8407153.40447  23548774.625    23548773.9234   23548782.4114
        -0.000          -0.000
  -7889161.009 9  -6130260.38046  23978284.735    23978284.5494   23978292.8554
        -0.000          -0.000
 99  4 11  3 54  0.0020000  0  9 17 23 21  3 29  9  8  1 31          0.002066585
   6543502.917 9   5100557.70848  22408220.812    22408220.2624   22408226.8694
        -0.000          -0.000
   6252638.962 9   4939605.85348  22365643.789    22365643.2084   22365649.7034
        -0.000          -0.000
 -11212261.621 9  -8724393.84348  21767186.163    21767185.7214   21767192.4524
        -0.000          -0.000
 -16067836.637 9 -12025257.89848  22081979.952    22081979.7544   22081986.5534
        -0.000          -0.000
 -18808877.873 9 -14638408.27648  21867677.288    21867677.2324   21867683.7914
        -0.000          -0.000
    -20538.61118       727.29052         0.000           0.0005          0.0005
        -0.000          -0.000
   -660139.03017    -66473.71652         0.000           0.0005          0.0005
        -0.000          -0.000
 -11854540.036 9  -8478030.31547  23531465.820    23531464.9564   23531473.3244
        -0.000          -0.000
  -7945174.311 9  -6173907.04446  23967625.467    23967625.5184   23967633.8344
        -0.000          -0.000
 99  4 11  3 54 30.0020000  0  8 17 23 21  3 29  9  1 31             0.002071406
   6609749.270 9   5152178.22948  22420827.105    22420826.5254   22420833.1164
        -0.000          -0.000
   6302991.527 9   4978841.61648  22375225.376    22375224.8444   22375231.5034
        -0.000          -0.000
 -11219044.641 9  -8729679.27548  21765895.435    21765895.0144   21765901.6884
        -0.000          -0.000
 -16065050.132 9 -12023086.57948  22082510.045    22082509.9364   22082516.7934
        -0.000          -0.000
 -18869724.570 9 -14685821.22748  21856098.371    21856098.3284   21856104.9154
        -0.000          -0.000
    -18453.946 8      2350.47552         0.000           0.0004          0.0005
        -0.000          -0.000
 -11945189.066 9  -8548665.78547  23514215.623    23514214.9484   23514223.0764
        -0.000          -0.000
  -8000707.639 9  -6217179.68946  23957057.307    23957057.5554   23957066.1504
        -0.000          -0.000
 99  4 11  3 55  0.0020000  0  8 17 23 21  3 29  9  1 31             0.002076284
   6676332.280 9   5204061.09247  22433497.255    22433496.6744   22433503.3364
        -0.000          -0.000
   6353397.888 9   5018119.31748  22384817.490    22384816.9344   22384823.4914
        -0.000          -0.000
 -11225677.842 9  -8734847.96848  21764633.190    21764632.7784   21764639.3504
        -0.000          -0.000
 -16061695.557 9 -12020472.60048  22083148.420    22083148.3344   22083155.1024
        -0.000          -0.000
 -18930174.968 9 -14732925.36648  21844594.870    21844594.9024   21844601.5014
        -0.000          -0.000
    -15866.381 8      4364.97052         0.000           0.0004          0.0005
        -0.000          -0.000
 -12035558.840 9  -8619083.65347  23497018.810    23497018.0434   23497025.9564
        -0.000          -0.000
  -8055783.478 8  -6260095.84546  23946576.446    23946576.7704   23946585.5714
        -0.000          -0.000
 99  4 11  3 55 30.0020000  0  8 17 23 21  3 29  9  1 31             0.002081173
   6743263.756 9   5256215.47347  22446233.725    22446233.2064   22446239.8744
        -0.000          -0.000
   6403859.791 9   5057440.29848  22394420.077    22394419.5164   22394425.9224
        -0.000          -0.000
 -11232127.805 9  -8739873.88548  21763405.875    21763405.4084   21763411.8534
        -0.000          -0.000
 -16057748.925 9 -12017397.27048  22083899.603    22083899.4544   22083906.0074
        -0.000          -0.000
 -18990211.038 9 -14779706.64948  21833170.336    21833170.3814   21833176.9414
        -0.000          -0.000
    -12755.50318      1208.14052         0.000           0.0005          0.0005
        -0.000          -0.000
 -12125660.761 9  -8689292.81847  23479872.650    23479871.9344   23479879.9314
        -0.000          -0.000
  -8110394.135 9  -6302649.53146  23936184.116    23936184.4944   23936193.4664
        -0.000          -0.000
 99  4 11  3 56  0.0020000  0  8 17 23 21  3 29  9  1 31             0.002086070
   6810554.942 9   5308650.15147  22459038.898    22459038.3614   22459044.8714
        -0.000          -0.000
   6454400.404 9   5096822.61248  22404037.638    22404037.0884   22404043.4874
        -0.000          -0.000
 -11238356.921 9  -8744727.71248  21762220.593    21762220.0984   21762226.4024
        -0.000          -0.000
 -16053191.314 9 -12013845.86148  22084767.011    22084766.8144   22084773.1424
        -0.000          -0.000
 -19049821.457 9 -14826156.26948  21821826.848    21821826.8344   21821833.3374
        -0.000          -0.000
     -9105.227 8      4069.19852         0.000           0.0004          0.0005
        -0.000          -0.000
 -12215496.957 9  -8759294.91047  23462776.848    23462776.2894   23462784.6894
        -0.000          -0.000
  -8164514.770 9  -6344821.35346  23925885.484    23925885.7144   23925894.5854
        -0.000          -0.000
 99  4 11  3 56 30.0020000  0  8 17 23 21  3 29  9  1 31             0.002090936
   6878141.272 9   5361314.81247  22471900.214    22471899.6474   22471906.1344
        -0.000          -0.000
   6504995.268 9   5136247.18548  22413665.482    22413664.9234   22413671.4714
        -0.000          -0.000
 -11244422.162 9  -8749453.84048  21761066.411    21761065.8984   21761072.1484
        -0.000          -0.000
 -16048078.656 9 -12009861.93348  22085739.909    22085739.6614   22085745.9934
        -0.000          -0.000
 -19109058.234 9 -14872314.75548  21810554.283    21810554.3974   21810560.8324
        -0.000          -0.000
     -4972.838 8      7315.64152         0.000           0.0004          0.0005
        -0.000          -0.000
 -12305138.035 9  -8829144.98147  23445718.495    23445717.9374   23445726.5474
        -0.000          -0.000
  -8218186.847 9  -6386643.67246  23915672.369    23915672.3944   23915681.1214
        -0.000          -0.000
 99  4 11  3 57  0.0020000  0  8 17 23 21  3 29  9  1 31             0.002095753
   6946014.776 9   5414203.25447  22484816.174    22484815.6464   22484822.2104
        -0.000          -0.000
   6555667.942 9   5175732.38348  22423308.091    22423307.5874   22423314.1214
        -0.000          -0.000
 -11250324.731 9  -8754053.21748  21759942.949    21759942.5754   21759948.8984
        -0.000          -0.000
 -16042413.317 9 -12005447.34848  22086817.803    22086817.5654   22086824.1224
        -0.000          -0.000
 -19167923.946 9 -14918184.08648  21799352.630    21799352.7124   21799358.9824
        -0.000          -0.000
      -352.14818      1457.99252         0.000           0.0005          0.0005
        -0.000          -0.000
 -12394603.255 9  -8898858.02247  23428693.875    23428693.3234   23428701.8174
        -0.000          -0.000
  -8271420.812 9  -6428124.59946  23905542.426    23905542.4274   23905550.7614
        -0.000          -0.000
 99  4 11  3 57 30.0020000  0  8 17 23 21  3 29  9  1 31             0.002100522
   7014179.731 9   5467318.79647  22497787.556    22497787.0064   22497793.7294
        -0.000          -0.000
   6606432.032 9   5215288.82248  22432968.242    22432967.7294   22432974.1494
        -0.000          -0.000
 -11256055.140 9  -8758518.44548  21758852.513    21758852.1604   21758858.5184
        -0.000          -0.000
 -16036189.955 9 -12000597.95048  22088002.015    22088001.7754   22088008.3224
        -0.000          -0.000
 -19226397.431 9 -14963747.78748  21788225.586    21788225.6254   21788231.7354
        -0.000          -0.000
      4760.984 8      5427.38352         0.000           0.0004          0.0005
        -0.000          -0.000
 -12483878.686 9  -8968423.17047  23411705.273    23411704.7844   23411712.9584
        -0.000          -0.000
  -8324211.221 9  -6469259.90246  23895497.151    23895497.0114   23895504.9254
        -0.000          -0.000
 99  4 11  3 58  0.0020000  0  8 17 23 21  3 29  9  1 31             0.002105271
   7082662.709 9   5520682.14247  22510819.489    22510818.8944   22510825.7184
        -0.000          -0.000
   6657329.836 9   5254949.47048  22442653.815    22442653.2744   22442659.5714
        -0.000          -0.000
 -11261593.556 9  -8762834.05248  21757798.619    21757798.2104   21757804.6014
        -0.000          -0.000
 -16029376.931 9 -11995289.07148  22089298.430    22089298.1974   22089304.6264
        -0.000          -0.000
 -19284425.315 9 -15008964.26548  21777183.208    21777183.2404   21777189.3244
        -0.000          -0.000
     10404.165 8      9797.65752         0.000           0.0004          0.0005
        -0.000          -0.000
 -12572905.280 9  -9037794.42547  23394763.982    23394763.6624   23394771.3824
        -0.000          -0.000
  -8376520.941 9  -6510020.64946  23885543.222    23885542.9734   23885550.5134
        -0.000          -0.000
 99  4 11  3 58 30.0020000  0  8 17 23 21  3 29  9  1 31             0.002110008
   7151460.374 9   5574290.70947  22523911.219    22523910.6314   22523917.5234
        -0.000          -0.000
   6708330.330 9   5294690.13548  22452358.847    22452358.2964   22452364.6084
        -0.000          -0.000
 -11266969.756 9  -8767023.27348  21756775.409    21756775.0484   21756781.5384
        -0.000          -0.000
 -16021986.072 9 -11989529.93948  22090704.833    22090704.6744   22090710.8774
        -0.000          -0.000
 -19342003.438 9 -15053830.26948  21766226.446    21766226.4554   21766232.5034
        -0.000          -0.000
     16576.45618      1531.73152         0.000           0.0005          0.0005
        -0.000          -0.000
 -12661676.985 9  -9106967.05247  23377871.742    23377871.2764   23377878.5564
        -0.000          -0.000
  -8428369.896 9  -6550422.35746  23875676.724    23875676.4444   23875683.5954
        -0.000          -0.000
 99  4 11  3 59  0.0020000  0  8 17 23 21  3 29  9  1 31             0.002114754
   7220615.753 9   5628178.03747  22537070.968    22537070.3714   22537077.2904
        -0.000          -0.000
   6759429.542 9   5334507.70648  22462082.603    22462082.0544   22462088.4954
        -0.000          -0.000
 -11272173.224 9  -8771077.89148  21755785.293    21755784.9044   21755791.3334
        -0.000          -0.000
 -16013987.610 9 -11983297.33648  22092226.832    22092226.6804   22092232.7854
        -0.000          -0.000
 -19399107.430 9 -15098326.81948  21755359.867    21755359.8484   21755365.9374
        -0.000          -0.000
     23300.424 8      6771.59952         0.000           0.0004          0.0005
        -0.000          -0.000
 -12750146.262 9  -9175904.02547  23361037.091    23361036.3414   23361043.3944
        -0.000          -0.000
  -8479740.706 9  -6590451.47746  23865900.947    23865900.7614   23865907.9784
        -0.000          -0.000
 99  4 11  3 59 30.0020000  0  8 17 23 21  3 29  9  1 31             0.002119486
   7290077.121 9   5682303.77047  22550288.992    22550288.4304   22550295.2104
        -0.000          -0.000
   6810541.952 9   5374335.56548  22471808.869    22471808.3814   22471814.8334
        -0.000          -0.000
 -11277290.173 9  -8775065.09648  21754811.572    21754811.1484   21754817.5474
        -0.000          -0.000
 -16005446.829 9 -11976642.14848  22093851.970    22093851.8454   22093858.0134
        -0.000          -0.000
 -19455817.690 9 -15142516.58048  21744568.139    21744568.1494   21744574.2884
        -0.000          -0.000
     30512.321 8     12392.50852         0.000           0.0004          0.0005
        -0.000          -0.000
 -12838361.557 9  -9244643.12347  23344250.002    23344249.4034   23344256.5634
        -0.000          -0.000
  -8530696.761 9  -6630157.39646  23856204.538    23856204.2134   23856211.5194
        -0.000          -0.000
 99  4 11  4  0  0.0020000  0  8 17 23 21  3 29  9  1 31             0.002124234
   7359877.503 9   5736693.65747  22563571.636    22563571.0754   22563577.6854
        -0.000          -0.000
   6861681.706 9   5414184.73748  22481540.350    22481539.9644   22481546.3344
        -0.000          -0.000
 -11282315.073 9  -8778980.57048  21753855.407    21753854.9994   21753861.4694
        -0.000          -0.000
 -15996333.655 9 -11969540.95048  22095586.184    22095586.0244   22095592.1924
        -0.000          -0.000
 -19512132.159 9 -15186397.93348  21733851.853    21733851.8874   21733857.8774
        -0.000          -0.000
     38247.26018      1397.82652         0.000           0.0005          0.0005
        -0.000          -0.000
 -12926298.773 9  -9313165.51947  23327515.561    23327515.2974   23327522.5024
        -0.000          -0.000
  -8581209.179 9  -6669517.65446  23846592.777    23846592.3274   23846599.3514
        -0.000          -0.000
 99  4 11  4  0 30.0020000  0  8 17 23 21  3 29  9  1 31             0.002129014
   7430052.507 9   5791375.45747  22576925.581    22576924.9414   22576931.5344
        -0.000          -0.000
   6912876.793 9   5454077.02448  22491282.376    22491281.9504   22491288.3754
        -0.000          -0.000
 -11287203.848 9  -8782789.97648  21752925.166    21752924.6644   21752931.1714
        -0.000          -0.000
 -15986611.807 9 -11961965.44948  22097436.050    22097435.9244   22097442.1864
        -0.000          -0.000
 -19568028.235 9 -15229953.27148  21723215.240    21723215.2514   21723221.1214
        -0.000          -0.000
     46520.846 8      7863.59552         0.000           0.0004          0.0005
        -0.000          -0.000
 -13013931.981 9  -9381451.02147  23310839.504    23310839.2714   23310846.1804
        -0.000          -0.000
  -8631236.595 9  -6708499.97346  23837073.381    23837072.6674   23837079.3644
        -0.000          -0.000
 99  4 11  4  1  0.0020000  0  8 17 23 21  3 29  9  1 31             0.002133819
   7500598.882 9   5846346.65647  22590349.910    22590349.3174   22590356.2264
        -0.000          -0.000
   6964141.231 9   5494023.34448  22501037.566    22501037.1264   22501043.7054
        -0.000          -0.000
 -11291934.014 9  -8786475.78548  21752025.003    21752024.5374   21752030.9274
        -0.000          -0.000
 -15976279.496 9 -11953914.27348  22099402.188    22099402.1024   22099408.4364
        -0.000          -0.000
 -19623521.705 9 -15273194.87948  21712655.148    21712655.1224   21712661.0644
        -0.000          -0.000
     55332.570 7     14778.98752         0.000           0.0004          0.0005
        -0.000          -0.000
 -13101276.845 9  -9449511.83047  23294218.484    23294218.1794   23294224.7094
        -0.000          -0.000
  -8680759.575 9  -6747089.21146  23827649.749    23827648.8924   23827655.4814
        -0.000          -0.000
 99  4 11  4  1 30.0020000  0  8 17 23 21  3 29  9  1 31             0.002138643
   7571492.351 9   5901588.32147  22603840.439    22603839.9174   22603846.9124
        -0.000          -0.000
   7015478.098 9   5534026.10748  22510806.715    22510806.2434   22510812.8414
        -0.000          -0.000
 -11296504.478 9  -8790037.15848  21751155.160    21751154.7294   21751161.1004
        -0.000          -0.000
 -15965354.744 9 -11945401.45048  22101481.047    22101480.9834   22101487.4424
        -0.000          -0.000
 -19678614.396 9 -15316124.19348  21702171.296    21702171.3004   21702177.2124
        -0.000          -0.000
     64690.50517      1063.12252         0.000           0.0005          0.0005
        -0.000          -0.000
 -13188354.219 9  -9517364.21647  23277648.321    23277647.8604   23277654.1544
        -0.000          -0.000
  -8729772.330 9  -6785280.86846  23818322.905    23818322.0494   23818328.6634
        -0.000          -0.000
 99  4 11  4  2  0.0020000  0  8 17 23 21  3 29  9  1 31             0.002143467
   7642707.154 9   5957080.35947  22617392.284    22617391.7154   22617398.5244
        -0.000          -0.000
   7066871.173 9   5574072.66148  22520586.516    22520586.0134   22520592.6004
        -0.000          -0.000
 -11300918.729 9  -8793476.81248  21750315.013    21750314.6014   21750320.9294
        -0.000          -0.000
 -15953854.476 9 -11936440.17948  22103669.495    22103669.4084   22103675.8164
        -0.000          -0.000
 -19733292.865 9 -15358730.74348  21691766.397    21691766.3924   21691772.1864
        -0.000          -0.000
     74567.521 8      8758.99542         0.000           0.0004          0.0004
        -0.000          -0.000
 -13275179.563 9  -9585020.21647  23261125.766    23261125.3194   23261131.7994
        -0.000          -0.000
  -8778280.383 9  -6823079.26446  23809091.841    23809090.9904   23809097.6584
        -0.000          -0.000
